[[{"header":{"parameterUnit":"m.s-1","parameterCategory":1,"la1":31.0,"la2":29.5877,"lo1":-88.7671,"lo2":-86.6584,"dy":0.0162,"dx":0.0185,"nx":115,"ny":88,"refTime":"2024-06-28T06:00:00:Z","depth":0,"parameterNumber":2,"parameterNumberName":"U-component_of_WINDS"},"data":[0.0,0.0,0.0,0.0,0.0,0.0,0.0,0.0,0.0,0.0,0.0,0.0,0.0,0.0,0.0,0.0,0.0,0.0,0.0,0.0,0.0,0.0,0.0,0.0,0.0,0.0,0.0,0.0,0.0,0.0,0.0,0.0,0.0,0.0,0.0,0.0,0.0,0.0,0.0,0.0,0.0,0.0,0.0,0.0,0.0,0.0,0.0,0.0,0.0,0.0,0.0,0.0,0.0,0.0,0.0,0.0,0.0,0.0,0.0,0.0,0.0,0.0,0.0,0.0,0.0,0.0,0.0,0.0,0.0,0.0,0.0,0.0,0.0,0.0,0.0,0.0,0.0,0.0,0.0,0.0,0.0,0.0,0.0,0.0,0.0,0.0,0.0,0.0,0.0,0.0,0.0,0.0,0.0,0.0,0.0,0.0,0.0,0.0,0.0,0.0,0.0,0.0,0.0,0.0,0.0,0.0,0.0,0.0,0.0,0.0,0.0,0.0,0.0,0.0,0.0,0.0,0.0,0.0,0.0,0.0,0.0,0.0,0.0,0.0,0.0,0.0,0.0,0.0,0.0,0.0,0.0,0.0,0.0,0.0,0.0,0.0,0.0,0.0,0.0,0.0,0.0,0.0,0.0,0.0,0.0,0.0,0.0,0.0,0.0,0.0,0.0,0.0,0.0,0.0,0.0,0.0,0.0,0.0,0.0,0.0,0.0,0.0,0.0,0.0,0.0,0.0,0.0,0.0,0.0,0.0,0.0,0.0,0.0,0.0,0.0,0.0,0.0,0.0,0.0,0.0,0.0,0.0,0.0,0.0,0.0,0.0,0.0,0.0,0.0,0.0,0.0,0.0,0.0,0.0,0.0,0.0,0.0,0.0,0.0,0.0,0.0,0.0,0.0,0.0,0.0,0.0,0.0,0.0,0.0,0.0,0.0,0.0,0.0,0.0,0.0,0.0,0.0,0.0,0.0,0.0,0.0,0.0,0.0,0.0,0.0,0.0,0.0,0.0,0.0,0.0,0.0,0.0,0.0,0.0,0.0,0.0,0.0,0.0,0.0,0.0,0.0,0.0,0.0,0.0,0.0,0.0,0.0,0.0,0.0,0.0,0.0,0.0,0.0,0.0,0.0,0.0,0.0,0.0,0.0,0.0,0.0,0.0,0.0,0.0,0.0,0.0,0.0,0.0,0.0,0.0,0.0,0.0,0.0,0.0,0.0,0.0,0.0,0.0,0.0,0.0,0.0,0.0,0.0,0.0,0.0,0.0,0.0,0.0,0.0,0.0,0.0,0.0,0.0,0.0,0.0,0.0,0.0,0.0,0.0,0.0,0.0,0.0,0.0,0.0,0.0,0.0,0.0,0.0,0.0,0.0,0.0,0.0,0.0,0.0,0.0,0.0,0.0,0.0,0.0,0.0,0.0,0.0,0.0,0.0,0.0,0.0,0.0,0.0,0.0,0.0,0.0,0.0,0.0,0.0,0.0,0.0,0.0,0.0,0.0,0.0,0.0,0.0,0.0,0.0,0.0,0.0,0.0,0.0,0.0,0.0,0.0,0.0,0.0,0.0,0.0,0.0,0.0,0.0,0.0,0.0,0.0,0.0,0.0,0.0,0.0,0.0,0.0,0.0,0.0,0.0,0.0,0.0,0.0,0.0,0.0,0.0,0.0,0.0,0.0,0.0,0.0,0.0,0.0,0.0,0.0,0.0,0.0,0.0,0.0,0.0,0.0,0.0,0.0,0.0,0.0,0.0,0.0,0.0,0.0,0.0,0.0,0.0,0.0,0.0,0.0,0.0,0.0,0.0,0.0,0.0,0.0,0.0,0.0,0.0,0.0,0.0,0.0,0.0,0.0,0.0,0.0,0.0,0.0,0.0,0.0,0.0,0.0,0.0,0.0,0.0,0.0,0.0,0.0,0.0,0.0,0.0,0.0,0.0,0.0,0.0,0.0,0.0,0.0,0.0,0.0,0.0,0.0,0.0,0.0,0.0,0.0,0.0,0.0,0.0,0.0,0.0,0.0,0.0,0.0,0.0,0.0,0.0,0.0,0.0,0.0,0.0,0.0,0.0,0.0,0.0,0.0,0.0,0.0,0.0,0.0,0.0,0.0,0.0,0.0,0.0,0.0,0.0,0.0,0.0,0.0,0.0,0.0,0.0,0.0,0.0,0.0,0.0,0.0,0.0,0.0,0.0,0.0,0.0,0.0,0.0,0.0,0.0,0.0,0.0,0.0,0.0,0.0,0.0,0.0,0.0,0.0,0.0,0.0,0.0,0.0,0.0,0.0,0.0,0.0,0.0,0.0,0.0,0.0,0.0,0.0,0.0,0.0,0.0,0.0,0.0,0.0,0.0,0.0,0.0,0.0,0.0,0.0,0.0,0.0,0.0,0.0,0.0,0.0,0.0,0.0,0.0,0.0,0.0,0.0,0.0,0.0,0.0,0.0,0.0,0.0,0.0,0.0,0.0,0.0,0.0,0.0,0.0,0.0,0.0,0.0,0.0,0.0,0.0,0.0,0.0,0.0,0.0,0.0,0.0,0.0,0.0,0.0,0.0,0.0,0.0,0.0,0.0,0.0,0.0,0.0,0.0,0.0,0.0,0.0,0.0,0.0,0.0,0.0,0.0,0.0,0.0,0.0,0.0,0.0,0.0,0.0,0.0,0.0,0.0,0.0,0.0,0.0,0.0,0.0,0.0,0.0,0.0,0.0,0.0,0.0,0.0,0.0,0.0,0.0,0.0,0.0,0.0,0.0,0.0,0.0,0.0,0.0,0.0,0.0,0.0,0.0,0.0,0.0,0.0,0.0,0.0,0.0,0.0,0.0,0.0,0.0,0.0,0.0,0.0,0.0,0.0,0.0,0.0,0.0,0.0,0.0,0.0,0.0,0.0,0.0,0.0,0.0,0.0,0.0,0.0,0.0,0.0,0.0,0.0,0.0,0.0,0.0,0.0,0.0,0.0,0.0,0.0,0.0,0.0,0.0,0.0,0.0,0.0,0.0,0.0,0.0,0.0,0.0,0.0,0.0,0.0,0.0,0.0,0.0,0.0,0.0,0.0,0.0,0.0,0.0,0.0,0.0,0.0,0.0,0.0,0.0,0.0,0.0,0.0,0.0,0.0,0.0,0.0,0.0,0.0,0.0,0.0,0.0,0.0,0.0,0.0,0.0,0.0,0.0,0.0,0.0,0.0,0.0,0.0,0.0,0.0,0.0,0.0,0.0,0.0,0.0,0.0,0.0,0.0,0.0,0.0,0.0,0.0,0.0,0.0,0.0,0.0,0.0,0.0,0.0,0.0,0.0,0.0,0.0,0.0,0.0,0.0,0.0,0.0,0.0,0.0,0.0,0.0,0.0,0.0,0.0,0.0,0.0,0.0,0.0,0.0,0.0,0.0,0.0,0.0,0.0,0.0,0.0,0.0,0.0,0.0,0.0,0.0,0.0,0.0,0.0,0.0,0.0,0.0,0.0,0.0,0.0,0.0,0.0,0.0,0.0,0.0,0.0,0.0,0.0,0.0,0.0,0.0,0.0,0.0,0.0,0.0,0.0,0.0,0.0,0.0,0.0,0.0,0.0,0.0,0.0,0.0,0.0,0.0,0.0,0.0,0.0,0.0,0.0,0.0,0.0,0.0,0.0,0.0,0.0,0.0,0.0,0.0,0.0,0.0,0.0,0.0,0.0,0.0,0.0,0.0,0.0,0.0,0.0,0.0,0.0,0.0,0.0,0.0,0.0,0.0,0.0,0.0,0.0,0.0,0.0,0.0,0.0,0.0,0.0,0.0,0.0,0.0,0.0,0.0,0.0,0.0,0.0,0.0,0.0,0.0,0.0,0.0,0.0,0.0,0.0,0.0,0.0,0.0,0.0,0.0,0.0,0.0,0.0,0.0,0.0,0.0,0.0,0.0,0.0,0.0,0.0,0.0,0.0,0.0,0.0,0.0,0.0,0.0,0.0,0.0,0.0,0.0,0.0,0.0,0.0,0.0,0.0,0.0,0.0,0.0,0.0,0.0,0.0,0.0,0.0,0.0,0.0,0.0,0.0,0.0,0.0,0.0,0.0,0.0,0.0,0.0,0.0,0.0,0.0,0.0,0.0,0.0,0.0,0.0,0.0,0.0,0.0,0.0,0.0,0.0,0.0,0.0,0.0,0.0,0.0,0.0,0.0,0.0,0.0,0.0,0.0,0.0,0.0,0.0,0.0,0.0,0.0,0.0,0.0,0.0,0.0,0.0,0.0,0.0,0.0,0.0,0.0,0.0,0.0,0.0,-1.7704,0.0,0.0,0.0,0.0,0.0,0.0,0.0,0.0,0.0,0.0,0.0,0.0,0.0,0.0,0.0,0.0,0.0,0.0,0.0,0.0,0.0,0.0,0.0,0.0,0.0,0.0,0.0,0.0,0.0,0.0,0.0,0.0,0.0,0.0,0.0,0.0,0.0,0.0,0.0,0.0,0.0,0.0,0.0,0.0,0.0,0.0,0.0,0.0,0.0,0.0,0.0,0.0,0.0,0.0,0.0,0.0,0.0,0.0,0.0,0.0,0.0,0.0,0.0,0.0,0.0,0.0,0.0,0.0,0.0,0.0,0.0,0.0,0.0,0.0,0.0,0.0,0.0,0.0,0.0,0.0,0.0,0.0,0.0,0.0,0.0,0.0,0.0,0.0,0.0,0.0,0.0,0.0,0.0,0.0,0.0,0.0,0.0,0.0,0.0,0.0,0.0,0.0,0.0,0.0,0.0,0.0,0.0,0.0,0.0,0.0,-2.0238,-2.0203,-2.0178,-1.9576,-1.8402,0.0,0.0,0.0,0.0,0.0,0.0,0.0,0.0,0.0,0.0,0.0,0.0,0.0,0.0,0.0,0.0,0.0,0.0,0.0,0.0,0.0,0.0,0.0,0.0,0.0,0.0,0.0,0.0,0.0,0.0,0.0,0.0,0.0,0.0,0.0,0.0,0.0,0.0,0.0,0.0,0.0,0.0,0.0,0.0,0.0,0.0,0.0,0.0,0.0,0.0,0.0,0.0,0.0,0.0,0.0,0.0,0.0,0.0,0.0,0.0,0.0,0.0,0.0,0.0,0.0,0.0,0.0,0.0,0.0,0.0,0.0,0.0,0.0,0.0,0.0,0.0,0.0,0.0,0.0,0.0,0.0,0.0,0.0,0.0,0.0,0.0,0.0,0.0,0.0,0.0,0.0,0.0,0.0,0.0,0.0,0.0,0.0,0.0,0.0,0.0,0.0,0.0,0.0,0.0,0.0,0.0,0.0,0.0,0.0,0.0,0.0,0.0,-2.0456,-1.9969,-1.8945,0.0,0.0,0.0,0.0,0.0,0.0,0.0,0.0,0.0,0.0,0.0,0.0,0.0,0.0,0.0,0.0,0.0,0.0,0.0,0.0,0.0,0.0,0.0,0.0,0.0,0.0,0.0,0.0,0.0,0.0,0.0,0.0,0.0,0.0,0.0,0.0,0.0,0.0,0.0,0.0,0.0,0.0,0.0,0.0,0.0,0.0,0.0,0.0,0.0,0.0,0.0,0.0,0.0,0.0,0.0,0.0,0.0,0.0,0.0,0.0,0.0,0.0,0.0,0.0,0.0,0.0,0.0,0.0,0.0,0.0,0.0,0.0,0.0,0.0,0.0,0.0,0.0,0.0,0.0,0.0,0.0,0.0,0.0,0.0,0.0,0.0,0.0,0.0,0.0,0.0,0.0,0.0,0.0,0.0,0.0,0.0,0.0,0.0,0.0,0.0,0.0,0.0,0.0,0.0,0.0,0.0,0.0,0.0,0.0,0.0,-2.0432,-2.1264,-2.1223,0.0,-1.8867,0.0,0.0,0.0,0.0,0.0,0.0,0.0,0.0,0.0,0.0,0.0,0.0,0.0,0.0,0.0,0.0,0.0,0.0,0.0,0.0,0.0,0.0,0.0,0.0,0.0,0.0,0.0,0.0,0.0,0.0,0.0,0.0,0.0,0.0,0.0,0.0,0.0,0.0,0.0,0.0,0.0,0.0,0.0,0.0,0.0,0.0,0.0,0.0,0.0,0.0,0.0,0.0,0.0,0.0,0.0,0.0,0.0,0.0,0.0,0.0,0.0,0.0,0.0,0.0,0.0,0.0,0.0,0.0,0.0,0.0,0.0,0.0,0.0,0.0,0.0,0.0,0.0,0.0,0.0,0.0,0.0,0.0,0.0,0.0,0.0,0.0,0.0,0.0,0.0,0.0,0.0,0.0,0.0,0.0,0.0,0.0,0.0,0.0,0.0,0.0,0.0,0.0,0.0,0.0,0.0,0.0,0.0,0.0,0.0,0.0,0.0,-2.1449,-2.0928,-2.0022,0.0,0.0,0.0,0.0,0.0,0.0,0.0,0.0,0.0,0.0,0.0,0.0,0.0,0.0,0.0,0.0,0.0,0.0,0.0,0.0,0.0,0.0,0.0,0.0,0.0,0.0,0.0,0.0,0.0,0.0,0.0,0.0,0.0,0.0,0.0,0.0,0.0,0.0,0.0,0.0,0.0,0.0,0.0,0.0,0.0,0.0,0.0,0.0,0.0,0.0,0.0,0.0,0.0,0.0,0.0,0.0,0.0,0.0,0.0,0.0,0.0,0.0,0.0,0.0,0.0,0.0,0.0,0.0,0.0,0.0,0.0,0.0,0.0,0.0,0.0,0.0,0.0,0.0,0.0,0.0,0.0,0.0,0.0,0.0,0.0,0.0,0.0,0.0,0.0,0.0,0.0,0.0,0.0,0.0,0.0,0.0,0.0,0.0,0.0,0.0,0.0,0.0,0.0,0.0,0.0,0.0,0.0,0.0,0.0,0.0,-2.1051,0.0,-2.168,-2.112,-2.0088,-1.8612,0.0,0.0,0.0,0.0,0.0,0.0,0.0,0.0,0.0,0.0,0.0,0.0,0.0,0.0,0.0,0.0,0.0,0.0,0.0,0.0,0.0,0.0,0.0,0.0,0.0,0.0,0.0,0.0,0.0,0.0,0.0,0.0,0.0,0.0,0.0,0.0,0.0,0.0,0.0,0.0,0.0,0.0,0.0,0.0,0.0,0.0,0.0,0.0,0.0,0.0,0.0,0.0,0.0,0.0,0.0,0.0,0.0,0.0,0.0,0.0,0.0,0.0,0.0,0.0,0.0,0.0,0.0,0.0,0.0,0.0,0.0,0.0,0.0,0.0,0.0,0.0,0.0,0.0,0.0,0.0,0.0,0.0,0.0,0.0,0.0,0.0,0.0,0.0,0.0,0.0,0.0,0.0,0.0,0.0,0.0,0.0,0.0,0.0,0.0,0.0,0.0,0.0,0.0,0.0,0.0,0.0,0.0,0.0,0.0,-2.1506,-2.1485,-2.2243,-2.2218,-2.1039,0.0,0.0,0.0,0.0,0.0,0.0,0.0,0.0,0.0,0.0,0.0,0.0,0.0,0.0,0.0,0.0,0.0,0.0,0.0,0.0,0.0,0.0,0.0,0.0,0.0,0.0,0.0,0.0,0.0,0.0,0.0,0.0,0.0,0.0,0.0,0.0,0.0,0.0,0.0,0.0,0.0,0.0,0.0,0.0,0.0,0.0,0.0,0.0,0.0,0.0,0.0,0.0,0.0,0.0,0.0,0.0,0.0,0.0,0.0,0.0,0.0,0.0,0.0,0.0,0.0,0.0,0.0,0.0,0.0,0.0,0.0,0.0,0.0,0.0,0.0,0.0,0.0,0.0,0.0,0.0,0.0,0.0,0.0,0.0,0.0,0.0,0.0,0.0,0.0,0.0,0.0,0.0,0.0,0.0,0.0,0.0,0.0,0.0,0.0,0.0,0.0,0.0,0.0,0.0,0.0,0.0,0.0,0.0,0.0,-2.0709,-2.1017,-2.1771,-2.2936,-2.1091,-1.9768,0.0,0.0,0.0,0.0,0.0,0.0,0.0,0.0,0.0,0.0,0.0,0.0,0.0,0.0,0.0,0.0,0.0,0.0,0.0,0.0,0.0,0.0,0.0,0.0,0.0,0.0,0.0,0.0,0.0,0.0,0.0,0.0,0.0,0.0,0.0,0.0,0.0,0.0,0.0,0.0,0.0,0.0,0.0,0.0,0.0,0.0,0.0,0.0,0.0,0.0,0.0,0.0,0.0,0.0,0.0,0.0,0.0,0.0,0.0,0.0,0.0,0.0,0.0,0.0,0.0,0.0,0.0,0.0,0.0,0.0,0.0,0.0,0.0,0.0,0.0,0.0,0.0,0.0,0.0,0.0,0.0,0.0,0.0,0.0,0.0,0.0,0.0,0.0,0.0,0.0,0.0,0.0,0.0,0.0,0.0,0.0,0.0,0.0,0.0,0.0,0.0,0.0,0.0,0.0,0.0,0.0,0.0,0.0,0.0,-2.0605,0.0,-2.2312,0.0,-2.074,-1.9288,0.0,0.0,0.0,0.0,0.0,0.0,0.0,0.0,0.0,0.0,0.0,0.0,0.0,0.0,0.0,0.0,0.0,0.0,0.0,0.0,0.0,0.0,0.0,0.0,0.0,0.0,0.0,0.0,0.0,0.0,0.0,0.0,0.0,0.0,0.0,0.0,0.0,0.0,0.0,0.0,0.0,0.0,0.0,0.0,0.0,0.0,0.0,0.0,0.0,0.0,0.0,0.0,0.0,0.0,0.0,0.0,0.0,0.0,0.0,0.0,0.0,0.0,0.0,0.0,0.0,0.0,0.0,0.0,0.0,0.0,0.0,0.0,0.0,0.0,0.0,0.0,0.0,0.0,0.0,0.0,0.0,0.0,0.0,0.0,0.0,0.0,0.0,0.0,0.0,0.0,0.0,0.0,0.0,0.0,0.0,0.0,0.0,0.0,0.0,0.0,0.0,0.0,0.0,0.0,0.0,0.0,0.0,0.0,-2.0551,-2.2185,-2.2997,-2.3034,-2.2335,-2.1403,-1.981,0.0,0.0,0.0,0.0,0.0,0.0,0.0,0.0,0.0,0.0,0.0,0.0,0.0,0.0,0.0,0.0,0.0,0.0,0.0,0.0,0.0,0.0,0.0,0.0,0.0,0.0,0.0,0.0,0.0,0.0,0.0,0.0,0.0,0.0,0.0,0.0,0.0,0.0,0.0,0.0,0.0,0.0,0.0,0.0,0.0,0.0,0.0,0.0,0.0,0.0,0.0,0.0,0.0,0.0,0.0,0.0,0.0,0.0,0.0,0.0,0.0,0.0,0.0,0.0,0.0,0.0,0.0,0.0,0.0,0.0,0.0,0.0,0.0,0.0,0.0,0.0,0.0,0.0,0.0,0.0,0.0,0.0,0.0,0.0,0.0,0.0,0.0,0.0,0.0,0.0,0.0,0.0,0.0,0.0,0.0,0.0,0.0,0.0,0.0,0.0,0.0,0.0,0.0,0.0,0.0,0.0,0.0,0.0,0.0,-2.1422,-2.222,-2.2808,-2.2995,-2.1136,-1.9722,0.0,0.0,0.0,0.0,0.0,0.0,0.0,0.0,0.0,0.0,0.0,0.0,0.0,0.0,0.0,0.0,0.0,0.0,0.0,0.0,0.0,0.0,0.0,0.0,0.0,0.0,0.0,0.0,0.0,0.0,0.0,0.0,0.0,0.0,0.0,0.0,0.0,0.0,0.0,0.0,0.0,0.0,0.0,0.0,0.0,0.0,0.0,0.0,0.0,0.0,0.0,0.0,0.0,0.0,0.0,0.0,0.0,0.0,0.0,0.0,0.0,0.0,0.0,0.0,0.0,0.0,0.0,0.0,0.0,0.0,0.0,0.0,0.0,0.0,0.0,0.0,0.0,0.0,0.0,0.0,0.0,0.0,0.0,0.0,0.0,0.0,0.0,0.0,0.0,0.0,0.0,0.0,0.0,0.0,0.0,0.0,0.0,0.0,0.0,0.0,0.0,0.0,0.0,0.0,0.0,0.0,0.0,0.0,0.0,-2.1927,-2.2721,-2.3242,-2.3408,-2.129,-1.9988,-1.9604,0.0,0.0,0.0,0.0,0.0,0.0,0.0,0.0,0.0,0.0,0.0,0.0,0.0,0.0,0.0,0.0,0.0,0.0,0.0,0.0,0.0,0.0,0.0,0.0,0.0,0.0,0.0,0.0,0.0,0.0,0.0,0.0,0.0,0.0,0.0,0.0,0.0,0.0,0.0,0.0,0.0,0.0,0.0,0.0,0.0,0.0,0.0,0.0,0.0,0.0,0.0,0.0,0.0,0.0,0.0,0.0,0.0,0.0,0.0,0.0,0.0,0.0,0.0,0.0,0.0,0.0,0.0,0.0,0.0,0.0,0.0,0.0,0.0,0.0,0.0,0.0,0.0,0.0,0.0,0.0,0.0,0.0,0.0,0.0,0.0,0.0,0.0,0.0,0.0,0.0,0.0,0.0,0.0,0.0,0.0,0.0,0.0,0.0,0.0,0.0,0.0,0.0,0.0,0.0,0.0,0.0,0.0,0.0,-2.3388,-2.417,-2.4217,-2.3481,-2.1848,-2.0604,0.0,0.0,0.0,0.0,0.0,0.0,0.0,0.0,0.0,0.0,0.0,0.0,0.0,0.0,0.0,0.0,0.0,0.0,0.0,0.0,0.0,0.0,0.0,0.0,0.0,0.0,0.0,0.0,0.0,0.0,0.0,0.0,0.0,0.0,0.0,0.0,0.0,0.0,0.0,0.0,0.0,0.0,0.0,0.0,0.0,0.0,0.0,0.0,0.0,0.0,0.0,0.0,0.0,0.0,0.0,0.0,0.0,0.0,0.0,0.0,0.0,0.0,0.0,0.0,0.0,0.0,0.0,0.0,0.0,0.0,0.0,0.0,0.0,0.0,0.0,0.0,0.0,0.0,0.0,0.0,0.0,0.0,0.0,0.0,0.0,0.0,0.0,0.0,0.0,0.0,0.0,0.0,0.0,0.0,0.0,0.0,0.0,0.0,0.0,0.0,0.0,0.0,0.0,0.0,0.0,0.0,0.0,0.0,0.0,-2.3308,-2.4113,-2.4431,-2.4185,-2.2637,-2.1382,0.0,0.0,0.0,0.0,0.0,0.0,0.0,0.0,0.0,0.0,0.0,0.0,0.0,0.0,0.0,0.0,0.0,0.0,0.0,0.0,0.0,0.0,0.0,0.0,0.0,0.0,0.0,0.0,0.0,0.0,0.0,0.0,0.0,0.0,0.0,0.0,0.0,0.0,0.0,0.0,0.0,0.0,0.0,0.0,0.0,0.0,0.0,0.0,0.0,0.0,0.0,0.0,0.0,0.0,0.0,0.0,0.0,0.0,0.0,0.0,0.0,0.0,0.0,0.0,0.0,0.0,0.0,0.0,0.0,0.0,0.0,0.0,0.0,0.0,0.0,0.0,0.0,0.0,0.0,0.0,0.0,0.0,0.0,0.0,0.0,0.0,0.0,0.0,0.0,0.0,0.0,0.0,0.0,0.0,0.0,0.0,0.0,0.0,0.0,0.0,0.0,0.0,0.0,0.0,0.0,0.0,0.0,0.0,-2.2627,-2.3789,-2.4257,-2.4499,-2.4506,-2.3251,-2.2165,0.0,0.0,0.0,0.0,0.0,0.0,0.0,0.0,0.0,0.0,0.0,0.0,0.0,0.0,0.0,0.0,0.0,0.0,0.0,0.0,0.0,0.0,0.0,0.0,0.0,0.0,0.0,0.0,0.0,0.0,0.0,0.0,0.0,0.0,0.0,0.0,0.0,0.0,0.0,0.0,0.0,0.0,0.0,0.0,0.0,0.0,0.0,0.0,0.0,0.0,0.0,0.0,0.0,0.0,0.0,0.0,0.0,0.0,0.0,0.0,0.0,0.0,0.0,0.0,0.0,0.0,0.0,0.0,0.0,0.0,0.0,0.0,0.0,0.0,0.0,0.0,0.0,0.0,0.0,0.0,0.0,0.0,0.0,0.0,0.0,0.0,0.0,0.0,0.0,0.0,0.0,0.0,0.0,0.0,0.0,0.0,0.0,0.0,0.0,0.0,0.0,0.0,0.0,0.0,0.0,0.0,0.0,0.0,-2.2866,-2.4332,-2.4472,-2.4509,-2.4481,-2.3647,-2.2831,0.0,0.0,0.0,0.0,0.0,0.0,0.0,0.0,0.0,0.0,0.0,0.0,0.0,0.0,0.0,0.0,0.0,0.0,0.0,0.0,0.0,0.0,0.0,0.0,0.0,0.0,0.0,0.0,0.0,0.0,0.0,0.0,0.0,0.0,0.0,0.0,0.0,0.0,0.0,0.0,0.0,0.0,0.0,0.0,0.0,0.0,0.0,0.0,0.0,0.0,0.0,0.0,0.0,0.0,0.0,0.0,0.0,0.0,0.0,0.0,0.0,0.0,0.0,0.0,0.0,0.0,0.0,0.0,0.0,0.0,0.0,0.0,0.0,0.0,0.0,0.0,0.0,0.0,0.0,0.0,0.0,0.0,0.0,0.0,0.0,0.0,0.0,0.0,0.0,0.0,0.0,0.0,0.0,0.0,0.0,0.0,0.0,0.0,0.0,0.0,0.0,0.0,0.0,0.0,0.0,0.0,0.0,0.0,-2.311,-2.3462,-2.4156,-2.4509,-2.4509,-2.3647,-2.2822,0.0,0.0,0.0,0.0,0.0,0.0,0.0,0.0,0.0,0.0,0.0,0.0,0.0,0.0,0.0,0.0,0.0,0.0,0.0,0.0,0.0,0.0,0.0,0.0,0.0,0.0,0.0,0.0,0.0,0.0,0.0,0.0,0.0,0.0,0.0,0.0,0.0,0.0,0.0,0.0,0.0,0.0,0.0,0.0,0.0,0.0,0.0,0.0,-2.1082,0.0,0.0,0.0,0.0,0.0,0.0,0.0,0.0,0.0,0.0,0.0,0.0,0.0,0.0,0.0,0.0,0.0,0.0,0.0,0.0,0.0,0.0,0.0,0.0,0.0,0.0,0.0,0.0,0.0,0.0,0.0,0.0,0.0,0.0,0.0,0.0,0.0,0.0,0.0,0.0,0.0,0.0,0.0,0.0,0.0,0.0,0.0,0.0,0.0,0.0,0.0,0.0,0.0,0.0,0.0,0.0,0.0,0.0,0.0,-2.3406,-2.3796,-2.4259,-2.4437,-2.4312,-2.3869,-2.3084,0.0,0.0,0.0,0.0,0.0,0.0,0.0,0.0,0.0,0.0,0.0,0.0,0.0,0.0,0.0,0.0,0.0,0.0,0.0,0.0,0.0,0.0,0.0,0.0,0.0,0.0,0.0,0.0,0.0,0.0,0.0,0.0,0.0,0.0,0.0,0.0,0.0,0.0,0.0,0.0,0.0,0.0,0.0,0.0,0.0,0.0,0.0,0.0,0.0,0.0,0.0,0.0,0.0,0.0,0.0,0.0,0.0,0.0,0.0,0.0,0.0,0.0,0.0,0.0,0.0,0.0,0.0,0.0,0.0,0.0,0.0,0.0,0.0,0.0,0.0,0.0,0.0,0.0,0.0,0.0,0.0,0.0,0.0,0.0,0.0,0.0,0.0,0.0,0.0,0.0,0.0,0.0,0.0,0.0,0.0,0.0,0.0,0.0,0.0,0.0,0.0,0.0,0.0,0.0,0.0,0.0,0.0,-2.285,-2.3619,-2.4462,-2.4509,-2.4384,-2.4164,-2.4016,-2.3235,-2.1722,0.0,0.0,0.0,0.0,0.0,0.0,0.0,0.0,0.0,0.0,0.0,0.0,0.0,0.0,0.0,0.0,0.0,0.0,0.0,0.0,0.0,0.0,0.0,0.0,0.0,0.0,0.0,0.0,0.0,0.0,0.0,0.0,0.0,0.0,0.0,0.0,0.0,0.0,-2.0279,-2.1029,0.0,0.0,0.0,0.0,0.0,0.0,0.0,0.0,-2.4098,0.0,0.0,0.0,0.0,0.0,0.0,0.0,0.0,0.0,0.0,0.0,0.0,0.0,0.0,0.0,0.0,0.0,0.0,0.0,0.0,0.0,0.0,0.0,0.0,0.0,0.0,0.0,0.0,0.0,0.0,0.0,0.0,0.0,0.0,0.0,0.0,0.0,0.0,0.0,0.0,0.0,0.0,0.0,0.0,0.0,0.0,0.0,0.0,0.0,0.0,0.0,0.0,0.0,0.0,0.0,0.0,-2.2953,-2.3128,-2.3618,-2.4472,-2.4509,-2.4482,-2.4419,-2.362,-2.2667,-2.1544,0.0,0.0,0.0,0.0,0.0,0.0,0.0,0.0,0.0,0.0,0.0,0.0,0.0,0.0,0.0,0.0,0.0,0.0,0.0,0.0,0.0,0.0,0.0,0.0,0.0,0.0,0.0,0.0,0.0,0.0,0.0,0.0,0.0,0.0,0.0,0.0,0.0,0.0,0.0,-2.2486,-2.3365,0.0,0.0,0.0,0.0,0.0,0.0,0.0,0.0,-2.4487,0.0,0.0,0.0,0.0,0.0,0.0,0.0,0.0,0.0,0.0,0.0,0.0,0.0,0.0,0.0,0.0,0.0,0.0,0.0,0.0,0.0,0.0,0.0,0.0,0.0,0.0,0.0,0.0,0.0,0.0,0.0,0.0,0.0,0.0,0.0,0.0,0.0,0.0,0.0,0.0,0.0,0.0,0.0,0.0,0.0,0.0,0.0,0.0,0.0,0.0,0.0,0.0,0.0,0.0,0.0,-2.2469,-2.3424,-2.3994,-2.4284,-2.4284,-2.4201,-2.3969,-2.3096,-2.2178,0.0,0.0,0.0,0.0,0.0,0.0,0.0,0.0,0.0,0.0,0.0,0.0,0.0,0.0,0.0,0.0,0.0,0.0,0.0,0.0,0.0,0.0,0.0,0.0,0.0,0.0,0.0,0.0,0.0,0.0,0.0,0.0,0.0,0.0,0.0,0.0,0.0,0.0,0.0,0.0,-2.2826,-2.3619,-2.4397,0.0,0.0,0.0,0.0,0.0,0.0,-2.4212,-2.4509,0.0,0.0,0.0,0.0,0.0,0.0,0.0,0.0,0.0,0.0,0.0,0.0,0.0,0.0,0.0,0.0,0.0,0.0,0.0,0.0,0.0,0.0,0.0,0.0,0.0,0.0,0.0,0.0,0.0,0.0,0.0,0.0,0.0,0.0,0.0,0.0,0.0,0.0,0.0,0.0,0.0,0.0,0.0,0.0,0.0,0.0,0.0,0.0,0.0,0.0,0.0,0.0,0.0,0.0,0.0,-2.1504,-2.3269,-2.4071,-2.3859,-2.3986,-2.3807,-2.3325,-2.2507,-2.1526,0.0,0.0,0.0,0.0,0.0,0.0,0.0,0.0,0.0,0.0,0.0,0.0,0.0,0.0,0.0,0.0,0.0,0.0,0.0,0.0,0.0,0.0,0.0,0.0,0.0,0.0,0.0,0.0,0.0,0.0,0.0,0.0,0.0,0.0,0.0,0.0,0.0,0.0,0.0,0.0,0.0,-2.3781,-2.4406,-2.4509,0.0,0.0,0.0,0.0,-2.4509,-2.4509,0.0,0.0,0.0,0.0,0.0,0.0,0.0,0.0,0.0,0.0,0.0,0.0,0.0,0.0,0.0,0.0,0.0,0.0,0.0,0.0,0.0,0.0,0.0,0.0,0.0,0.0,0.0,0.0,0.0,0.0,0.0,0.0,0.0,0.0,0.0,0.0,0.0,0.0,0.0,0.0,0.0,0.0,0.0,0.0,0.0,0.0,0.0,0.0,0.0,0.0,0.0,0.0,0.0,0.0,0.0,0.0,-1.9901,-2.2,-2.3061,-2.3061,-2.3556,-2.3473,-2.2709,-2.1761,-2.0549,0.0,0.0,0.0,0.0,0.0,0.0,0.0,0.0,0.0,0.0,0.0,0.0,0.0,0.0,0.0,0.0,0.0,0.0,0.0,0.0,0.0,0.0,0.0,0.0,0.0,0.0,0.0,0.0,0.0,0.0,0.0,0.0,0.0,0.0,0.0,0.0,0.0,0.0,0.0,0.0,0.0,-2.4379,-2.449,-2.4509,-2.4509,0.0,0.0,-2.4509,-2.4509,-2.4509,0.0,0.0,0.0,0.0,0.0,0.0,0.0,0.0,0.0,0.0,0.0,0.0,0.0,0.0,0.0,0.0,0.0,0.0,0.0,0.0,0.0,0.0,0.0,0.0,0.0,0.0,0.0,0.0,0.0,0.0,0.0,0.0,0.0,0.0,0.0,0.0,0.0,0.0,0.0,0.0,0.0,0.0,0.0,0.0,0.0,0.0,0.0,0.0,0.0,0.0,0.0,0.0,0.0,0.0,0.0,-1.8702,-1.9518,-2.1294,-2.2154,-2.2053,-2.2188,-2.2055,-2.1579,-2.0745,-1.9772,0.0,0.0,0.0,0.0,0.0,0.0,0.0,0.0,0.0,0.0,0.0,0.0,0.0,0.0,0.0,0.0,0.0,0.0,0.0,0.0,0.0,0.0,0.0,0.0,0.0,0.0,0.0,0.0,0.0,0.0,0.0,0.0,0.0,0.0,0.0,0.0,0.0,0.0,0.0,0.0,0.0,0.0,-2.4482,-2.4384,0.0,0.0,0.0,-2.4509,-2.4509,0.0,0.0,0.0,0.0,0.0,0.0,0.0,0.0,0.0,0.0,0.0,0.0,0.0,0.0,0.0,0.0,0.0,0.0,0.0,0.0,0.0,0.0,0.0,0.0,0.0,0.0,0.0,0.0,0.0,0.0,0.0,0.0,0.0,0.0,0.0,0.0,0.0,0.0,0.0,0.0,0.0,0.0,0.0,0.0,0.0,0.0,0.0,0.0,0.0,0.0,0.0,0.0,0.0,0.0,0.0,0.0,0.0,-1.8792,-2.0659,-2.1461,-2.1114,-2.1045,-2.0856,-2.0525,-1.9977,0.0,0.0,0.0,0.0,0.0,0.0,0.0,0.0,0.0,0.0,0.0,0.0,0.0,0.0,0.0,0.0,0.0,0.0,0.0,0.0,0.0,0.0,0.0,0.0,0.0,0.0,0.0,-1.4202,0.0,0.0,0.0,0.0,0.0,0.0,0.0,0.0,0.0,0.0,0.0,0.0,0.0,0.0,-2.4173,-2.4375,-2.4284,-2.4257,0.0,0.0,-2.4509,-2.4509,-2.4473,-2.4384,0.0,0.0,0.0,0.0,0.0,0.0,0.0,0.0,0.0,0.0,0.0,0.0,0.0,0.0,0.0,0.0,0.0,0.0,0.0,0.0,0.0,0.0,0.0,0.0,0.0,0.0,0.0,0.0,0.0,0.0,0.0,0.0,0.0,0.0,0.0,0.0,0.0,0.0,0.0,0.0,0.0,0.0,0.0,0.0,0.0,0.0,0.0,0.0,0.0,0.0,0.0,0.0,0.0,0.0,0.0,-1.719,-1.9934,-2.1042,-2.0327,-2.064,-2.0492,-1.9802,-1.9714,-1.8652,0.0,0.0,0.0,0.0,0.0,0.0,0.0,0.0,0.0,0.0,0.0,0.0,0.0,0.0,0.0,0.0,0.0,0.0,0.0,0.0,0.0,0.0,0.0,0.0,0.0,0.0,0.0,0.0,0.0,0.0,0.0,0.0,0.0,0.0,0.0,0.0,0.0,0.0,0.0,0.0,0.0,-2.4098,-2.4126,-2.433,-2.4473,0.0,0.0,-2.4509,-2.4509,-2.4447,-2.4339,-2.4117,0.0,0.0,0.0,0.0,0.0,0.0,0.0,0.0,0.0,0.0,0.0,0.0,0.0,0.0,0.0,0.0,0.0,0.0,0.0,0.0,0.0,0.0,0.0,0.0,0.0,0.0,0.0,0.0,0.0,0.0,0.0,0.0,0.0,0.0,0.0,0.0,0.0,0.0,0.0,0.0,0.0,0.0,0.0,0.0,0.0,0.0,0.0,0.0,0.0,0.0,0.0,0.0,0.0,-1.7238,-1.6814,-1.9348,-2.0219,-1.9398,-1.9858,-1.9759,-1.8968,-1.896,-1.8091,0.0,0.0,0.0,0.0,0.0,0.0,0.0,0.0,0.0,0.0,0.0,0.0,0.0,0.0,0.0,0.0,0.0,0.0,0.0,0.0,0.0,0.0,0.0,0.0,0.0,0.0,0.0,0.0,-1.6405,-1.6852,-1.7932,0.0,0.0,0.0,0.0,0.0,0.0,0.0,0.0,0.0,0.0,-2.3774,-2.389,-2.3898,0.0,0.0,-2.4067,-2.4058,-2.4067,-2.4153,-2.4094,-2.3732,-2.3846,0.0,0.0,0.0,0.0,0.0,0.0,0.0,0.0,0.0,0.0,0.0,0.0,0.0,0.0,0.0,0.0,0.0,0.0,0.0,0.0,0.0,0.0,0.0,0.0,0.0,0.0,0.0,0.0,0.0,0.0,0.0,0.0,0.0,0.0,0.0,0.0,0.0,0.0,0.0,0.0,0.0,0.0,0.0,0.0,0.0,0.0,0.0,0.0,0.0,0.0,0.0,0.0,-1.6887,-1.6989,-1.9038,-1.9784,-1.9154,-1.951,-1.9433,-1.889,-1.8626,-1.7889,0.0,0.0,0.0,0.0,0.0,0.0,0.0,0.0,0.0,0.0,0.0,0.0,0.0,0.0,0.0,0.0,0.0,0.0,0.0,0.0,0.0,0.0,0.0,0.0,0.0,0.0,0.0,0.0,-1.7519,-1.787,-1.8442,0.0,0.0,0.0,0.0,0.0,0.0,0.0,0.0,0.0,0.0,-2.3551,-2.3687,-2.3642,-2.3653,-2.3794,-2.3804,-2.3804,-2.3804,-2.4066,-2.4094,-2.3487,0.0,0.0,0.0,0.0,0.0,0.0,0.0,0.0,0.0,0.0,0.0,0.0,0.0,0.0,0.0,0.0,0.0,0.0,0.0,0.0,0.0,0.0,0.0,0.0,0.0,0.0,0.0,0.0,0.0,0.0,-1.3303,0.0,0.0,0.0,0.0,0.0,0.0,0.0,0.0,0.0,0.0,0.0,0.0,0.0,0.0,0.0,0.0,0.0,0.0,0.0,0.0,0.0,0.0,0.0,-1.7609,-1.9154,-1.9912,-1.9857,-1.9766,-1.9696,-1.9608,-1.8906,-1.8116,-1.7281,0.0,0.0,0.0,0.0,0.0,0.0,0.0,0.0,0.0,0.0,0.0,0.0,0.0,0.0,0.0,0.0,0.0,0.0,0.0,0.0,0.0,0.0,0.0,0.0,0.0,0.0,-1.7141,-1.8001,-1.845,0.0,0.0,0.0,0.0,0.0,0.0,0.0,0.0,0.0,0.0,-2.2866,-2.3492,-2.3513,-2.3664,-2.38,-2.3828,-2.383,-2.3821,-2.3838,-2.4365,-2.4472,0.0,0.0,0.0,0.0,0.0,0.0,0.0,0.0,0.0,0.0,0.0,0.0,0.0,0.0,0.0,0.0,0.0,0.0,0.0,0.0,0.0,0.0,0.0,0.0,0.0,0.0,0.0,-1.5675,-1.4859,0.0,0.0,0.0,0.0,0.0,0.0,0.0,0.0,0.0,0.0,0.0,-2.0743,-2.0795,0.0,0.0,0.0,0.0,0.0,0.0,0.0,0.0,0.0,0.0,0.0,0.0,-1.7148,-1.8342,-1.9901,-2.0402,-1.9792,-2.0206,-1.9944,-1.8951,-1.8635,-1.8125,-1.7325,0.0,0.0,0.0,0.0,0.0,0.0,0.0,0.0,0.0,0.0,0.0,0.0,0.0,0.0,0.0,0.0,0.0,0.0,0.0,0.0,0.0,0.0,0.0,0.0,0.0,-1.6729,0.0,0.0,0.0,0.0,0.0,0.0,0.0,0.0,0.0,0.0,0.0,-2.2183,-2.266,-2.3025,-2.3396,-2.3915,-2.4017,-2.4214,0.0,0.0,0.0,0.0,0.0,0.0,0.0,0.0,0.0,0.0,0.0,0.0,0.0,0.0,-2.2914,-2.2414,-2.2113,-2.1923,-2.1932,0.0,0.0,0.0,0.0,0.0,0.0,0.0,0.0,0.0,0.0,0.0,0.0,0.0,0.0,-1.7136,0.0,-1.6382,0.0,0.0,0.0,0.0,0.0,0.0,0.0,0.0,-2.1317,-2.232,-2.2399,-2.239,-2.2018,0.0,-2.1112,-1.9533,0.0,0.0,0.0,0.0,0.0,0.0,0.0,0.0,-1.7524,-1.9021,-2.0333,-2.0838,-2.0515,-2.0699,-2.0332,-1.932,-1.8776,-1.8134,-1.7307,-1.6326,-1.5634,0.0,0.0,0.0,0.0,0.0,0.0,0.0,0.0,0.0,0.0,0.0,0.0,0.0,0.0,0.0,0.0,0.0,0.0,0.0,0.0,0.0,0.0,0.0,-1.7701,0.0,0.0,0.0,0.0,0.0,0.0,0.0,0.0,0.0,-2.2373,-2.2631,-2.3058,-2.3783,-2.388,-2.4025,-2.4478,0.0,0.0,0.0,0.0,0.0,0.0,0.0,-2.4998,-2.5091,-2.4974,-2.4884,-2.4982,-2.5005,-2.5005,-2.5005,0.0,0.0,-2.3233,-2.2879,-2.2712,-2.2712,-2.2897,-2.3095,-2.3086,-2.3324,-2.3414,0.0,0.0,0.0,0.0,0.0,0.0,0.0,0.0,-1.8443,-1.8426,0.0,-1.7479,0.0,0.0,0.0,0.0,0.0,0.0,0.0,0.0,-2.2551,-2.3671,-2.3685,-2.3797,-2.344,-2.272,-2.3445,-2.2169,-1.9076,-1.8687,0.0,0.0,0.0,0.0,0.0,0.0,-1.8097,-1.9689,-2.0446,-2.1193,-2.1911,-2.12,-2.0752,-2.064,-1.9249,-1.8151,-1.7396,-1.729,-1.6939,-1.6238,-1.5202,0.0,0.0,0.0,0.0,0.0,0.0,0.0,0.0,0.0,0.0,0.0,0.0,0.0,0.0,0.0,0.0,0.0,0.0,0.0,0.0,-1.7539,0.0,0.0,0.0,0.0,0.0,0.0,0.0,0.0,0.0,0.0,-2.3252,-2.3857,-2.4554,-2.5184,0.0,0.0,0.0,0.0,-2.524,-2.5301,-2.5284,-2.5284,-2.531,-2.5785,-2.594,-2.5305,0.0,0.0,-2.5204,-2.5092,-2.5126,-2.5083,-2.5083,-2.4807,-2.4026,-2.3336,-2.2836,-2.2789,-2.3358,-2.3802,-2.3845,-2.431,-2.4646,-2.071,0.0,0.0,0.0,0.0,-2.0049,-2.0449,-2.0942,-2.0987,-2.0651,-2.0085,-1.9902,0.0,0.0,0.0,0.0,0.0,0.0,-2.1553,-2.1563,-2.2919,-2.3614,-2.3709,-2.3733,-2.368,-2.3545,-2.3772,-2.3396,-2.2438,-2.1735,-1.9811,-1.6742,0.0,0.0,0.0,0.0,-1.8352,-2.0367,-2.0701,-2.1191,-2.199,-2.1208,-2.026,-1.9206,-1.8751,-1.8388,-1.816,-1.7512,-1.7071,-1.6846,-1.5819,0.0,0.0,0.0,0.0,0.0,0.0,0.0,0.0,0.0,0.0,0.0,0.0,0.0,0.0,0.0,0.0,0.0,0.0,0.0,-1.7684,-1.8689,-1.9048,0.0,0.0,0.0,0.0,0.0,0.0,0.0,0.0,0.0,-2.5237,-2.5161,-2.5088,0.0,0.0,-2.5404,-2.5921,-2.5941,-2.6093,-2.6627,0.0,0.0,0.0,-2.6379,-2.626,-2.6614,-2.684,-2.6876,-2.6669,-2.6635,-2.6644,-2.6626,-2.6154,-2.5697,-2.5473,-2.4859,-2.4171,-2.3705,-2.4109,-2.4445,-2.3991,-2.4431,-2.4781,-2.2469,-2.1821,-2.1159,-2.0863,-2.091,-2.1253,-2.168,-2.2122,-2.2154,-2.2065,-2.1848,-2.1615,-2.0653,-1.9179,-1.8889,0.0,0.0,0.0,-2.2209,-2.2191,-2.3088,-2.3535,-2.3609,-2.3558,-2.3591,-2.366,-2.3613,-2.3436,-2.3133,-2.2669,-2.0959,-1.81,0.0,0.0,-1.8669,-1.8396,-1.9238,-2.1164,-2.1279,-2.1656,-2.24,-2.1375,-2.0067,-1.8574,-1.8495,-1.8495,-1.8495,-1.795,-1.7658,-1.7633,-1.6689,-1.5897,0.0,0.0,0.0,0.0,0.0,0.0,0.0,0.0,0.0,0.0,0.0,-1.4517,0.0,0.0,0.0,0.0,-1.6026,-1.7499,-1.9143,-1.9689,0.0,0.0,0.0,0.0,0.0,0.0,0.0,-2.3358,-2.4219,-2.5141,-2.6109,-2.6176,-2.6136,-2.6136,-2.6101,-2.6222,-2.664,0.0,-2.6793,-2.7237,-2.7315,-2.7315,-2.7315,-2.6894,-2.6756,-2.7204,-2.7315,-2.7315,-2.7315,-2.7315,-2.7315,-2.7247,-2.6902,-2.6583,-2.6575,-2.6204,-2.5569,-2.4531,-2.489,-2.5238,-2.4784,-2.5321,-2.5592,-2.3623,-2.3378,-2.1843,-2.1215,-2.1278,-2.2057,-2.2394,-2.2403,-2.2405,-2.2832,-2.3445,-2.2747,-2.2315,-2.21,-2.1238,0.0,0.0,-2.1841,-2.226,-2.2391,-2.3115,-2.3462,-2.3462,-2.3345,-2.328,-2.3289,-2.3177,-2.2759,-2.2133,-2.2229,-2.1837,-2.0991,-2.037,-2.0317,-2.0739,-2.0117,-2.0512,-2.1964,-2.1999,-2.2294,-2.287,-2.1522,-2.0058,-1.8547,-1.8495,-1.8494,-1.8466,-1.8455,-1.8465,-1.8439,-1.762,-1.7064,-1.6848,0.0,0.0,0.0,0.0,0.0,0.0,0.0,0.0,0.0,0.0,0.0,0.0,0.0,0.0,0.0,-1.759,0.0,-2.0359,-2.0532,0.0,0.0,0.0,-2.1946,-2.1955,-2.2933,-2.3796,-2.4214,0.0,0.0,0.0,0.0,-2.7385,-2.7353,-2.736,-2.7378,-2.7322,-2.7289,-2.7315,-2.729,-2.7315,-2.7315,-2.7315,-2.7256,-2.7239,-2.7306,-2.7315,-2.7315,-2.7315,-2.7315,-2.7315,-2.7315,-2.7315,-2.7297,-2.7306,-2.7213,-2.6851,-2.5462,-2.5738,-2.6171,-2.6033,-2.6521,-2.6732,-2.362,-2.3472,-2.3177,-2.3012,-2.2919,-2.3131,-2.322,-2.3213,-2.3334,-2.3476,-2.3638,-2.3509,-2.3114,-2.2539,-2.2219,-2.2045,-2.1996,-2.2689,-2.2973,-2.292,-2.3117,-2.3193,-2.3184,-2.3168,-2.3147,-2.3147,-2.3119,-2.3002,-2.2847,-2.2866,-2.2772,-2.2531,-2.1831,-2.1273,-2.0807,-2.0611,-2.1015,-2.1981,-2.2008,-2.1779,-2.1358,-2.098,-2.0067,-1.8547,-1.8495,-1.8426,-1.8287,-1.8171,-1.815,-1.8248,-1.7711,-1.726,-1.6913,-1.5762,0.0,0.0,0.0,0.0,0.0,0.0,0.0,0.0,0.0,-1.6666,-1.5741,0.0,-1.7633,0.0,-1.8571,-1.9438,-2.0463,-2.0857,0.0,0.0,-2.2335,-2.3177,-2.3177,-2.4089,-2.4988,-2.5626,-2.5902,-2.6287,-2.6944,-2.721,-2.7218,-2.6941,-2.7112,-2.7346,-2.7369,-2.7346,-2.7315,-2.7299,-2.7283,-2.7315,-2.7315,-2.7315,-2.7315,-2.7315,-2.7315,-2.7315,-2.7315,-2.7315,-2.7315,-2.7315,-2.7315,-2.7315,-2.7315,-2.7315,-2.7195,-2.6842,-2.6894,-2.6816,-2.6249,-2.6626,-2.6895,-2.3703,-2.3647,-2.3714,-2.3694,-2.3647,-2.3629,-2.3629,-2.3629,-2.3714,-2.3738,-2.3748,-2.3774,-2.3569,-2.3187,-2.3084,-2.2957,-2.287,-2.3156,-2.322,-2.3098,-2.3098,-2.3098,-2.3098,-2.3098,-2.3098,-2.3098,-2.3098,-2.3098,-2.3098,-2.3098,-2.3098,-2.3098,-2.2689,-2.2268,-2.182,-2.1507,-2.1718,-2.247,-2.2487,-2.2045,-2.1185,-2.0927,-2.0151,-1.8831,-1.8582,-1.8375,-1.8138,-1.8095,-1.8095,-1.8089,-1.7853,-1.7586,-1.7267,-1.6378,-1.5673,0.0,0.0,0.0,0.0,0.0,0.0,0.0,0.0,0.0,0.0,0.0,-1.8606,0.0,-1.9584,0.0,-2.1092,-2.161,-2.1987,-2.223,-2.3269,-2.4034,-2.4213,-2.485,-2.5498,-2.6079,-2.6127,-2.6341,-2.6939,-2.6892,-2.6691,-2.6462,-2.6615,-2.6775,-2.6816,-2.68,-2.6775,-2.6767,-2.6916,-2.7105,-2.725,-2.7315,-2.7315,-2.7315,-2.7315,-2.7315,-2.7315,-2.7315,-2.7315,-2.7315,-2.7315,-2.7315,-2.7315,-2.7315,-2.7315,-2.7299,-2.725,-2.7069,-2.6738,-2.6868,-2.691,-2.3804,-2.3804,-2.3804,-2.3804,-2.3804,-2.3804,-2.3804,-2.3804,-2.3804,-2.3804,-2.3804,-2.3804,-2.3804,-2.3804,-2.3716,-2.3652,-2.3519,-2.338,-2.3241,-2.3123,-2.3098,-2.3098,-2.3098,-2.3098,-2.3098,-2.3098,-2.3098,-2.3098,-2.3098,-2.3098,-2.3098,-2.3098,-2.3098,-2.3098,-2.3072,-2.2461,-2.2452,-2.3089,-2.3098,-2.2627,-2.1617,-2.1089,-2.0264,-1.9173,-1.8725,-1.8345,-1.8024,-1.81,-1.8119,-1.7964,-1.7948,-1.7864,-1.771,-1.6983,-1.6563,0.0,-1.6453,0.0,0.0,0.0,0.0,0.0,0.0,0.0,0.0,-1.926,-1.9709,-2.055,-2.0673,-2.1065,-2.2001,-2.2561,-2.3054,-2.3494,-2.4154,-2.4686,-2.5058,-2.5458,-2.5846,-2.614,-2.6177,-2.6298,-2.6556,-2.6298,-2.6087,-2.6026,-2.6034,-2.6078,-2.606,-2.6167,-2.6271,-2.6183,-2.6505,-2.6982,-2.7234,-2.7315,-2.7315,-2.7315,-2.7315,-2.7315,-2.7315,-2.7315,-2.7315,-2.7315,-2.7315,-2.7315,-2.7315,-2.7315,-2.7315,-2.7315,-2.7201,-2.7126,-2.7174,-2.7079,-2.7008,-2.3804,-2.3804,-2.3804,-2.3804,-2.3804,-2.3804,-2.3804,-2.3804,-2.3804,-2.3804,-2.3804,-2.3804,-2.3804,-2.3803,-2.3725,-2.3678,-2.3654,-2.3418,-2.3289,-2.3253,-2.3156,-2.3098,-2.3098,-2.3098,-2.3098,-2.3098,-2.3098,-2.3098,-2.3098,-2.3098,-2.3098,-2.3098,-2.3098,-2.3098,-2.3089,0.0,0.0,0.0,-2.3098,-2.2606,-2.163,-2.1089,-2.0317,-1.93,-1.8758,0.0,-1.8027,-1.8035,-1.7944,-1.7763,-1.7649,0.0,0.0,0.0,0.0,0.0,0.0,0.0,0.0,0.0,0.0,0.0,-1.9699,-1.9561,-1.9485,-2.08,-2.1551,-2.1338,-2.1888,-2.2489,-2.3063,-2.3213,-2.3566,-2.4233,-2.4935,-2.5409,-2.5513,-2.6346,-2.6882,-2.6613,-2.6598,-2.6479,-2.6245,-2.6139,-2.5962,-2.5662,-2.5606,-2.5606,-2.5633,-2.6157,-2.6547,-2.6624,-2.6875,-2.7178,-2.7299,-2.7315,-2.7315,-2.7315,-2.7315,-2.7315,-2.7315,-2.7315,-2.7315,-2.7315,-2.7315,-2.7315,-2.7315,-2.7315,-2.7315,-2.7315,-2.7192,-2.7103,-2.7119,-2.7024,-2.6926,-2.3804,0.0,-2.3804,-2.3804,0.0,-2.3804,-2.3804,-2.3804,-2.3804,-2.3804,-2.3804,-2.3804,-2.3804,-2.3804,-2.3761,-2.3745,-2.368,-2.3496,-2.3413,-2.3383,-2.3193,-2.3135,-2.3205,-2.3135,-2.3098,-2.3098,-2.3098,-2.3098,-2.3098,-2.3098,-2.3098,-2.3098,-2.3098,-2.3098,-2.3098,-2.3098,-2.3098,-2.3098,-2.3098,-2.2798,-2.2222,-2.1657,-2.0862,-1.9783,0.0,0.0,0.0,0.0,0.0,0.0,0.0,0.0,0.0,0.0,0.0,-1.7938,-1.7988,-1.8294,-1.901,-1.9804,-2.0373,-2.0564,-2.0684,-2.059,-2.0172,-2.1172,-2.1628,-2.1222,-2.1683,-2.2049,-2.2133,-2.2878,-2.3561,-2.3999,-2.4929,-2.5611,-2.5866,-2.6345,-2.6607,-2.6428,-2.6236,-2.6016,-2.5844,-2.5658,-2.5481,-2.5299,-2.5397,-2.5511,-2.5521,-2.5835,-2.621,-2.6615,-2.6842,-2.7072,-2.7267,-2.7315,-2.7315,-2.7315,-2.7315,-2.7315,-2.7315,-2.7315,-2.7315,-2.7315,-2.7315,-2.7315,-2.7315,-2.7315,-2.7274,-2.7217,-2.712,-2.7039,-2.7015,-2.6933,-2.6884,-2.3804,-2.3804,-2.3804,-2.3804,-2.3804,-2.3804,-2.3804,-2.3804,0.0,0.0,0.0,-2.3804,-2.3804,-2.3804,-2.3804,-2.3771,-2.3703,-2.3598,-2.353,-2.3528,-2.3265,-2.3193,-2.328,-2.316,-2.3098,-2.3098,-2.3098,-2.3098,-2.3098,-2.3098,-2.3098,-2.3098,-2.3098,-2.3098,-2.3098,-2.3098,-2.3098,-2.3098,-2.3098,-2.2999,-2.2799,-2.2277,-2.1502,-2.0466,-2.0085,-1.9345,-1.8197,-1.8302,-1.8237,-1.79,-1.7876,-1.7876,-1.7868,-1.7868,-1.817,-1.8853,-1.9484,-1.9887,-2.0063,-2.1348,-2.1773,-2.0897,-2.1174,-2.1214,-2.0835,-2.1103,-2.1175,-2.0827,-2.1167,-2.1374,-2.1284,-2.2575,-2.3612,-2.3926,-2.495,-2.5754,-2.6052,-2.6087,-2.6113,-2.597,-2.5726,-2.5492,-2.5424,-2.5196,-2.5025,-2.5127,-2.5349,-2.558,-2.5672,-2.5791,-2.6087,-2.6708,-2.69,-2.6949,-2.7202,-2.7315,-2.7315,-2.7315,-2.7315,-2.7315,-2.7315,-2.7315,-2.7315,-2.7315,-2.7315,-2.7315,-2.7315,-2.7315,-2.725,-2.7127,-2.7047,-2.6975,-2.6917,-2.6876,-2.6859,-2.3804,-2.3804,-2.3804,-2.3804,-2.3804,-2.3804,-2.3804,-2.3804,-2.3804,-2.3804,-2.3804,-2.3804,-2.3804,-2.3804,-2.3804,-2.3804,-2.3774,-2.3703,-2.3667,0.0,-2.3386,-2.3286,-2.328,-2.3168,-2.3098,-2.3098,-2.3098,-2.3098,-2.3098,-2.3098,-2.3098,-2.3098,-2.3098,-2.3098,-2.3098,-2.3098,-2.3098,-2.3098,-2.3098,-2.2999,-2.2786,-2.2277,-2.182,-2.1411,-2.0908,-2.0398,-1.9872,-1.9863,-1.9718,-1.9334,-1.9308,-1.9287,-1.9308,-1.9283,-1.9623,-2.0321,-2.0652,-2.1074,-2.1684,-2.215,-2.2076,-2.1475,-2.1612,-2.1463,-2.0876,-2.1111,-2.1167,-2.0876,-2.1372,-2.2127,-2.2987,-2.3513,-2.4288,-2.5419,-2.5849,-2.6034,-2.606,-2.606,-2.5943,-2.5623,-2.554,-2.5368,-2.5169,-2.5048,-2.5138,-2.5376,-2.5559,-2.5754,-2.6341,-2.6539,-2.6733,-2.7088,-2.7218,-2.7234,-2.7299,-2.7315,-2.7315,-2.7315,-2.7315,-2.7315,-2.7315,-2.7315,-2.7315,-2.7315,-2.7315,-2.7315,-2.7315,-2.7315,-2.7241,-2.7127,-2.7048,-2.6992,-2.6909,-2.6826,-2.6733,-2.4194,-2.3822,-2.3804,-2.3804,-2.3804,-2.3804,-2.3804,-2.3804,-2.3804,-2.3804,-2.3804,-2.3804,-2.3804,-2.3804,-2.3804,-2.3804,-2.3804,-2.3736,-2.3714,-2.3738,-2.3513,-2.3404,-2.3413,-2.3268,-2.3172,-2.3111,-2.3098,-2.3098,-2.3098,-2.3098,-2.3098,-2.3098,-2.3098,-2.3098,-2.3098,-2.3098,-2.3098,-2.3098,-2.3098,-2.3057,-2.2965,-2.272,-2.2334,-2.1822,-2.1575,-2.1054,-2.0229,-2.02,-2.0022,-1.9619,-1.9593,-1.9593,-1.9601,-1.9734,-2.0085,-2.0663,-2.1027,-2.1483,-2.2051,-2.2348,-2.2274,-2.1764,-2.1774,-2.1509,-2.0868,-2.1103,-2.1151,-2.0859,-2.1553,-2.2199,-2.2643,-2.3544,-2.4381,-2.4851,-2.5247,-2.5481,-2.5489,-2.5505,-2.5414,-2.5266,-2.5238,-2.523,-2.5277,-2.5277,-2.5414,-2.5762,-2.598,-2.6376,-2.6933,-2.7031,-2.7088,-2.7266,-2.7315,-2.7315,-2.7315,-2.7315,-2.7315,-2.7315,-2.7315,-2.7315,-2.7315,-2.7315,-2.7315,-2.7315,-2.7315,-2.7315,-2.7315,-2.7315,-2.7234,-2.708,-2.704,-2.6958,-2.6825,-2.6742,-2.6725,-2.4385,-2.3804,-2.3804,-2.3804,-2.3804,-2.3804,-2.3804,-2.3804,-2.3804,-2.3804,-2.3804,-2.3804,-2.3804,-2.3804,-2.3804,-2.3804,-2.3785,-2.3739,-2.3739,-2.3783,-2.3625,-2.3542,-2.3519,-2.338,-2.3253,-2.3156,-2.3111,-2.3098,-2.3098,-2.3098,-2.3098,-2.3098,-2.3098,-2.3098,-2.3098,-2.3098,-2.3098,-2.3098,-2.3098,-2.3098,-2.3098,-2.3098,-2.2818,-2.2294,-2.2253,-2.178,-2.0855,-2.0787,-2.0611,-2.0271,-2.0252,-2.0252,-2.0266,-2.0434,-2.0734,-2.1094,-2.1482,-2.1883,-2.2247,-2.2499,-2.2453,-2.2013,-2.192,-2.1653,-2.1143,-2.1262,-2.1246,-2.0973,-2.1478,-2.1959,-2.2315,-2.3243,-2.4071,-2.4143,-2.4634,-2.5021,-2.5005,-2.5048,-2.5107,-2.5099,-2.5196,-2.5384,-2.5559,-2.5625,-2.5791,-2.6192,-2.6581,-2.6949,-2.7234,-2.7315,-2.7315,-2.7315,-2.7315,-2.7315,-2.7315,-2.7315,-2.7315,-2.7315,-2.7315,-2.7315,-2.7315,-2.7315,-2.7315,-2.7315,-2.7315,-2.7315,-2.7315,-2.7315,-2.7243,-2.708,-2.7031,-2.6974,-2.6825,-2.6716,-2.67,-2.3886,-2.3804,-2.3813,-2.3804,-2.3804,-2.3804,-2.3804,-2.3804,-2.3804,-2.3804,-2.3804,-2.3804,-2.3804,-2.3804,-2.3804,-2.3804,-2.3804,-2.3794,-2.3803,-2.3785,-2.3723,-2.3678,-2.3656,-2.343,-2.3289,-2.3265,-2.3168,-2.3119,-2.3098,-2.3098,-2.3098,-2.3098,-2.3098,-2.3098,-2.3098,-2.3098,-2.3098,-2.3098,-2.3098,-2.3098,-2.3098,-2.3098,-2.3063,-2.3002,-2.2984,-2.2868,-2.2475,-2.2552,-2.2448,-2.2252,-2.2169,-2.2194,-2.2199,-2.223,-2.2269,-2.2293,-2.2534,-2.2721,-2.2812,-2.2795,-2.2598,-2.222,-2.2141,-2.201,-2.1706,-2.1706,-2.1479,-2.1054,-2.0931,-2.1566,-2.2606,-2.3024,-2.3687,-2.4789,-2.4965,-2.5005,-2.5056,-2.5269,-2.5473,-2.5446,-2.5678,-2.6006,-2.6016,-2.6078,-2.6236,-2.6607,-2.6933,-2.7194,-2.7274,-2.7315,-2.7315,-2.7315,-2.7315,-2.7315,-2.7315,-2.7315,-2.7315,-2.7315,-2.7315,-2.7315,-2.7315,-2.7315,-2.7315,-2.7315,-2.7315,-2.7315,-2.7315,-2.7315,-2.725,-2.7136,-2.7063,-2.7047,-2.69,-2.6792,-2.6725,-2.4945,-2.4485,-2.3996,-2.3804,-2.3804,-2.3804,-2.3804,-2.3804,-2.3804,-2.3804,-2.3804,-2.3804,-2.3804,-2.3804,-2.3804,-2.3804,-2.3804,-2.3804,-2.3804,-2.3804,-2.3762,-2.3747,-2.3689,-2.3591,-2.3473,-2.3313,-2.3241,-2.3163,-2.3111,-2.3098,-2.3098,-2.3098,-2.3098,-2.3098,-2.3098,-2.3098,-2.3098,-2.3098,-2.3098,-2.3098,-2.3098,-2.3098,-2.3098,-2.3098,-2.3098,-2.3011,-2.282,-2.2795,-2.2699,-2.2506,-2.2501,-2.2501,-2.2492,-2.2605,-2.2627,-2.2528,-2.2646,-2.279,-2.2889,-2.2833,-2.2624,-2.2211,-2.2189,-2.2073,-2.1834,-2.1789,-2.1661,-2.1473,-2.1553,-2.2188,-2.3285,-2.3485,-2.4055,-2.5306,-2.5451,-2.5299,-2.5315,-2.5408,-2.5511,-2.5503,-2.5644,-2.597,-2.6376,-2.6666,-2.6858,-2.704,-2.7218,-2.7299,-2.7315,-2.7315,-2.7315,-2.7315,-2.7315,-2.7315,-2.7315,-2.7315,-2.7315,-2.7315,-2.7315,-2.7315,-2.7315,-2.7315,-2.7315,-2.7315,-2.7315,-2.7315,-2.7315,-2.7299,-2.7266,-2.7152,-2.7071,-2.7015,-2.6958,-2.6892,-2.6859,-2.5407,-2.4628,-2.4041,-2.3804,-2.3804,-2.3804,-2.3804,-2.3804,-2.3804,-2.3804,-2.3804,-2.3804,-2.3804,-2.3804,-2.3804,-2.3804,-2.3804,-2.3804,-2.3804,-2.3804,-2.3804,-2.3771,-2.3725,-2.3711,-2.3578,-2.3392,-2.3313,-2.322,-2.3111,-2.3098,-2.3098,-2.3098,-2.3098,-2.3098,-2.3098,-2.3098,-2.3098,-2.3098,-2.3098,-2.3098,-2.3098,-2.3098,-2.3098,-2.3098,-2.3098,-2.3036,-2.2893,-2.2889,-2.2808,-2.2681,-2.2676,-2.2676,-2.2667,-2.2795,-2.2808,-2.2694,-2.2716,-2.2812,-2.2889,-2.282,-2.2646,-2.2383,-2.2334,-2.2262,-2.2101,-2.2052,-2.2061,-2.204,-2.2191,-2.2683,-2.3696,-2.3902,-2.4549,-2.5841,-2.5825,-2.567,-2.567,-2.576,-2.5854,-2.5835,-2.6068,-2.6192,-2.675,-2.708,-2.7259,-2.7283,-2.7299,-2.7315,-2.7315,-2.7315,-2.7315,-2.7315,-2.7315,-2.7315,-2.7315,-2.7315,-2.7315,-2.7315,-2.7315,-2.7315,-2.7315,-2.7315,-2.7315,-2.7315,-2.7315,-2.7315,-2.7315,-2.7299,-2.7299,-2.7176,-2.7087,-2.704,-2.7023,-2.6975,-2.6847,-2.4574,-2.3913,-2.3822,-2.3804,-2.3804,-2.3804,-2.3804,-2.3804,-2.3804,-2.3804,-2.3804,-2.3804,-2.3804,-2.3804,-2.3804,-2.3804,-2.3804,-2.3804,-2.3804,-2.3804,-2.3804,-2.3804,-2.3804,-2.3725,-2.3623,-2.3485,-2.3369,-2.3241,-2.3111,-2.3098,-2.3098,-2.3098,-2.3098,-2.3098,-2.3098,-2.3098,-2.3098,-2.3098,-2.3098,-2.3098,-2.3098,-2.3098,-2.3098,-2.3098,-2.3098,-2.3086,-2.3074,-2.3082,-2.3082,-2.307,-2.3057,-2.307,-2.3061,-2.3074,-2.3052,-2.3049,-2.2957,-2.2885,-2.2872,-2.2777,-2.2699,-2.2663,-2.2637,-2.2659,-2.2597,-2.257,-2.257,-2.2646,-2.2454,-2.2794,-2.3766,-2.3926,-2.4562,-2.595,-2.6105,-2.6078,-2.607,-2.6358,-2.6607,-2.6632,-2.6842,-2.7056,-2.7243,-2.7282,-2.7315,-2.7315,-2.7315,-2.7315,-2.7315,-2.7315,-2.7315,-2.7315,-2.7315,-2.7315,-2.7315,-2.7315,-2.7315,-2.7315,-2.7315,-2.7315,-2.7315,-2.7315,-2.7315,-2.7315,-2.7315,-2.7315,-2.7315,-2.7315,-2.7315,-2.725,-2.7168,-2.712,-2.7104,-2.7031,-2.6912,-2.5,-2.3804,-2.3804,-2.3804,-2.3804,-2.3804,-2.3804,-2.3804,-2.3804,-2.3804,-2.3804,-2.3804,-2.3804,-2.3804,-2.3804,-2.3804,-2.3804,-2.3804,-2.3804,-2.3804,-2.3804,-2.3804,-2.3804,-2.3771,-2.3734,-2.3632,-2.3485,-2.3321,-2.3123,-2.3098,-2.3098,-2.3098,-2.3098,-2.3098,-2.3098,-2.3098,-2.3098,-2.3098,-2.3098,-2.3098,-2.3098,-2.3098,-2.3098,-2.3098,-2.3098,-2.3098,-2.3098,-2.3098,-2.3098,-2.3098,-2.3098,-2.3098,-2.3098,-2.3098,-2.3098,-2.3086,-2.2982,-2.2889,-2.2885,-2.2777,-2.2712,-2.2712,-2.2712,-2.2712,-2.2712,-2.2712,-2.2712,-2.2746,-2.3065,-2.3622,-2.423,-2.42,-2.4704,-2.6386,-2.6632,-2.6479,-2.6496,-2.6615,-2.67,-2.6758,-2.7048,-2.7299,-2.7315,-2.7315,-2.7315,-2.7315,-2.7315,-2.7315,-2.7315,-2.7315,-2.7315,-2.7315,-2.7315,-2.7315,-2.7315,-2.7315,-2.7315,-2.7315,-2.7315,-2.7315,-2.7315,-2.7315,-2.7315,-2.7315,-2.7315,-2.7315,-2.7315,-2.7315,-2.7315,-2.7299,-2.7225,-2.7217,-2.7224,-2.7137,-2.7025,-2.48,-2.3877,-2.3804,-2.3804,-2.3804,-2.3804,-2.3804,-2.3804,-2.3804,-2.3804,-2.3804,-2.3804,-2.3804,-2.3804,-2.3804,-2.3804,-2.3804,-2.3804,-2.3804,-2.3804,-2.3804,-2.3804,-2.3804,-2.3804,-2.3771,-2.368,-2.351,-2.3327,-2.3172,-2.3123,-2.3098,-2.3098,-2.3098,-2.3098,-2.3098,-2.3098,-2.3098,-2.3098,-2.3098,-2.3098,-2.3098,-2.3098,-2.3098,-2.3098,-2.3098,-2.3098,-2.3098,-2.3098,-2.3098,-2.3098,-2.3098,-2.3098,-2.3098,-2.3098,-2.3098,-2.3086,-2.299,-2.2923,-2.2876,-2.2812,-2.2725,-2.2712,-2.2712,-2.2712,-2.2712,-2.2712,-2.2712,-2.2836,-2.3371,-2.4138,-2.4737,-2.4764,-2.5354,-2.692,-2.7048,-2.69,-2.6908,-2.69,-2.69,-2.6941,-2.7121,-2.7274,-2.7315,-2.7315,-2.7315,-2.7315,-2.7315,-2.7315,-2.7315,-2.7315,-2.7315,-2.7315,-2.7315,-2.7315,-2.7315,-2.7315,-2.7315,-2.7315,-2.7315,-2.7315,-2.7315,-2.7315,-2.7315,-2.7315,-2.7315,-2.7315,-2.7315,-2.7315,-2.7315,-2.7315,-2.7299,-2.7266,-2.7266,-2.7217,-2.7139,-2.3842,-2.3815,-2.3806,-2.3815,-2.3825,-2.3825,-2.3815,-2.3806,-2.3806,-2.3806,-2.3806,-2.3804,-2.3804,-2.3804,-2.3804,-2.3804,-2.3804,-2.3804,-2.3804,-2.3804,-2.3804,-2.3804,-2.3804,-2.3804,-2.3751,-2.3709,-2.3464,-2.3316,-2.3298,-2.3175,-2.3135,-2.3111,-2.3098,-2.3098,-2.3098,-2.3098,-2.3098,-2.3098,-2.3098,-2.3098,-2.3098,-2.3098,-2.3098,-2.3098,-2.3098,-2.3098,-2.3098,-2.3098,-2.3098,-2.3098,-2.3098,-2.3098,-2.3098,-2.3098,-2.3098,-2.3086,-2.3024,-2.2961,-2.2898,-2.2829,-2.2773,-2.2712,-2.2712,-2.2712,-2.2712,-2.2712,-2.2746,-2.2931,-2.3509,-2.4215,-2.5008,-2.5652,-2.6334,-2.7135,-2.7243,-2.7243,-2.725,-2.729,-2.7299,-2.7283,-2.7299,-2.7315,-2.7315,-2.7315,-2.7315,-2.7315,-2.7315,-2.7315,-2.7315,-2.7315,-2.7315,-2.7315,-2.7315,-2.7315,-2.7315,-2.7315,-2.7315,-2.7315,-2.7315,-2.7315,-2.7315,-2.7315,-2.7315,-2.7315,-2.7315,-2.7315,-2.7315,-2.7315,-2.7315,-2.7315,-2.7315,-2.7315,-2.729,-2.7274,-2.7274,-2.3936,-2.3945,-2.3936,-2.3927,-2.3927,-2.3946,-2.3907,-2.3867,-2.3867,-2.3837,-2.3806,-2.3804,-2.3804,-2.3804,-2.3804,-2.3804,-2.3804,-2.3804,-2.3804,-2.3815,-2.3815,-2.3815,-2.3815,-2.3815,-2.378,-2.3725,-2.3764,-2.3611,-2.3354,-2.3351,-2.3295,-2.3126,-2.3098,-2.3098,-2.3098,-2.3098,-2.3098,-2.3098,-2.3098,-2.3098,-2.3098,-2.3098,-2.3098,-2.3098,-2.3098,-2.3098,-2.3098,-2.3098,-2.3098,-2.3098,-2.3098,-2.3098,-2.3098,-2.3098,-2.3098,-2.3095,-2.3036,-2.2961,-2.2898,-2.2851,-2.2777,-2.2725,-2.2712,-2.2712,-2.2712,-2.2712,-2.2923,-2.3397,-2.4163,-2.4939,-2.5704,-2.6471,-2.6997,-2.7282,-2.7315,-2.7315,-2.7315,-2.7315,-2.7315,-2.7315,-2.7315,-2.7315,-2.7315,-2.7315,-2.7315,-2.7315,-2.7315,-2.7315,-2.7315,-2.7315,-2.7315,-2.7315,-2.7315,-2.7315,-2.7315,-2.7315,-2.7315,-2.7315,-2.7315,-2.7315,-2.7315,-2.7315,-2.7315,-2.7315,-2.7315,-2.7315,-2.7315,-2.7315,-2.7315,-2.7315,-2.7315,-2.7315,-2.7315,-2.7315,-2.7315,-2.3988,-2.3988,-2.3988,-2.3988,-2.3988,-2.3988,-2.3976,-2.3927,-2.3916,-2.3867,-2.3837,-2.3806,-2.3804,-2.3804,-2.3804,-2.3804,-2.3804,-2.3804,-2.3846,-2.3907,-2.3926,-2.3937,-2.3978,-2.3979,-2.3927,-2.3864,-2.395,-2.381,-2.3454,-2.3463,-2.3365,-2.3147,-2.3098,-2.3098,-2.3098,-2.3098,-2.3098,-2.3098,-2.3098,-2.3098,-2.3098,-2.3098,-2.3098,-2.3098,-2.3098,-2.3098,-2.3098,-2.3098,-2.3098,-2.3098,-2.3074,-2.3082,-2.3107,-2.3074,-2.3082,-2.3095,-2.3061,-2.3008,-2.2944,-2.2885,-2.2808,-2.2751,-2.2712,-2.2712,-2.2712,-2.2712,-2.2957,-2.3388,-2.4336,-2.5195,-2.5704,-2.6687,-2.7254,-2.7315,-2.7315,-2.7315,-2.7315,-2.7315,-2.7315,-2.7315,-2.7315,-2.7315,-2.7315,-2.7315,-2.7315,-2.7315,-2.7315,-2.7315,-2.7315,-2.7315,-2.7315,-2.7315,-2.7315,-2.7315,-2.7315,-2.7315,-2.7315,-2.7315,-2.7315,-2.7315,-2.7315,-2.7315,-2.7315,-2.7315,-2.7315,-2.7315,-2.7315,-2.7315,-2.7315,-2.7315,-2.7315,-2.7315,-2.7315,-2.7315,-2.7315,-2.4007,-2.4025,-2.4025,-2.4016,-2.4016,-2.4016,-2.4025,-2.3996,-2.3955,-2.3908,-2.3887,-2.3827,-2.3806,-2.3795,-2.3804,-2.3804,-2.3815,-2.3855,-2.3947,-2.4066,-2.4114,-2.4163,-2.4238,-2.4266,-2.4201,-2.4104,-2.4097,-2.3942,-2.3703,-2.3629,-2.338,-2.3175,-2.3135,-2.3098,-2.3098,-2.3098,-2.3098,-2.3098,-2.3098,-2.3098,-2.3098,-2.3098,-2.3098,-2.3098,-2.3098,-2.3098,-2.3098,-2.3098,-2.3107,-2.3095,-2.3045,-2.3024,-2.3061,-2.3015,-2.3024,-2.3074,-2.3098,-2.3057,-2.3008,-2.2944,-2.2872,-2.2808,-2.2751,-2.2712,-2.2703,-2.272,-2.2793,-2.3052,-2.4086,-2.4919,-2.5273,-2.6281,-2.709,-2.7315,-2.7315,-2.7315,-2.7315,-2.7315,-2.7315,-2.7315,-2.7315,-2.7315,-2.7315,-2.7315,-2.7315,-2.7315,-2.7315,-2.7315,-2.7315,-2.7315,-2.7315,-2.7315,-2.7315,-2.7315,-2.7315,-2.7315,-2.7315,-2.7315,-2.7315,-2.7315,-2.7315,-2.7315,-2.7315,-2.7315,-2.7315,-2.7315,-2.7315,-2.7315,-2.7315,-2.7315,-2.7315,-2.7315,-2.7315,-2.7315,-2.7315,-2.4151,-2.4151,-2.4151,-2.4142,-2.4151,-2.4133,-2.4122,-2.4083,-2.4055,-2.3978,-2.3926,-2.3886,-2.3847,-2.3806,-2.3815,-2.3804,-2.3856,-2.3957,-2.4104,-2.4257,-2.4366,-2.4348,-2.4348,-2.441,-2.4384,-2.4294,-2.4393,-2.4302,-2.3942,-2.3846,-2.3642,-2.3392,-2.3199,-2.3111,-2.3098,-2.3098,-2.3098,-2.3098,-2.3098,-2.3098,-2.3098,-2.3098,-2.3098,-2.3098,-2.3098,-2.3098,-2.3098,-2.3098,-2.3082,-2.3033,-2.302,-2.2986,-2.2961,-2.2944,-2.2957,-2.3011,-2.3015,-2.3033,-2.299,-2.2974,-2.2936,-2.2872,-2.2812,-2.2777,-2.2777,-2.2733,-2.2966,-2.3379,-2.3974,-2.4388,-2.4997,-2.5911,-2.6644,-2.7211,-2.7263,-2.7263,-2.7315,-2.7315,-2.7315,-2.7315,-2.7315,-2.7315,-2.7315,-2.7315,-2.7315,-2.7315,-2.7315,-2.7315,-2.7315,-2.7315,-2.7315,-2.7315,-2.7315,-2.7315,-2.7315,-2.7315,-2.7315,-2.7315,-2.7315,-2.7315,-2.7315,-2.7315,-2.7315,-2.7315,-2.7315,-2.7315,-2.7315,-2.7315,-2.7315,-2.7315,-2.7315,-2.7315,-2.7315,-2.7315,-2.7315,-2.4208,-2.4208,-2.4208,-2.4208,-2.4208,-2.4208,-2.4189,-2.4151,-2.4103,-2.4096,-2.4049,-2.3999,-2.401,-2.4059,-2.4029,-2.4018,-2.4027,-2.4115,-2.4257,-2.4401,-2.4521,-2.4504,-2.4453,-2.4529,-2.4521,-2.4419,-2.4609,-2.4453,-2.4182,-2.4049,-2.3845,-2.3529,-2.3354,-2.3211,-2.3098,-2.3098,-2.3098,-2.3098,-2.3098,-2.3098,-2.3098,-2.3098,-2.3098,-2.3098,-2.3098,-2.3098,-2.3098,-2.3074,-2.3036,-2.2999,-2.2974,-2.2944,-2.2906,-2.2868,-2.2893,-2.2948,-2.2952,-2.2961,-2.2948,-2.2923,-2.2919,-2.2893,-2.2851,-2.2829,-2.282,-2.279,-2.2997,-2.3247,-2.3608,-2.4181,-2.4974,-2.5954,-2.673,-2.717,-2.7006,-2.6954,-2.723,-2.7315,-2.7315,-2.7315,-2.7315,-2.7315,-2.7315,-2.7315,-2.7315,-2.7315,-2.7315,-2.7315,-2.7315,-2.7315,-2.7315,-2.7315,-2.7315,-2.7315,-2.7315,-2.7315,-2.7315,-2.7315,-2.7315,-2.7315,-2.7315,-2.7315,-2.7315,-2.7315,-2.7315,-2.7315,-2.7315,-2.7315,-2.7315,-2.7315,-2.7315,-2.7315,-2.7315,-2.7315,-2.7315,-2.4208,-2.4208,-2.4208,-2.4208,-2.4208,-2.4208,-2.4209,-2.4209,-2.4181,-2.4211,-2.4274,-2.4201,-2.4247,-2.4389,-2.4275,-2.4303,-2.4266,-2.4284,-2.4392,-2.4502,-2.461,-2.4619,-2.4545,-2.4629,-2.4619,-2.4537,-2.4639,-2.4548,-2.4366,-2.4257,-2.3989,-2.3687,-2.3542,-2.3377,-2.322,-2.3135,-2.3098,-2.3098,-2.3098,-2.3098,-2.3098,-2.3098,-2.3098,-2.3098,-2.3098,-2.3098,-2.3095,-2.3057,-2.3011,-2.3008,-2.2923,-2.2893,-2.2872,-2.2808,-2.282,-2.2881,-2.2893,-2.2906,-2.2906,-2.2859,-2.2851,-2.2889,-2.2842,-2.282,-2.2846,-2.2825,-2.282,-2.2885,-2.3351,-2.395,-2.4744,-2.6064,-2.6557,-2.6652,-2.6283,-2.6419,-2.6945,-2.717,-2.7187,-2.7282,-2.7315,-2.7315,-2.7315,-2.7315,-2.7315,-2.7315,-2.7315,-2.7315,-2.7315,-2.7315,-2.7315,-2.7315,-2.7315,-2.7315,-2.7315,-2.7315,-2.7315,-2.7315,-2.7315,-2.7315,-2.7315,-2.7315,-2.7315,-2.7315,-2.7315,-2.7315,-2.7315,-2.7315,-2.7315,-2.7315,-2.7315,-2.7315,-2.7315,-2.7315,-2.7315,-2.4208,-2.4208,-2.4208,-2.4208,-2.4208,-2.4208,-2.4266,-2.4365,-2.4337,-2.4407,-2.4509,-2.45,-2.4467,-2.4397,-2.4399,-2.4347,-2.4339,-2.4418,-2.4538,-2.4643,-2.4675,-2.4682,-2.4642,-2.4692,-2.4675,-2.4642,-2.4667,-2.4654,-2.4548,-2.4375,-2.4201,-2.4019,-2.3696,-2.349,-2.3392,-2.3211,-2.3098,-2.3098,-2.3098,-2.3098,-2.3098,-2.3098,-2.3098,-2.3098,-2.3098,-2.3098,-2.3098,-2.3086,-2.304,-2.2986,-2.2893,-2.2816,-2.2777,-2.2751,-2.2756,-2.2795,-2.2829,-2.2855,-2.2885,-2.2881,-2.2881,-2.2893,-2.2846,-2.2795,-2.2808,-2.2786,-2.2738,-2.2747,-2.2915,-2.343,-2.4156,-2.439,-2.5074,-2.5473,-2.5439,-2.5551,-2.6163,-2.6378,-2.6669,-2.7118,-2.7315,-2.7315,-2.7315,-2.7315,-2.7315,-2.7315,-2.7315,-2.7315,-2.7315,-2.7315,-2.7315,-2.7315,-2.7315,-2.7315,-2.7315,-2.7315,-2.7315,-2.7315,-2.7315,-2.7315,-2.7315,-2.7315,-2.7315,-2.7315,-2.7315,-2.7315,-2.7315,-2.7315,-2.7315,-2.7315,-2.7315,-2.7315,-2.7315,-2.7315,-2.7315,-2.4437,-2.4437,-2.4437,-2.4437,-2.4437,-2.4437,-2.4469,-2.4536,-2.4544,-2.4606,-2.4706,-2.4716,-2.4666,-2.4636,-2.4606,-2.4552,-2.4513,-2.4545,-2.4627,-2.4692,-2.469,-2.469,-2.469,-2.469,-2.469,-2.469,-2.469,-2.4686,-2.4641,-2.4524,-2.4348,-2.4192,-2.3908,-2.3687,-2.3529,-2.3345,-2.3223,-2.3123,-2.3098,-2.3098,-2.3098,-2.3098,-2.3098,-2.3098,-2.3098,-2.3098,-2.3098,-2.307,-2.3045,-2.2986,-2.2898,-2.2816,-2.2773,-2.2751,-2.2742,-2.2742,-2.2747,-2.2769,-2.2803,-2.2816,-2.2799,-2.2846,-2.282,-2.282,-2.282,-2.279,-2.2742,-2.2751,-2.282,-2.3053,-2.377,-2.4309,-2.46,-2.4741,-2.4646,-2.4928,-2.5799,-2.6118,-2.6419,-2.7049,-2.7315,-2.7315,-2.7315,-2.7315,-2.7315,-2.7315,-2.7315,-2.7315,-2.7315,-2.7315,-2.7315,-2.7315,-2.7315,-2.7315,-2.7315,-2.7315,-2.7315,-2.7315,-2.7315,-2.7315,-2.7315,-2.7315,-2.7315,-2.7315,-2.7315,-2.7315,-2.7315,-2.7315,-2.7315,-2.7315,-2.7315,-2.7315,-2.7297,-2.7263,-2.728,-2.469,-2.469,-2.469,-2.469,-2.469,-2.4682,-2.4698,-2.4729,-2.4719,-2.4806,-2.4918,-2.4884,-2.4891,-2.4907,-2.4837,-2.4783,-2.4706,-2.4673,-2.469,-2.469,-2.469,-2.469,-2.469,-2.469,-2.469,-2.469,-2.469,-2.4693,-2.4671,-2.4606,-2.447,-2.4266,-2.4126,-2.3879,-2.362,-2.3483,-2.3354,-2.3135,-2.3098,-2.3098,-2.3098,-2.3098,-2.3098,-2.3098,-2.3098,-2.3098,-2.3098,-2.3061,-2.3015,-2.3011,-2.297,-2.2906,-2.2855,-2.2816,-2.2812,-2.2738,-2.2729,-2.2742,-2.2742,-2.2725,-2.2738,-2.279,-2.2782,-2.2808,-2.282,-2.2795,-2.276,-2.2742,-2.279,-2.2949,-2.3608,-2.3945,-2.4367,-2.4474,-2.4034,-2.4534,-2.5499,-2.5962,-2.6281,-2.7116,-2.7315,-2.7315,-2.7315,-2.7315,-2.7315,-2.7315,-2.7315,-2.7315,-2.7315,-2.7315,-2.7315,-2.7315,-2.7315,-2.7315,-2.7315,-2.7315,-2.7315,-2.7315,-2.7315,-2.7315,-2.7315,-2.7315,-2.7315,-2.7315,-2.7315,-2.7315,-2.7315,-2.7315,-2.7315,-2.7315,-2.7315,-2.7315,-2.7272,-2.7211,-2.7203,-2.469,-2.469,-2.469,-2.469,-2.469,-2.4698,-2.4779,-2.4844,-2.4877,-2.4993,-2.5128,-2.515,-2.5085,-2.5047,-2.4925,-2.4813,-2.4712,-2.469,-2.469,-2.469,-2.469,-2.469,-2.469,-2.469,-2.469,-2.469,-2.469,-2.469,-2.4676,-2.4613,-2.4565,-2.4479,-2.4266,-2.3989,-2.3783,-2.3598,-2.3417,-2.3235,-2.3163,-2.3139,-2.3139,-2.3111,-2.3098,-2.3098,-2.3098,-2.3098,-2.3098,-2.3098,-2.3086,-2.3095,-2.3074,-2.3024,-2.2961,-2.2919,-2.2889,-2.2855,-2.2803,-2.2782,-2.2782,-2.2738,-2.2712,-2.2703,-2.2716,-2.2725,-2.2738,-2.2738,-2.2729,-2.2716,-2.2712,-2.2798,-2.2942,-2.3243,-2.3143,-2.3207,-2.3612,-2.4155,-2.4971,-2.5298,-2.579,-2.6868,-2.7151,-2.7237,-2.7142,-2.7177,-2.7315,-2.7315,-2.7315,-2.7315,-2.7315,-2.7315,-2.7315,-2.7315,-2.7315,-2.7315,-2.7315,-2.7315,-2.7315,-2.7315,-2.7315,-2.7315,-2.7315,-2.7315,-2.7315,-2.7315,-2.7315,-2.7315,-2.7315,-2.7315,-2.7315,-2.7315,-2.7315,-2.7315,-2.7203,-2.7075,-2.6971,-2.4954,-2.4973,-2.495,-2.4953,-2.4963,-2.4953,-2.4996,-2.506,-2.5057,-2.5103,-2.5174,-2.5195,-2.5169,-2.5092,-2.4964,-2.4818,-2.4719,-2.469,-2.469,-2.469,-2.469,-2.469,-2.469,-2.469,-2.469,-2.469,-2.469,-2.469,-2.4682,-2.4671,-2.4632,-2.4555,-2.4392,-2.4201,-2.4009,-2.3878,-2.3667,-2.3479,-2.3359,-2.3298,-2.3274,-2.3196,-2.3111,-2.3098,-2.3098,-2.3098,-2.3098,-2.3098,-2.3098,-2.3098,-2.3098,-2.3074,-2.304,-2.3024,-2.2982,-2.2919,-2.2872,-2.2846,-2.2859,-2.2808,-2.2803,-2.2764,-2.2764,-2.2738,-2.2712,-2.2712,-2.2712,-2.2712,-2.2712,-2.2712,-2.2781,-2.2716,-2.2712,-2.275,-2.3078,-2.381,-2.4525,-2.4551,-2.5335,-2.6376,-2.6531,-2.6592,-2.6695,-2.6851,-2.7211,-2.7315,-2.7315,-2.7315,-2.7315,-2.7315,-2.7315,-2.7315,-2.7315,-2.7315,-2.7315,-2.7315,-2.7315,-2.7315,-2.7315,-2.7315,-2.7315,-2.7315,-2.7315,-2.7315,-2.7315,-2.7315,-2.7315,-2.7315,-2.7315,-2.7315,-2.7315,-2.728,-2.7092,-2.6954,-2.6825,-2.5208,-2.5208,-2.521,-2.5203,-2.5212,-2.5207,-2.5201,-2.521,-2.5205,-2.5195,-2.521,-2.5205,-2.5175,-2.5111,-2.4996,-2.4868,-2.4706,-2.4706,-2.4713,-2.469,-2.469,-2.469,-2.469,-2.469,-2.469,-2.469,-2.469,-2.469,-2.4693,-2.4673,-2.4641,-2.4573,-2.4522,-2.4374,-2.4126,-2.4049,-2.3979,-2.3816,-2.3664,-2.3542,-2.3449,-2.3307,-2.3139,-2.3098,-2.3098,-2.3098,-2.3098,-2.3098,-2.3086,-2.3086,-2.3077,-2.3095,-2.3077,-2.3098,-2.3057,-2.2982,-2.2965,-2.2986,-2.2936,-2.2999,-2.299,-2.2952,-2.2914,-2.2902,-2.288,-2.288,-2.2786,-2.2725,-2.279,-2.2764,-2.2738,-2.2764,-2.2751,-2.2759,-2.2931,-2.331,-2.4077,-2.4388,-2.4456,-2.518,-2.5646,-2.6033,-2.6247,-2.6851,-2.7272,-2.7315,-2.7315,-2.7315,-2.7315,-2.7315,-2.7315,-2.7315,-2.7315,-2.7315,-2.7315,-2.7315,-2.7315,-2.7315,-2.7315,-2.7315,-2.7315,-2.7315,-2.7315,-2.7315,-2.7315,-2.7315,-2.7315,-2.7315,-2.7315,-2.7315,-2.7315,-2.7272,-2.7161,-2.6859,-2.6609,-2.5206,-2.5206,-2.5206,-2.5209,-2.5206,-2.5206,-2.5208,-2.521,-2.521,-2.521,-2.521,-2.521,-2.5195,-2.515,-2.5104,-2.4931,-2.4783,-2.4761,-2.4753,-2.4707,-2.469,-2.469,-2.469,-2.469,-2.469,-2.469,-2.469,-2.4686,-2.4689,-2.4649,-2.4599,-2.454,-2.4497,-2.4384,-2.4183,-2.4173,-2.399,-2.3847,-2.3785,-2.3678,-2.3531,-2.3472,-2.3342,-2.3199,-2.3135,-2.3135,-2.316,-2.3147,-2.3111,-2.3028,-2.3086,-2.3074,-2.3024,-2.3074,-2.3095,-2.3135,-2.319,-2.3247,-2.3098,-2.3178,-2.3265,-2.3233,-2.3221,-2.3307,-2.3262,-2.3136,-2.2986,-2.2712,-2.2889,-2.2952,-2.2855,-2.2948,-2.2898,-2.2994,-2.3162,-2.3458,-2.3939,-2.3845,-2.3948,-2.4439,-2.5042,-2.556,-2.5945,-2.6678,-2.7315,-2.7315,-2.7315,-2.7315,-2.7315,-2.7315,-2.7315,-2.7315,-2.7315,-2.7315,-2.7315,-2.7315,-2.7315,-2.7315,-2.7315,-2.7315,-2.7315,-2.7315,-2.7315,-2.7315,-2.7315,-2.7315,-2.7315,-2.7315,-2.7315,-2.7315,-2.7315,-2.7315,-2.7306,-2.6911,-2.6428,-2.5248,-2.5262,-2.5213,-2.5205,-2.5212,-2.5212,-2.5205,-2.5201,-2.521,-2.521,-2.521,-2.521,-2.5187,-2.5141,-2.5117,-2.4975,-2.4796,-2.4789,-2.4776,-2.4715,-2.469,-2.469,-2.469,-2.469,-2.469,-2.469,-2.4682,-2.4668,-2.4655,-2.4649,-2.4597,-2.4522,-2.4505,-2.4463,-2.4302,-2.4321,-2.4294,-2.4191,-2.4049,-2.3878,-2.3739,-2.3675,-2.362,-2.3497,-2.3389,-2.3339,-2.3339,-2.333,-2.3223,-2.3139,-2.3217,-2.3319,-2.3283,-2.3292,-2.3324,-2.3448,-2.3657,-2.362,-2.3389,-2.3497,-2.3535,-2.3529,-2.3515,-2.3526,-2.3497,-2.3405,-2.3274,-2.3113,-2.3185,-2.3174,-2.311,-2.3215,-2.3112,-2.3137,-2.3263,-2.3474,-2.3589,-2.3259,-2.3328,-2.3879,-2.4422,-2.4948,-2.5574,-2.6368,-2.703,-2.7315,-2.7315,-2.7315,-2.7315,-2.7315,-2.7315,-2.7315,-2.7315,-2.7315,-2.7315,-2.7315,-2.7315,-2.7315,-2.7315,-2.7315,-2.7315,-2.7315,-2.7315,-2.7315,-2.7315,-2.7315,-2.7315,-2.7315,-2.7315,-2.7315,-2.7315,-2.7315,-2.7272,-2.6721,-2.6368,-2.5302,-2.5297,-2.5238,-2.5212,-2.5213,-2.5213,-2.521,-2.521,-2.521,-2.521,-2.521,-2.5205,-2.516,-2.5111,-2.5108,-2.5005,-2.4811,-2.4816,-2.4774,-2.4721,-2.469,-2.469,-2.469,-2.469,-2.469,-2.469,-2.469,-2.466,-2.4639,-2.4632,-2.4608,-2.4505,-2.4506,-2.4489,-2.45,-2.4482,-2.4447,-2.4438,-2.4275,-2.4087,-2.3919,-2.3869,-2.3828,-2.3764,-2.3675,-2.3573,-2.3565,-2.3565,-2.3443,-2.3371,-2.3452,-2.3544,-2.3531,-2.3508,-2.3562,-2.371,-2.3898,-2.3927,-2.3773,-2.3776,-2.3828,-2.3829,-2.384,-2.3849,-2.3673,-2.361,-2.3522,-2.3389,-2.3477,-2.3466,-2.3435,-2.3435,-2.3373,-2.3236,-2.3154,-2.3362,-2.3466,-2.314,-2.2975,-2.3328,-2.3853,-2.4353,-2.5066,-2.5962,-2.6635,-2.7177,-2.7315,-2.7315,-2.7315,-2.7315,-2.7315,-2.7315,-2.7315,-2.7315,-2.7315,-2.7315,-2.7315,-2.7315,-2.7315,-2.7315,-2.7315,-2.7315,-2.7315,-2.7315,-2.728,-2.7315,-2.7315,-2.7315,-2.7315,-2.7315,-2.7315,-2.7315,-2.7142,-2.6626,-2.6471,-2.5298,-2.5303,-2.5293,-2.5263,-2.5212,-2.5206,-2.5208,-2.521,-2.521,-2.521,-2.521,-2.5195,-2.5156,-2.5129,-2.5126,-2.5035,-2.4811,-2.4861,-2.4799,-2.4736,-2.469,-2.469,-2.469,-2.469,-2.469,-2.469,-2.469,-2.466,-2.4623,-2.4607,-2.4575,-2.4507,-2.4507,-2.4508,-2.4509,-2.4509,-2.4509,-2.4509,-2.4429,-2.4302,-2.4145,-2.4069,-2.4028,-2.3878,-2.3816,-2.3785,-2.3774,-2.3765,-2.3712,-2.3613,-2.3712,-2.3746,-2.3733,-2.3732,-2.3803,-2.3917,-2.4038,-2.4086,-2.4058,-2.4039,-2.4059,-2.4116,-2.4154,-2.4163,-2.3961,-2.3899,-2.3776,-2.363,-2.3735,-2.3683,-2.361,-2.3566,-2.363,-2.3473,-2.3315,-2.326,-2.3282,-2.3033,-2.2903,-2.2958,-2.3362,-2.3983,-2.4422,-2.5307,-2.6195,-2.6747,-2.7297,-2.7315,-2.7315,-2.7315,-2.7315,-2.7315,-2.7315,-2.7315,-2.7315,-2.7315,-2.7315,-2.7315,-2.7315,-2.7315,-2.7315,-2.7315,-2.7315,-2.7159,-2.7099,-2.7211,-2.7306,-2.7264,-2.7256,-2.729,-2.7315,-2.7315,-2.7315,-2.7032,-2.6971,-2.5298,-2.5298,-2.5298,-2.5268,-2.5212,-2.5212,-2.5208,-2.5207,-2.521,-2.521,-2.521,-2.5205,-2.5183,-2.5181,-2.5171,-2.5079,-2.4884,-2.4898,-2.4823,-2.4744,-2.469,-2.469,-2.469,-2.469,-2.469,-2.469,-2.469,-2.4659,-2.4606,-2.4597,-2.4567,-2.4525,-2.4509,-2.4509,-2.4509,-2.4509,-2.4509,-2.4509,-2.4509,-2.442,-2.4384,-2.4339,-2.4321,-2.4257,-2.4029,-2.3981,-2.3971,-2.3971,-2.3891,-2.3849,-2.3939,-2.395,-2.395,-2.3988,-2.4047,-2.4134,-2.4229,-2.4266,-2.4275,-2.4275,-2.4275,-2.4248,-2.4321,-2.433,-2.4173,-2.4172,-2.4153,-2.4086,-2.4037,-2.395,-2.3951,-2.397,-2.395,-2.3733,-2.3547,-2.3371,-2.3206,-2.3035,-2.2868,-2.2951,-2.333,-2.3845,-2.4207,-2.4617,-2.5505,-2.6325,-2.6868,-2.7315,-2.7315,-2.7315,-2.7315,-2.7315,-2.7315,-2.7315,-2.7315,-2.7315,-2.7315,-2.7315,-2.7315,-2.7315,-2.7315,-2.7315,-2.728,-2.709,-2.6954,-2.7035,-2.7121,-2.7147,-2.7205,-2.7282,-2.7315,-2.7315,-2.7315,-2.7315,-2.7315,-2.5298,-2.5298,-2.5298,-2.5273,-2.5228,-2.5207,-2.5204,-2.5208,-2.5207,-2.521,-2.521,-2.521,-2.521,-2.521,-2.5205,-2.5091,-2.4945,-2.4895,-2.4813,-2.4742,-2.469,-2.469,-2.469,-2.469,-2.469,-2.469,-2.4682,-2.466,-2.4631,-2.4606,-2.4566,-2.4524,-2.4508,-2.4509,-2.4509,-2.4509,-2.4509,-2.4509,-2.4509,-2.4509,-2.4491,-2.4491,-2.4491,-2.4465,-2.4303,-2.4229,-2.422,-2.422,-2.4173,-2.4135,-2.4154,-2.421,-2.4229,-2.4247,-2.4312,-2.4376,-2.442,-2.443,-2.443,-2.443,-2.4412,-2.4348,-2.4358,-2.4358,-2.4321,-2.433,-2.4229,-2.4247,-2.4247,-2.4247,-2.4201,-2.4153,-2.4115,-2.3917,-2.3753,-2.36,-2.3434,-2.3262,-2.3063,-2.2967,-2.3319,-2.3527,-2.3664,-2.4034,-2.5042,-2.5844,-2.6385,-2.6928,-2.7315,-2.7315,-2.7315,-2.7315,-2.7315,-2.7315,-2.7315,-2.7315,-2.7315,-2.7315,-2.7315,-2.7315,-2.7315,-2.7315,-2.7289,-2.7135,-2.7033,-2.6951,-2.7027,-2.7188,-2.7256,-2.7315,-2.7315,-2.7315,-2.7315,-2.7315,-2.7315,-2.5298,-2.5298,-2.5298,-2.5303,-2.5287,-2.5232,-2.5205,-2.521,-2.5207,-2.521,-2.521,-2.521,-2.521,-2.5205,-2.5199,-2.5073,-2.4938,-2.4895,-2.4811,-2.4712,-2.469,-2.469,-2.469,-2.469,-2.469,-2.469,-2.469,-2.4693,-2.4691,-2.4631,-2.4573,-2.4523,-2.4507,-2.4509,-2.4509,-2.4509,-2.4509,-2.4509,-2.4509,-2.4509,-2.4509,-2.4509,-2.4509,-2.4491,-2.4465,-2.4411,-2.4411,-2.4411,-2.4384,-2.4375,-2.4384,-2.442,-2.4429,-2.4438,-2.4465,-2.4482,-2.4491,-2.45,-2.45,-2.45,-2.4447,-2.4367,-2.4358,-2.4358,-2.4284,-2.4257,-2.4248,-2.4266,-2.4238,-2.4219,-2.4199,-2.4199,-2.4162,-2.4104,-2.3946,-2.3795,-2.3637,-2.3518,-2.3318,-2.3044,-2.3024,-2.3082,-2.3137,-2.3483,-2.4569,-2.5361,-2.5911,-2.6454,-2.7006,-2.7125,-2.704,-2.7178,-2.717,-2.7203,-2.7203,-2.7289,-2.7315,-2.7315,-2.7315,-2.7315,-2.7315,-2.7315,-2.7272,-2.7161,-2.7135,-2.706,-2.7154,-2.7273,-2.7306,-2.7315,-2.7315,-2.7315,-2.7315,-2.7315,-2.7315,-2.5429,-2.5438,-2.5429,-2.5395,-2.5362,-2.5337,-2.5296,-2.5205,-2.521,-2.521,-2.521,-2.521,-2.521,-2.5199,-2.5141,-2.5041,-2.4925,-2.4851,-2.4774,-2.4706,-2.469,-2.469,-2.469,-2.469,-2.469,-2.469,-2.469,-2.4684,-2.4682,-2.4657,-2.4589,-2.453,-2.4507,-2.45,-2.4509,-2.4509,-2.4509,-2.4509,-2.4509,-2.4509,-2.4509,-2.4509,-2.4509,-2.4509,-2.4509,-2.4509,-2.4509,-2.4509,-2.4509,-2.4509,-2.4509,-2.4509,-2.4509,-2.4509,-2.4509,-2.4509,-2.4509,-2.4509,-2.4509,-2.45,-2.4429,-2.4358,-2.433,-2.4321,-2.4229,-2.4257,-2.4257,-2.4266,-2.4257,-2.4247,-2.4219,-2.421,-2.4182,-2.4181,-2.4065,-2.3937,-2.3806,-2.3723,-2.356,-2.323,-2.3086,-2.2948,-2.2942,-2.3022,-2.3896,-2.487,-2.5448,-2.6049,-2.6618,-2.66,-2.6549,-2.6842,-2.6963,-2.6997,-2.7073,-2.7237,-2.7315,-2.7315,-2.7315,-2.7315,-2.7315,-2.7315,-2.7049,-2.6859,-2.7023,-2.7203,-2.7126,-2.7109,-2.7272,-2.7315,-2.7315,-2.7315,-2.7315,-2.7315,-2.7315,-2.5514,-2.5514,-2.5514,-2.5483,-2.5437,-2.5403,-2.5312,-2.5225,-2.5207,-2.521,-2.521,-2.521,-2.521,-2.5193,-2.5129,-2.5015,-2.4904,-2.483,-2.4776,-2.4698,-2.469,-2.469,-2.469,-2.469,-2.469,-2.469,-2.469,-2.4692,-2.4687,-2.469,-2.4615,-2.453,-2.4507,-2.4508,-2.4509,-2.4509,-2.4509,-2.4509,-2.4509,-2.4509,-2.4509,-2.4509,-2.4509,-2.4509,-2.4509,-2.4509,-2.4509,-2.4509,-2.4509,-2.4509,-2.4509,-2.4509,-2.4509,-2.4509,-2.4509,-2.4509,-2.4509,-2.4509,-2.4509,-2.4509,-2.4429,-2.433,-2.4321,-2.4284,-2.422,-2.4238,-2.4266,-2.4275,-2.4284,-2.4257,-2.4219,-2.4201,-2.42,-2.4199,-2.4152,-2.4036,-2.3997,-2.3926,-2.3742,-2.3397,-2.3145,-2.2994,-2.2812,-2.2859,-2.3198,-2.4129,-2.5017,-2.5637,-2.6238,-2.6256,-2.6385,-2.6756,-2.6963,-2.7032,-2.7142,-2.7263,-2.7315,-2.7315,-2.7315,-2.7315,-2.7315,-2.7306,-2.6919,-2.6678,-2.7006,-2.7185,-2.6945,-2.6928,-2.7203,-2.7315,-2.7315,-2.7315,-2.7315,-2.7315,-2.7315,-2.551,-2.5519,-2.551,-2.5514,-2.5496,-2.5432,-2.5322,-2.5219,-2.5208,-2.521,-2.5212,-2.5207,-2.521,-2.5183,-2.5126,-2.5018,-2.4904,-2.4823,-2.4759,-2.4706,-2.469,-2.469,-2.469,-2.469,-2.469,-2.469,-2.469,-2.469,-2.4692,-2.4681,-2.4615,-2.4539,-2.4507,-2.4508,-2.4509,-2.4509,-2.4509,-2.4509,-2.4509,-2.4509,-2.4509,-2.4509,-2.4509,-2.4509,-2.4509,-2.4509,-2.4509,-2.4509,-2.4509,-2.4509,-2.4509,-2.4509,-2.4509,-2.4509,-2.4509,-2.4509,-2.4509,-2.4509,-2.4509,-2.4509,-2.4474,-2.4394,-2.4394,-2.4321,-2.4257,-2.4238,-2.4247,-2.4228,-2.4228,-2.4218,-2.4199,-2.4199,-2.4199,-2.4208,-2.4208,-2.417,-2.417,-2.4055,-2.3856,-2.3615,-2.3373,-2.3158,-2.2885,-2.2855,-2.2932,-2.3595,-2.456,-2.5505,-2.6014,-2.6189,-2.6413,-2.6988,-2.7135,-2.7159,-2.7246,-2.7306,-2.7315,-2.7315,-2.7315,-2.7315,-2.7315,-2.7315,-2.7118,-2.704,-2.7211,-2.7228,-2.7082,-2.7108,-2.7254,-2.7315,-2.7315,-2.7315,-2.7315,-2.7315,-2.7315,-2.5639,-2.5655,-2.5644,-2.5617,-2.5557,-2.5444,-2.5408,-2.5389,-2.5268,-2.5229,-2.5265,-2.5224,-2.5207,-2.5189,-2.5032,-2.4954,-2.487,-2.4801,-2.4746,-2.4707,-2.469,-2.469,-2.469,-2.469,-2.469,-2.469,-2.469,-2.469,-2.4693,-2.4673,-2.4632,-2.4573,-2.4515,-2.4508,-2.4509,-2.4509,-2.4509,-2.4509,-2.4509,-2.4509,-2.4509,-2.4509,-2.4509,-2.4509,-2.4509,-2.4509,-2.4509,-2.4509,-2.4509,-2.4509,-2.4509,-2.4509,-2.4509,-2.4509,-2.4509,-2.4509,-2.4509,-2.4509,-2.4509,-2.4509,-2.4491,-2.4465,-2.4465,-2.4394,-2.4321,-2.4266,-2.4248,-2.4229,-2.4219,-2.4219,-2.4209,-2.4218,-2.4209,-2.42,-2.42,-2.4218,-2.4218,-2.4162,-2.3968,-2.3744,-2.3509,-2.3239,-2.2974,-2.2825,-2.2976,-2.3402,-2.4103,-2.5117,-2.5816,-2.6014,-2.6473,-2.7057,-2.7118,-2.7075,-2.7228,-2.7315,-2.7315,-2.7315,-2.7315,-2.7315,-2.7315,-2.7315,-2.7315,-2.7315,-2.7315,-2.7315,-2.7289,-2.7315,-2.7315,-2.7315,-2.7315,-2.7315,-2.7315,-2.7315,-2.7315,-2.57,-2.5697,-2.5697,-2.5676,-2.5617,-2.55,-2.5483,-2.5509,-2.5355,-2.5287,-2.5301,-2.5264,-2.5218,-2.5141,-2.4999,-2.4898,-2.4849,-2.4757,-2.47,-2.47,-2.469,-2.469,-2.469,-2.469,-2.469,-2.469,-2.469,-2.469,-2.4693,-2.4647,-2.4599,-2.4599,-2.4524,-2.4508,-2.4509,-2.4509,-2.4509,-2.4509,-2.4509,-2.4509,-2.4509,-2.4509,-2.4509,-2.4509,-2.4509,-2.4509,-2.4509,-2.4509,-2.4509,-2.4509,-2.4509,-2.4509,-2.4509,-2.4509,-2.4509,-2.4509,-2.4509,-2.4509,-2.4509,-2.4509,-2.4509,-2.4509,-2.4509,-2.4465,-2.4402,-2.4348,-2.4312,-2.4275,-2.4247,-2.4238,-2.4238,-2.4228,-2.4209,-2.42,-2.4219,-2.4228,-2.4228,-2.4228,-2.4056,-2.3836,-2.358,-2.3304,-2.3081,-2.294,-2.2951,-2.3305,-2.3926,-2.4873,-2.555,-2.5891,-2.6462,-2.7126,-2.7049,-2.6928,-2.7134,-2.7315,-2.7315,-2.7315,-2.7315,-2.7315,-2.7315,-2.7315,-2.7315,-2.7315,-2.7315,-2.7315,-2.7315,-2.7315,-2.7315,-2.7315,-2.7315,-2.7315,-2.7315,-2.7315,-2.7315,-2.5697,-2.5697,-2.5697,-2.5701,-2.5675,-2.5574,-2.5554,-2.5595,-2.5472,-2.5388,-2.5327,-2.5302,-2.5248,-2.5134,-2.5003,-2.4884,-2.4823,-2.4736,-2.469,-2.469,-2.469,-2.469,-2.469,-2.469,-2.469,-2.469,-2.469,-2.469,-2.4693,-2.4655,-2.4615,-2.4607,-2.4532,-2.4508,-2.4509,-2.4509,-2.4509,-2.4509,-2.4509,-2.4509,-2.4509,-2.4509,-2.4509,-2.4509,-2.4509,-2.4509,-2.4509,-2.4509,-2.4509,-2.4509,-2.4509,-2.4509,-2.4509,-2.4509,-2.4509,-2.4509,-2.4509,-2.4509,-2.4509,-2.4509,-2.4509,-2.4509,-2.4509,-2.4491,-2.4447,-2.442,-2.4385,-2.434,-2.4312,-2.4266,-2.4266,-2.4266,-2.4247,-2.4247,-2.4257,-2.4257,-2.4266,-2.4257,-2.4172,-2.3969,-2.3785,-2.3513,-2.328,-2.3133,-2.311,-2.3324,-2.3972,-2.4898,-2.5533,-2.5971,-2.6519,-2.7227,-2.7134,-2.704,-2.7168,-2.7315,-2.7315,-2.7315,-2.7315,-2.7315,-2.7315,-2.7315,-2.7315,-2.7315,-2.7315,-2.7315,-2.7315,-2.7315,-2.7315,-2.7315,-2.7315,-2.7315,-2.7315,-2.7315,-2.7315,-2.57,-2.5697,-2.5697,-2.5701,-2.5687,-2.5613,-2.559,-2.5605,-2.5576,-2.5519,-2.5466,-2.5387,-2.5293,-2.5164,-2.505,-2.4929,-2.4806,-2.4766,-2.4706,-2.469,-2.469,-2.469,-2.469,-2.469,-2.469,-2.469,-2.469,-2.469,-2.4684,-2.4671,-2.4641,-2.4607,-2.454,-2.4507,-2.4508,-2.4508,-2.4509,-2.4509,-2.4509,-2.4509,-2.4509,-2.4509,-2.4509,-2.4509,-2.4509,-2.4509,-2.4509,-2.4509,-2.4509,-2.4509,-2.4509,-2.4509,-2.4509,-2.4509,-2.4509,-2.4509,-2.4509,-2.4509,-2.4509,-2.4509,-2.4509,-2.4509,-2.4509,-2.4509,-2.4491,-2.4482,-2.4456,-2.4412,-2.4376,-2.433,-2.4303,-2.4303,-2.4303,-2.4303,-2.4303,-2.4303,-2.4303,-2.4284,-2.4275,-2.4144,-2.3979,-2.3774,-2.3526,-2.3389,-2.3371,-2.3789,-2.4478,-2.5265,-2.599,-2.6504,-2.6781,-2.7301,-2.728,-2.7263,-2.7315,-2.7315,-2.7315,-2.7315,-2.7315,-2.7315,-2.7315,-2.7315,-2.7315,-2.7315,-2.7315,-2.7315,-2.7315,-2.7315,-2.7315,-2.7315,-2.7315,-2.7315,-2.7315,-2.7315,-2.7315,-2.5694,-2.57,-2.5698,-2.5679,-2.5639,-2.5607,-2.5602,-2.5609,-2.561,-2.5576,-2.5541,-2.5463,-2.5369,-2.5242,-2.513,-2.4984,-2.4855,-2.4813,-2.4759,-2.4713,-2.469,-2.469,-2.469,-2.469,-2.469,-2.469,-2.469,-2.469,-2.4692,-2.4687,-2.4666,-2.4623,-2.4555,-2.4513,-2.4507,-2.4507,-2.4509,-2.4509,-2.4509,-2.4509,-2.4509,-2.4509,-2.4509,-2.4509,-2.4509,-2.4509,-2.4509,-2.4509,-2.4509,-2.4509,-2.4509,-2.4509,-2.4509,-2.4509,-2.4509,-2.4509,-2.4509,-2.4509,-2.4509,-2.4509,-2.4509,-2.4509,-2.4509,-2.4509,-2.4509,-2.4491,-2.4491,-2.4457,-2.4457,-2.442,-2.4375,-2.4367,-2.4367,-2.4367,-2.4384,-2.4411,-2.4402,-2.4402,-2.4367,-2.4294,-2.4163,-2.4057,-2.3797,-2.354,-2.362,-2.4058,-2.4803,-2.5467,-2.6219,-2.6877,-2.7204,-2.739,-2.736,-2.733,-2.7315,-2.7315,-2.7315,-2.7315,-2.7315,-2.7315,-2.7315,-2.7315,-2.7315,-2.7315,-2.7315,-2.7315,-2.7315,-2.7315,-2.7315,-2.7315,-2.7315,-2.7315,-2.7315,-2.7315,-2.7315,-2.5697,-2.5693,-2.5697,-2.5653,-2.5603,-2.5607,-2.56,-2.5607,-2.5601,-2.5601,-2.5592,-2.5521,-2.5439,-2.5341,-2.524,-2.5088,-2.4959,-2.4883,-2.4813,-2.4766,-2.4715,-2.4698,-2.469,-2.469,-2.469,-2.469,-2.469,-2.469,-2.469,-2.4695,-2.4681,-2.4665,-2.4597,-2.4503,-2.4504,-2.4507,-2.4509,-2.4509,-2.4509,-2.4509,-2.4509,-2.4509,-2.4509,-2.4509,-2.4509,-2.4509,-2.4509,-2.4509,-2.4509,-2.4509,-2.4509,-2.4509,-2.4509,-2.4509,-2.4509,-2.4509,-2.4509,-2.4509,-2.4509,-2.4509,-2.4509,-2.4509,-2.4509,-2.4509,-2.4509,-2.4509,-2.4509,-2.4509,-2.4509,-2.4491,-2.4447,-2.4429,-2.443,-2.443,-2.4456,-2.4482,-2.4482,-2.4482,-2.4447,-2.4403,-2.4358,-2.4275,-2.4221,-2.394,-2.4206,-2.4605,-2.5081,-2.5678,-2.6312,-2.6907,-2.7385,-2.7467,-2.7436,-2.7392,-2.7346,-2.733,-2.733,-2.7315,-2.7315,-2.7315,-2.7315,-2.7315,-2.7315,-2.7315,-2.7315,-2.7315,-2.7315,-2.7315,-2.7315,-2.7315,-2.7315,-2.7315,-2.7315,-2.7315,-2.7315,-2.5693,-2.5698,-2.5698,-2.5652,-2.5601,-2.5604,-2.5605,-2.5604,-2.5601,-2.5601,-2.5598,-2.5579,-2.5507,-2.539,-2.531,-2.5197,-2.5073,-2.4984,-2.4919,-2.487,-2.4764,-2.4721,-2.469,-2.469,-2.469,-2.469,-2.469,-2.469,-2.469,-2.4692,-2.4686,-2.4681,-2.4614,-2.4555,-2.4504,-2.4507,-2.4508,-2.4508,-2.4509,-2.4509,-2.4509,-2.4509,-2.4509,-2.4509,-2.4509,-2.4509,-2.4509,-2.4509,-2.4509,-2.4509,-2.4509,-2.4509,-2.4509,-2.4509,-2.4509,-2.4509,-2.4509,-2.4509,-2.4509,-2.4509,-2.4509,-2.4509,-2.4509,-2.4509,-2.4509,-2.4509,-2.4509,-2.4509,-2.4509,-2.4509,-2.4482,-2.4482,-2.4474,-2.4474,-2.4491,-2.45,-2.45,-2.45,-2.4482,-2.4511,-2.454,-2.4728,-2.5037,-2.5044,-2.5366,-2.5751,-2.6082,-2.663,-2.7008,-2.7331,-2.7565,-2.7565,-2.7542,-2.746,-2.7416,-2.7378,-2.7378,-2.733,-2.7315,-2.7315,-2.7315,-2.7315,-2.7315,-2.7315,-2.7315,-2.7315,-2.7315,-2.7315,-2.7315,-2.7315,-2.7315,-2.7315,-2.7315,-2.7315,-2.7315]},{"header":{"parameterUnit":"m.s-1","parameterCategory":1,"la1":31.0,"la2":29.5877,"lo1":-88.7671,"lo2":-86.6584,"dy":0.0162,"dx":0.0185,"nx":115,"ny":88,"refTime":"2024-06-28T06:00:00:Z","depth":0,"parameterNumber":3,"parameterNumberName":"V-component_of_WINDS"},"data":[0.0,0.0,0.0,0.0,0.0,0.0,0.0,0.0,0.0,0.0,0.0,0.0,0.0,0.0,0.0,0.0,0.0,0.0,0.0,0.0,0.0,0.0,0.0,0.0,0.0,0.0,0.0,0.0,0.0,0.0,0.0,0.0,0.0,0.0,0.0,0.0,0.0,0.0,0.0,0.0,0.0,0.0,0.0,0.0,0.0,0.0,0.0,0.0,0.0,0.0,0.0,0.0,0.0,0.0,0.0,0.0,0.0,0.0,0.0,0.0,0.0,0.0,0.0,0.0,0.0,0.0,0.0,0.0,0.0,0.0,0.0,0.0,0.0,0.0,0.0,0.0,0.0,0.0,0.0,0.0,0.0,0.0,0.0,0.0,0.0,0.0,0.0,0.0,0.0,0.0,0.0,0.0,0.0,0.0,0.0,0.0,0.0,0.0,0.0,0.0,0.0,0.0,0.0,0.0,0.0,0.0,0.0,0.0,0.0,0.0,0.0,0.0,0.0,0.0,0.0,0.0,0.0,0.0,0.0,0.0,0.0,0.0,0.0,0.0,0.0,0.0,0.0,0.0,0.0,0.0,0.0,0.0,0.0,0.0,0.0,0.0,0.0,0.0,0.0,0.0,0.0,0.0,0.0,0.0,0.0,0.0,0.0,0.0,0.0,0.0,0.0,0.0,0.0,0.0,0.0,0.0,0.0,0.0,0.0,0.0,0.0,0.0,0.0,0.0,0.0,0.0,0.0,0.0,0.0,0.0,0.0,0.0,0.0,0.0,0.0,0.0,0.0,0.0,0.0,0.0,0.0,0.0,0.0,0.0,0.0,0.0,0.0,0.0,0.0,0.0,0.0,0.0,0.0,0.0,0.0,0.0,0.0,0.0,0.0,0.0,0.0,0.0,0.0,0.0,0.0,0.0,0.0,0.0,0.0,0.0,0.0,0.0,0.0,0.0,0.0,0.0,0.0,0.0,0.0,0.0,0.0,0.0,0.0,0.0,0.0,0.0,0.0,0.0,0.0,0.0,0.0,0.0,0.0,0.0,0.0,0.0,0.0,0.0,0.0,0.0,0.0,0.0,0.0,0.0,0.0,0.0,0.0,0.0,0.0,0.0,0.0,0.0,0.0,0.0,0.0,0.0,0.0,0.0,0.0,0.0,0.0,0.0,0.0,0.0,0.0,0.0,0.0,0.0,0.0,0.0,0.0,0.0,0.0,0.0,0.0,0.0,0.0,0.0,0.0,0.0,0.0,0.0,0.0,0.0,0.0,0.0,0.0,0.0,0.0,0.0,0.0,0.0,0.0,0.0,0.0,0.0,0.0,0.0,0.0,0.0,0.0,0.0,0.0,0.0,0.0,0.0,0.0,0.0,0.0,0.0,0.0,0.0,0.0,0.0,0.0,0.0,0.0,0.0,0.0,0.0,0.0,0.0,0.0,0.0,0.0,0.0,0.0,0.0,0.0,0.0,0.0,0.0,0.0,0.0,0.0,0.0,0.0,0.0,0.0,0.0,0.0,0.0,0.0,0.0,0.0,0.0,0.0,0.0,0.0,0.0,0.0,0.0,0.0,0.0,0.0,0.0,0.0,0.0,0.0,0.0,0.0,0.0,0.0,0.0,0.0,0.0,0.0,0.0,0.0,0.0,0.0,0.0,0.0,0.0,0.0,0.0,0.0,0.0,0.0,0.0,0.0,0.0,0.0,0.0,0.0,0.0,0.0,0.0,0.0,0.0,0.0,0.0,0.0,0.0,0.0,0.0,0.0,0.0,0.0,0.0,0.0,0.0,0.0,0.0,0.0,0.0,0.0,0.0,0.0,0.0,0.0,0.0,0.0,0.0,0.0,0.0,0.0,0.0,0.0,0.0,0.0,0.0,0.0,0.0,0.0,0.0,0.0,0.0,0.0,0.0,0.0,0.0,0.0,0.0,0.0,0.0,0.0,0.0,0.0,0.0,0.0,0.0,0.0,0.0,0.0,0.0,0.0,0.0,0.0,0.0,0.0,0.0,0.0,0.0,0.0,0.0,0.0,0.0,0.0,0.0,0.0,0.0,0.0,0.0,0.0,0.0,0.0,0.0,0.0,0.0,0.0,0.0,0.0,0.0,0.0,0.0,0.0,0.0,0.0,0.0,0.0,0.0,0.0,0.0,0.0,0.0,0.0,0.0,0.0,0.0,0.0,0.0,0.0,0.0,0.0,0.0,0.0,0.0,0.0,0.0,0.0,0.0,0.0,0.0,0.0,0.0,0.0,0.0,0.0,0.0,0.0,0.0,0.0,0.0,0.0,0.0,0.0,0.0,0.0,0.0,0.0,0.0,0.0,0.0,0.0,0.0,0.0,0.0,0.0,0.0,0.0,0.0,0.0,0.0,0.0,0.0,0.0,0.0,0.0,0.0,0.0,0.0,0.0,0.0,0.0,0.0,0.0,0.0,0.0,0.0,0.0,0.0,0.0,0.0,0.0,0.0,0.0,0.0,0.0,0.0,0.0,0.0,0.0,0.0,0.0,0.0,0.0,0.0,0.0,0.0,0.0,0.0,0.0,0.0,0.0,0.0,0.0,0.0,0.0,0.0,0.0,0.0,0.0,0.0,0.0,0.0,0.0,0.0,0.0,0.0,0.0,0.0,0.0,0.0,0.0,0.0,0.0,0.0,0.0,0.0,0.0,0.0,0.0,0.0,0.0,0.0,0.0,0.0,0.0,0.0,0.0,0.0,0.0,0.0,0.0,0.0,0.0,0.0,0.0,0.0,0.0,0.0,0.0,0.0,0.0,0.0,0.0,0.0,0.0,0.0,0.0,0.0,0.0,0.0,0.0,0.0,0.0,0.0,0.0,0.0,0.0,0.0,0.0,0.0,0.0,0.0,0.0,0.0,0.0,0.0,0.0,0.0,0.0,0.0,0.0,0.0,0.0,0.0,0.0,0.0,0.0,0.0,0.0,0.0,0.0,0.0,0.0,0.0,0.0,0.0,0.0,0.0,0.0,0.0,0.0,0.0,0.0,0.0,0.0,0.0,0.0,0.0,0.0,0.0,0.0,0.0,0.0,0.0,0.0,0.0,0.0,0.0,0.0,0.0,0.0,0.0,0.0,0.0,0.0,0.0,0.0,0.0,0.0,0.0,0.0,0.0,0.0,0.0,0.0,0.0,0.0,0.0,0.0,0.0,0.0,0.0,0.0,0.0,0.0,0.0,0.0,0.0,0.0,0.0,0.0,0.0,0.0,0.0,0.0,0.0,0.0,0.0,0.0,0.0,0.0,0.0,0.0,0.0,0.0,0.0,0.0,0.0,0.0,0.0,0.0,0.0,0.0,0.0,0.0,0.0,0.0,0.0,0.0,0.0,0.0,0.0,0.0,0.0,0.0,0.0,0.0,0.0,0.0,0.0,0.0,0.0,0.0,0.0,0.0,0.0,0.0,0.0,0.0,0.0,0.0,0.0,0.0,0.0,0.0,0.0,0.0,0.0,0.0,0.0,0.0,0.0,0.0,0.0,0.0,0.0,0.0,0.0,0.0,0.0,0.0,0.0,0.0,0.0,0.0,0.0,0.0,0.0,0.0,0.0,0.0,0.0,0.0,0.0,0.0,0.0,0.0,0.0,0.0,0.0,0.0,0.0,0.0,0.0,0.0,0.0,0.0,0.0,0.0,0.0,0.0,0.0,0.0,0.0,0.0,0.0,0.0,0.0,0.0,0.0,0.0,0.0,0.0,0.0,0.0,0.0,0.0,0.0,0.0,0.0,0.0,0.0,0.0,0.0,0.0,0.0,0.0,0.0,0.0,0.0,0.0,0.0,0.0,0.0,0.0,0.0,0.0,0.0,0.0,0.0,0.0,0.0,0.0,0.0,0.0,0.0,0.0,0.0,0.0,0.0,0.0,0.0,0.0,0.0,0.0,0.0,0.0,0.0,0.0,0.0,0.0,0.0,0.0,0.0,0.0,0.0,0.0,0.0,0.0,0.0,0.0,0.0,0.0,0.0,0.0,0.0,0.0,0.0,0.0,0.0,0.0,0.0,0.0,0.0,0.0,0.0,0.0,0.0,0.0,0.0,0.0,0.0,0.0,0.0,0.0,0.0,0.0,0.0,0.0,0.0,0.0,0.0,0.0,0.0,0.0,0.0,0.0,0.0,0.0,0.0,0.0,0.0,0.0,0.0,0.0,0.0,0.0,0.0,0.0,0.0,0.0,0.0,0.0,0.0,0.0,0.0,0.0,0.0,0.0,0.0,0.0,0.0,0.0,0.0,0.0,0.0,0.0,0.0,0.0,0.0,0.0,0.0,-0.3602,0.0,0.0,0.0,0.0,0.0,0.0,0.0,0.0,0.0,0.0,0.0,0.0,0.0,0.0,0.0,0.0,0.0,0.0,0.0,0.0,0.0,0.0,0.0,0.0,0.0,0.0,0.0,0.0,0.0,0.0,0.0,0.0,0.0,0.0,0.0,0.0,0.0,0.0,0.0,0.0,0.0,0.0,0.0,0.0,0.0,0.0,0.0,0.0,0.0,0.0,0.0,0.0,0.0,0.0,0.0,0.0,0.0,0.0,0.0,0.0,0.0,0.0,0.0,0.0,0.0,0.0,0.0,0.0,0.0,0.0,0.0,0.0,0.0,0.0,0.0,0.0,0.0,0.0,0.0,0.0,0.0,0.0,0.0,0.0,0.0,0.0,0.0,0.0,0.0,0.0,0.0,0.0,0.0,0.0,0.0,0.0,0.0,0.0,0.0,0.0,0.0,0.0,0.0,0.0,0.0,0.0,0.0,0.0,0.0,0.0,-0.366,-0.3744,-0.3877,-0.385,-0.3598,0.0,0.0,0.0,0.0,0.0,0.0,0.0,0.0,0.0,0.0,0.0,0.0,0.0,0.0,0.0,0.0,0.0,0.0,0.0,0.0,0.0,0.0,0.0,0.0,0.0,0.0,0.0,0.0,0.0,0.0,0.0,0.0,0.0,0.0,0.0,0.0,0.0,0.0,0.0,0.0,0.0,0.0,0.0,0.0,0.0,0.0,0.0,0.0,0.0,0.0,0.0,0.0,0.0,0.0,0.0,0.0,0.0,0.0,0.0,0.0,0.0,0.0,0.0,0.0,0.0,0.0,0.0,0.0,0.0,0.0,0.0,0.0,0.0,0.0,0.0,0.0,0.0,0.0,0.0,0.0,0.0,0.0,0.0,0.0,0.0,0.0,0.0,0.0,0.0,0.0,0.0,0.0,0.0,0.0,0.0,0.0,0.0,0.0,0.0,0.0,0.0,0.0,0.0,0.0,0.0,0.0,0.0,0.0,0.0,0.0,0.0,0.0,-0.393,-0.3927,-0.3768,0.0,0.0,0.0,0.0,0.0,0.0,0.0,0.0,0.0,0.0,0.0,0.0,0.0,0.0,0.0,0.0,0.0,0.0,0.0,0.0,0.0,0.0,0.0,0.0,0.0,0.0,0.0,0.0,0.0,0.0,0.0,0.0,0.0,0.0,0.0,0.0,0.0,0.0,0.0,0.0,0.0,0.0,0.0,0.0,0.0,0.0,0.0,0.0,0.0,0.0,0.0,0.0,0.0,0.0,0.0,0.0,0.0,0.0,0.0,0.0,0.0,0.0,0.0,0.0,0.0,0.0,0.0,0.0,0.0,0.0,0.0,0.0,0.0,0.0,0.0,0.0,0.0,0.0,0.0,0.0,0.0,0.0,0.0,0.0,0.0,0.0,0.0,0.0,0.0,0.0,0.0,0.0,0.0,0.0,0.0,0.0,0.0,0.0,0.0,0.0,0.0,0.0,0.0,0.0,0.0,0.0,0.0,0.0,0.0,0.0,-0.4483,-0.4423,-0.4705,0.0,-0.4617,0.0,0.0,0.0,0.0,0.0,0.0,0.0,0.0,0.0,0.0,0.0,0.0,0.0,0.0,0.0,0.0,0.0,0.0,0.0,0.0,0.0,0.0,0.0,0.0,0.0,0.0,0.0,0.0,0.0,0.0,0.0,0.0,0.0,0.0,0.0,0.0,0.0,0.0,0.0,0.0,0.0,0.0,0.0,0.0,0.0,0.0,0.0,0.0,0.0,0.0,0.0,0.0,0.0,0.0,0.0,0.0,0.0,0.0,0.0,0.0,0.0,0.0,0.0,0.0,0.0,0.0,0.0,0.0,0.0,0.0,0.0,0.0,0.0,0.0,0.0,0.0,0.0,0.0,0.0,0.0,0.0,0.0,0.0,0.0,0.0,0.0,0.0,0.0,0.0,0.0,0.0,0.0,0.0,0.0,0.0,0.0,0.0,0.0,0.0,0.0,0.0,0.0,0.0,0.0,0.0,0.0,0.0,0.0,0.0,0.0,0.0,-0.4145,-0.4163,-0.4393,0.0,0.0,0.0,0.0,0.0,0.0,0.0,0.0,0.0,0.0,0.0,0.0,0.0,0.0,0.0,0.0,0.0,0.0,0.0,0.0,0.0,0.0,0.0,0.0,0.0,0.0,0.0,0.0,0.0,0.0,0.0,0.0,0.0,0.0,0.0,0.0,0.0,0.0,0.0,0.0,0.0,0.0,0.0,0.0,0.0,0.0,0.0,0.0,0.0,0.0,0.0,0.0,0.0,0.0,0.0,0.0,0.0,0.0,0.0,0.0,0.0,0.0,0.0,0.0,0.0,0.0,0.0,0.0,0.0,0.0,0.0,0.0,0.0,0.0,0.0,0.0,0.0,0.0,0.0,0.0,0.0,0.0,0.0,0.0,0.0,0.0,0.0,0.0,0.0,0.0,0.0,0.0,0.0,0.0,0.0,0.0,0.0,0.0,0.0,0.0,0.0,0.0,0.0,0.0,0.0,0.0,0.0,0.0,0.0,0.0,-0.5102,0.0,-0.4485,-0.4345,-0.4545,-0.5096,0.0,0.0,0.0,0.0,0.0,0.0,0.0,0.0,0.0,0.0,0.0,0.0,0.0,0.0,0.0,0.0,0.0,0.0,0.0,0.0,0.0,0.0,0.0,0.0,0.0,0.0,0.0,0.0,0.0,0.0,0.0,0.0,0.0,0.0,0.0,0.0,0.0,0.0,0.0,0.0,0.0,0.0,0.0,0.0,0.0,0.0,0.0,0.0,0.0,0.0,0.0,0.0,0.0,0.0,0.0,0.0,0.0,0.0,0.0,0.0,0.0,0.0,0.0,0.0,0.0,0.0,0.0,0.0,0.0,0.0,0.0,0.0,0.0,0.0,0.0,0.0,0.0,0.0,0.0,0.0,0.0,0.0,0.0,0.0,0.0,0.0,0.0,0.0,0.0,0.0,0.0,0.0,0.0,0.0,0.0,0.0,0.0,0.0,0.0,0.0,0.0,0.0,0.0,0.0,0.0,0.0,0.0,0.0,0.0,-0.5612,-0.5732,-0.5882,-0.5901,-0.5736,0.0,0.0,0.0,0.0,0.0,0.0,0.0,0.0,0.0,0.0,0.0,0.0,0.0,0.0,0.0,0.0,0.0,0.0,0.0,0.0,0.0,0.0,0.0,0.0,0.0,0.0,0.0,0.0,0.0,0.0,0.0,0.0,0.0,0.0,0.0,0.0,0.0,0.0,0.0,0.0,0.0,0.0,0.0,0.0,0.0,0.0,0.0,0.0,0.0,0.0,0.0,0.0,0.0,0.0,0.0,0.0,0.0,0.0,0.0,0.0,0.0,0.0,0.0,0.0,0.0,0.0,0.0,0.0,0.0,0.0,0.0,0.0,0.0,0.0,0.0,0.0,0.0,0.0,0.0,0.0,0.0,0.0,0.0,0.0,0.0,0.0,0.0,0.0,0.0,0.0,0.0,0.0,0.0,0.0,0.0,0.0,0.0,0.0,0.0,0.0,0.0,0.0,0.0,0.0,0.0,0.0,0.0,0.0,0.0,-0.5646,-0.5435,-0.5681,-0.6388,-0.5577,-0.5274,0.0,0.0,0.0,0.0,0.0,0.0,0.0,0.0,0.0,0.0,0.0,0.0,0.0,0.0,0.0,0.0,0.0,0.0,0.0,0.0,0.0,0.0,0.0,0.0,0.0,0.0,0.0,0.0,0.0,0.0,0.0,0.0,0.0,0.0,0.0,0.0,0.0,0.0,0.0,0.0,0.0,0.0,0.0,0.0,0.0,0.0,0.0,0.0,0.0,0.0,0.0,0.0,0.0,0.0,0.0,0.0,0.0,0.0,0.0,0.0,0.0,0.0,0.0,0.0,0.0,0.0,0.0,0.0,0.0,0.0,0.0,0.0,0.0,0.0,0.0,0.0,0.0,0.0,0.0,0.0,0.0,0.0,0.0,0.0,0.0,0.0,0.0,0.0,0.0,0.0,0.0,0.0,0.0,0.0,0.0,0.0,0.0,0.0,0.0,0.0,0.0,0.0,0.0,0.0,0.0,0.0,0.0,0.0,0.0,-0.5908,0.0,-0.5926,0.0,-0.5606,-0.5213,0.0,0.0,0.0,0.0,0.0,0.0,0.0,0.0,0.0,0.0,0.0,0.0,0.0,0.0,0.0,0.0,0.0,0.0,0.0,0.0,0.0,0.0,0.0,0.0,0.0,0.0,0.0,0.0,0.0,0.0,0.0,0.0,0.0,0.0,0.0,0.0,0.0,0.0,0.0,0.0,0.0,0.0,0.0,0.0,0.0,0.0,0.0,0.0,0.0,0.0,0.0,0.0,0.0,0.0,0.0,0.0,0.0,0.0,0.0,0.0,0.0,0.0,0.0,0.0,0.0,0.0,0.0,0.0,0.0,0.0,0.0,0.0,0.0,0.0,0.0,0.0,0.0,0.0,0.0,0.0,0.0,0.0,0.0,0.0,0.0,0.0,0.0,0.0,0.0,0.0,0.0,0.0,0.0,0.0,0.0,0.0,0.0,0.0,0.0,0.0,0.0,0.0,0.0,0.0,0.0,0.0,0.0,0.0,-0.599,-0.6388,-0.6567,-0.6578,-0.6431,-0.6137,-0.5704,0.0,0.0,0.0,0.0,0.0,0.0,0.0,0.0,0.0,0.0,0.0,0.0,0.0,0.0,0.0,0.0,0.0,0.0,0.0,0.0,0.0,0.0,0.0,0.0,0.0,0.0,0.0,0.0,0.0,0.0,0.0,0.0,0.0,0.0,0.0,0.0,0.0,0.0,0.0,0.0,0.0,0.0,0.0,0.0,0.0,0.0,0.0,0.0,0.0,0.0,0.0,0.0,0.0,0.0,0.0,0.0,0.0,0.0,0.0,0.0,0.0,0.0,0.0,0.0,0.0,0.0,0.0,0.0,0.0,0.0,0.0,0.0,0.0,0.0,0.0,0.0,0.0,0.0,0.0,0.0,0.0,0.0,0.0,0.0,0.0,0.0,0.0,0.0,0.0,0.0,0.0,0.0,0.0,0.0,0.0,0.0,0.0,0.0,0.0,0.0,0.0,0.0,0.0,0.0,0.0,0.0,0.0,0.0,0.0,-0.6143,-0.6371,-0.6621,-0.6784,-0.6286,-0.5936,0.0,0.0,0.0,0.0,0.0,0.0,0.0,0.0,0.0,0.0,0.0,0.0,0.0,0.0,0.0,0.0,0.0,0.0,0.0,0.0,0.0,0.0,0.0,0.0,0.0,0.0,0.0,0.0,0.0,0.0,0.0,0.0,0.0,0.0,0.0,0.0,0.0,0.0,0.0,0.0,0.0,0.0,0.0,0.0,0.0,0.0,0.0,0.0,0.0,0.0,0.0,0.0,0.0,0.0,0.0,0.0,0.0,0.0,0.0,0.0,0.0,0.0,0.0,0.0,0.0,0.0,0.0,0.0,0.0,0.0,0.0,0.0,0.0,0.0,0.0,0.0,0.0,0.0,0.0,0.0,0.0,0.0,0.0,0.0,0.0,0.0,0.0,0.0,0.0,0.0,0.0,0.0,0.0,0.0,0.0,0.0,0.0,0.0,0.0,0.0,0.0,0.0,0.0,0.0,0.0,0.0,0.0,0.0,0.0,-0.6469,-0.6676,-0.6912,-0.7073,-0.6484,-0.6135,-0.6087,0.0,0.0,0.0,0.0,0.0,0.0,0.0,0.0,0.0,0.0,0.0,0.0,0.0,0.0,0.0,0.0,0.0,0.0,0.0,0.0,0.0,0.0,0.0,0.0,0.0,0.0,0.0,0.0,0.0,0.0,0.0,0.0,0.0,0.0,0.0,0.0,0.0,0.0,0.0,0.0,0.0,0.0,0.0,0.0,0.0,0.0,0.0,0.0,0.0,0.0,0.0,0.0,0.0,0.0,0.0,0.0,0.0,0.0,0.0,0.0,0.0,0.0,0.0,0.0,0.0,0.0,0.0,0.0,0.0,0.0,0.0,0.0,0.0,0.0,0.0,0.0,0.0,0.0,0.0,0.0,0.0,0.0,0.0,0.0,0.0,0.0,0.0,0.0,0.0,0.0,0.0,0.0,0.0,0.0,0.0,0.0,0.0,0.0,0.0,0.0,0.0,0.0,0.0,0.0,0.0,0.0,0.0,0.0,-0.7206,-0.7418,-0.7433,-0.7235,-0.6732,-0.6324,0.0,0.0,0.0,0.0,0.0,0.0,0.0,0.0,0.0,0.0,0.0,0.0,0.0,0.0,0.0,0.0,0.0,0.0,0.0,0.0,0.0,0.0,0.0,0.0,0.0,0.0,0.0,0.0,0.0,0.0,0.0,0.0,0.0,0.0,0.0,0.0,0.0,0.0,0.0,0.0,0.0,0.0,0.0,0.0,0.0,0.0,0.0,0.0,0.0,0.0,0.0,0.0,0.0,0.0,0.0,0.0,0.0,0.0,0.0,0.0,0.0,0.0,0.0,0.0,0.0,0.0,0.0,0.0,0.0,0.0,0.0,0.0,0.0,0.0,0.0,0.0,0.0,0.0,0.0,0.0,0.0,0.0,0.0,0.0,0.0,0.0,0.0,0.0,0.0,0.0,0.0,0.0,0.0,0.0,0.0,0.0,0.0,0.0,0.0,0.0,0.0,0.0,0.0,0.0,0.0,0.0,0.0,0.0,0.0,-0.7265,-0.7603,-0.7732,-0.7568,-0.7056,-0.6716,0.0,0.0,0.0,0.0,0.0,0.0,0.0,0.0,0.0,0.0,0.0,0.0,0.0,0.0,0.0,0.0,0.0,0.0,0.0,0.0,0.0,0.0,0.0,0.0,0.0,0.0,0.0,0.0,0.0,0.0,0.0,0.0,0.0,0.0,0.0,0.0,0.0,0.0,0.0,0.0,0.0,0.0,0.0,0.0,0.0,0.0,0.0,0.0,0.0,0.0,0.0,0.0,0.0,0.0,0.0,0.0,0.0,0.0,0.0,0.0,0.0,0.0,0.0,0.0,0.0,0.0,0.0,0.0,0.0,0.0,0.0,0.0,0.0,0.0,0.0,0.0,0.0,0.0,0.0,0.0,0.0,0.0,0.0,0.0,0.0,0.0,0.0,0.0,0.0,0.0,0.0,0.0,0.0,0.0,0.0,0.0,0.0,0.0,0.0,0.0,0.0,0.0,0.0,0.0,0.0,0.0,0.0,0.0,-0.7216,-0.7558,-0.7794,-0.7872,-0.7785,-0.7415,-0.7122,0.0,0.0,0.0,0.0,0.0,0.0,0.0,0.0,0.0,0.0,0.0,0.0,0.0,0.0,0.0,0.0,0.0,0.0,0.0,0.0,0.0,0.0,0.0,0.0,0.0,0.0,0.0,0.0,0.0,0.0,0.0,0.0,0.0,0.0,0.0,0.0,0.0,0.0,0.0,0.0,0.0,0.0,0.0,0.0,0.0,0.0,0.0,0.0,0.0,0.0,0.0,0.0,0.0,0.0,0.0,0.0,0.0,0.0,0.0,0.0,0.0,0.0,0.0,0.0,0.0,0.0,0.0,0.0,0.0,0.0,0.0,0.0,0.0,0.0,0.0,0.0,0.0,0.0,0.0,0.0,0.0,0.0,0.0,0.0,0.0,0.0,0.0,0.0,0.0,0.0,0.0,0.0,0.0,0.0,0.0,0.0,0.0,0.0,0.0,0.0,0.0,0.0,0.0,0.0,0.0,0.0,0.0,0.0,-0.743,-0.7847,-0.7892,-0.7904,-0.7895,-0.7712,-0.7473,0.0,0.0,0.0,0.0,0.0,0.0,0.0,0.0,0.0,0.0,0.0,0.0,0.0,0.0,0.0,0.0,0.0,0.0,0.0,0.0,0.0,0.0,0.0,0.0,0.0,0.0,0.0,0.0,0.0,0.0,0.0,0.0,0.0,0.0,0.0,0.0,0.0,0.0,0.0,0.0,0.0,0.0,0.0,0.0,0.0,0.0,0.0,0.0,0.0,0.0,0.0,0.0,0.0,0.0,0.0,0.0,0.0,0.0,0.0,0.0,0.0,0.0,0.0,0.0,0.0,0.0,0.0,0.0,0.0,0.0,0.0,0.0,0.0,0.0,0.0,0.0,0.0,0.0,0.0,0.0,0.0,0.0,0.0,0.0,0.0,0.0,0.0,0.0,0.0,0.0,0.0,0.0,0.0,0.0,0.0,0.0,0.0,0.0,0.0,0.0,0.0,0.0,0.0,0.0,0.0,0.0,0.0,0.0,-0.7565,-0.7651,-0.782,-0.7904,-0.7904,-0.7712,-0.747,0.0,0.0,0.0,0.0,0.0,0.0,0.0,0.0,0.0,0.0,0.0,0.0,0.0,0.0,0.0,0.0,0.0,0.0,0.0,0.0,0.0,0.0,0.0,0.0,0.0,0.0,0.0,0.0,0.0,0.0,0.0,0.0,0.0,0.0,0.0,0.0,0.0,0.0,0.0,0.0,0.0,0.0,0.0,0.0,0.0,0.0,0.0,0.0,-0.5379,0.0,0.0,0.0,0.0,0.0,0.0,0.0,0.0,0.0,0.0,0.0,0.0,0.0,0.0,0.0,0.0,0.0,0.0,0.0,0.0,0.0,0.0,0.0,0.0,0.0,0.0,0.0,0.0,0.0,0.0,0.0,0.0,0.0,0.0,0.0,0.0,0.0,0.0,0.0,0.0,0.0,0.0,0.0,0.0,0.0,0.0,0.0,0.0,0.0,0.0,0.0,0.0,0.0,0.0,0.0,0.0,0.0,0.0,0.0,-0.7633,-0.776,-0.7853,-0.8029,-0.8312,-0.8219,-0.7948,0.0,0.0,0.0,0.0,0.0,0.0,0.0,0.0,0.0,0.0,0.0,0.0,0.0,0.0,0.0,0.0,0.0,0.0,0.0,0.0,0.0,0.0,0.0,0.0,0.0,0.0,0.0,0.0,0.0,0.0,0.0,0.0,0.0,0.0,0.0,0.0,0.0,0.0,0.0,0.0,0.0,0.0,0.0,0.0,0.0,0.0,0.0,0.0,0.0,0.0,0.0,0.0,0.0,0.0,0.0,0.0,0.0,0.0,0.0,0.0,0.0,0.0,0.0,0.0,0.0,0.0,0.0,0.0,0.0,0.0,0.0,0.0,0.0,0.0,0.0,0.0,0.0,0.0,0.0,0.0,0.0,0.0,0.0,0.0,0.0,0.0,0.0,0.0,0.0,0.0,0.0,0.0,0.0,0.0,0.0,0.0,0.0,0.0,0.0,0.0,0.0,0.0,0.0,0.0,0.0,0.0,0.0,-0.748,-0.7703,-0.7889,-0.7904,-0.8159,-0.8646,-0.8682,-0.8457,-0.7933,0.0,0.0,0.0,0.0,0.0,0.0,0.0,0.0,0.0,0.0,0.0,0.0,0.0,0.0,0.0,0.0,0.0,0.0,0.0,0.0,0.0,0.0,0.0,0.0,0.0,0.0,0.0,0.0,0.0,0.0,0.0,0.0,0.0,0.0,0.0,0.0,0.0,0.0,-0.4845,-0.5024,0.0,0.0,0.0,0.0,0.0,0.0,0.0,0.0,-0.7253,0.0,0.0,0.0,0.0,0.0,0.0,0.0,0.0,0.0,0.0,0.0,0.0,0.0,0.0,0.0,0.0,0.0,0.0,0.0,0.0,0.0,0.0,0.0,0.0,0.0,0.0,0.0,0.0,0.0,0.0,0.0,0.0,0.0,0.0,0.0,0.0,0.0,0.0,0.0,0.0,0.0,0.0,0.0,0.0,0.0,0.0,0.0,0.0,0.0,0.0,0.0,0.0,0.0,0.0,0.0,0.0,-0.7541,-0.7571,-0.7674,-0.7892,-0.7904,-0.7955,-0.8052,-0.822,-0.8306,-0.8378,0.0,0.0,0.0,0.0,0.0,0.0,0.0,0.0,0.0,0.0,0.0,0.0,0.0,0.0,0.0,0.0,0.0,0.0,0.0,0.0,0.0,0.0,0.0,0.0,0.0,0.0,0.0,0.0,0.0,0.0,0.0,0.0,0.0,0.0,0.0,0.0,0.0,0.0,0.0,-0.6714,-0.6977,0.0,0.0,0.0,0.0,0.0,0.0,0.0,0.0,-0.778,0.0,0.0,0.0,0.0,0.0,0.0,0.0,0.0,0.0,0.0,0.0,0.0,0.0,0.0,0.0,0.0,0.0,0.0,0.0,0.0,0.0,0.0,0.0,0.0,0.0,0.0,0.0,0.0,0.0,0.0,0.0,0.0,0.0,0.0,0.0,0.0,0.0,0.0,0.0,0.0,0.0,0.0,0.0,0.0,0.0,0.0,0.0,0.0,0.0,0.0,0.0,0.0,0.0,0.0,0.0,-0.7355,-0.7639,-0.797,-0.8332,-0.8391,-0.8629,-0.9171,-0.9127,-0.9158,0.0,0.0,0.0,0.0,0.0,0.0,0.0,0.0,0.0,0.0,0.0,0.0,0.0,0.0,0.0,0.0,0.0,0.0,0.0,0.0,0.0,0.0,0.0,0.0,0.0,0.0,0.0,0.0,0.0,0.0,0.0,0.0,0.0,0.0,0.0,0.0,0.0,0.0,0.0,0.0,-0.717,-0.7447,-0.7839,0.0,0.0,0.0,0.0,0.0,0.0,-0.7838,-0.7904,0.0,0.0,0.0,0.0,0.0,0.0,0.0,0.0,0.0,0.0,0.0,0.0,0.0,0.0,0.0,0.0,0.0,0.0,0.0,0.0,0.0,0.0,0.0,0.0,0.0,0.0,0.0,0.0,0.0,0.0,0.0,0.0,0.0,0.0,0.0,0.0,0.0,0.0,0.0,0.0,0.0,0.0,0.0,0.0,0.0,0.0,0.0,0.0,0.0,0.0,0.0,0.0,0.0,0.0,0.0,-0.7039,-0.7673,-0.823,-0.8713,-0.8878,-0.9348,-1.0081,-0.9903,-0.9753,0.0,0.0,0.0,0.0,0.0,0.0,0.0,0.0,0.0,0.0,0.0,0.0,0.0,0.0,0.0,0.0,0.0,0.0,0.0,0.0,0.0,0.0,0.0,0.0,0.0,0.0,0.0,0.0,0.0,0.0,0.0,0.0,0.0,0.0,0.0,0.0,0.0,0.0,0.0,0.0,0.0,-0.7584,-0.7842,-0.7904,0.0,0.0,0.0,0.0,-0.7904,-0.7904,0.0,0.0,0.0,0.0,0.0,0.0,0.0,0.0,0.0,0.0,0.0,0.0,0.0,0.0,0.0,0.0,0.0,0.0,0.0,0.0,0.0,0.0,0.0,0.0,0.0,0.0,0.0,0.0,0.0,0.0,0.0,0.0,0.0,0.0,0.0,0.0,0.0,0.0,0.0,0.0,0.0,0.0,0.0,0.0,0.0,0.0,0.0,0.0,0.0,0.0,0.0,0.0,0.0,0.0,0.0,0.0,-0.6538,-0.7736,-0.8365,-0.8479,-0.9131,-0.9394,-0.9175,-0.9293,-0.9068,0.0,0.0,0.0,0.0,0.0,0.0,0.0,0.0,0.0,0.0,0.0,0.0,0.0,0.0,0.0,0.0,0.0,0.0,0.0,0.0,0.0,0.0,0.0,0.0,0.0,0.0,0.0,0.0,0.0,0.0,0.0,0.0,0.0,0.0,0.0,0.0,0.0,0.0,0.0,0.0,0.0,-0.7862,-0.7898,-0.7904,-0.7904,0.0,0.0,-0.7904,-0.7904,-0.7904,0.0,0.0,0.0,0.0,0.0,0.0,0.0,0.0,0.0,0.0,0.0,0.0,0.0,0.0,0.0,0.0,0.0,0.0,0.0,0.0,0.0,0.0,0.0,0.0,0.0,0.0,0.0,0.0,0.0,0.0,0.0,0.0,0.0,0.0,0.0,0.0,0.0,0.0,0.0,0.0,0.0,0.0,0.0,0.0,0.0,0.0,0.0,0.0,0.0,0.0,0.0,0.0,0.0,0.0,0.0,-0.6212,-0.6697,-0.7593,-0.8228,-0.8576,-0.9134,-0.9475,-0.9636,-0.9536,-0.922,0.0,0.0,0.0,0.0,0.0,0.0,0.0,0.0,0.0,0.0,0.0,0.0,0.0,0.0,0.0,0.0,0.0,0.0,0.0,0.0,0.0,0.0,0.0,0.0,0.0,0.0,0.0,0.0,0.0,0.0,0.0,0.0,0.0,0.0,0.0,0.0,0.0,0.0,0.0,0.0,0.0,0.0,-0.7955,-0.8189,0.0,0.0,0.0,-0.7904,-0.7904,0.0,0.0,0.0,0.0,0.0,0.0,0.0,0.0,0.0,0.0,0.0,0.0,0.0,0.0,0.0,0.0,0.0,0.0,0.0,0.0,0.0,0.0,0.0,0.0,0.0,0.0,0.0,0.0,0.0,0.0,0.0,0.0,0.0,0.0,0.0,0.0,0.0,0.0,0.0,0.0,0.0,0.0,0.0,0.0,0.0,0.0,0.0,0.0,0.0,0.0,0.0,0.0,0.0,0.0,0.0,0.0,0.0,-0.6701,-0.757,-0.8211,-0.8611,-0.9178,-0.967,-0.9956,-0.9743,0.0,0.0,0.0,0.0,0.0,0.0,0.0,0.0,0.0,0.0,0.0,0.0,0.0,0.0,0.0,0.0,0.0,0.0,0.0,0.0,0.0,0.0,0.0,0.0,0.0,0.0,0.0,-0.6927,0.0,0.0,0.0,0.0,0.0,0.0,0.0,0.0,0.0,0.0,0.0,0.0,0.0,0.0,-0.862,-0.8185,-0.8391,-0.8412,0.0,0.0,-0.7904,-0.7904,-0.7952,-0.8159,0.0,0.0,0.0,0.0,0.0,0.0,0.0,0.0,0.0,0.0,0.0,0.0,0.0,0.0,0.0,0.0,0.0,0.0,0.0,0.0,0.0,0.0,0.0,0.0,0.0,0.0,0.0,0.0,0.0,0.0,0.0,0.0,0.0,0.0,0.0,0.0,0.0,0.0,0.0,0.0,0.0,0.0,0.0,0.0,0.0,0.0,0.0,0.0,0.0,0.0,0.0,0.0,0.0,0.0,0.0,-0.6193,-0.7802,-0.8528,-0.8368,-0.9461,-0.9912,-0.9658,-0.9615,-0.9097,0.0,0.0,0.0,0.0,0.0,0.0,0.0,0.0,0.0,0.0,0.0,0.0,0.0,0.0,0.0,0.0,0.0,0.0,0.0,0.0,0.0,0.0,0.0,0.0,0.0,0.0,0.0,0.0,0.0,0.0,0.0,0.0,0.0,0.0,0.0,0.0,0.0,0.0,0.0,0.0,0.0,-0.8801,-0.8751,-0.8289,-0.7952,0.0,0.0,-0.7904,-0.7904,-0.8062,-0.8321,-0.8748,0.0,0.0,0.0,0.0,0.0,0.0,0.0,0.0,0.0,0.0,0.0,0.0,0.0,0.0,0.0,0.0,0.0,0.0,0.0,0.0,0.0,0.0,0.0,0.0,0.0,0.0,0.0,0.0,0.0,0.0,0.0,0.0,0.0,0.0,0.0,0.0,0.0,0.0,0.0,0.0,0.0,0.0,0.0,0.0,0.0,0.0,0.0,0.0,0.0,0.0,0.0,0.0,0.0,-0.6147,-0.6475,-0.7768,-0.8427,-0.8409,-0.9313,-0.9611,-0.9251,-0.9222,-0.8799,0.0,0.0,0.0,0.0,0.0,0.0,0.0,0.0,0.0,0.0,0.0,0.0,0.0,0.0,0.0,0.0,0.0,0.0,0.0,0.0,0.0,0.0,0.0,0.0,0.0,0.0,0.0,0.0,-0.8045,-0.8242,-0.8746,0.0,0.0,0.0,0.0,0.0,0.0,0.0,0.0,0.0,0.0,-0.9666,-0.935,-0.9383,0.0,0.0,-0.8968,-0.8965,-0.8939,-0.8791,-0.8979,-0.9769,-0.9514,0.0,0.0,0.0,0.0,0.0,0.0,0.0,0.0,0.0,0.0,0.0,0.0,0.0,0.0,0.0,0.0,0.0,0.0,0.0,0.0,0.0,0.0,0.0,0.0,0.0,0.0,0.0,0.0,0.0,0.0,0.0,0.0,0.0,0.0,0.0,0.0,0.0,0.0,0.0,0.0,0.0,0.0,0.0,0.0,0.0,0.0,0.0,0.0,0.0,0.0,0.0,0.0,-0.6503,-0.7037,-0.7983,-0.85,-0.8553,-0.9227,-0.9478,-0.9188,-0.906,-0.8701,0.0,0.0,0.0,0.0,0.0,0.0,0.0,0.0,0.0,0.0,0.0,0.0,0.0,0.0,0.0,0.0,0.0,0.0,0.0,0.0,0.0,0.0,0.0,0.0,0.0,0.0,0.0,0.0,-0.8568,-0.874,-0.897,0.0,0.0,0.0,0.0,0.0,0.0,0.0,0.0,0.0,0.0,-1.0271,-0.9902,-1.0035,-1.001,-0.9644,-0.9618,-0.9618,-0.9618,-0.9541,-0.9735,-1.0488,0.0,0.0,0.0,0.0,0.0,0.0,0.0,0.0,0.0,0.0,0.0,0.0,0.0,0.0,0.0,0.0,0.0,0.0,0.0,0.0,0.0,0.0,0.0,0.0,0.0,0.0,0.0,0.0,0.0,0.0,-0.7797,0.0,0.0,0.0,0.0,0.0,0.0,0.0,0.0,0.0,0.0,0.0,0.0,0.0,0.0,0.0,0.0,0.0,0.0,0.0,0.0,0.0,0.0,0.0,-0.7771,-0.8503,-0.8891,-0.8919,-0.9349,-0.9606,-0.9564,-0.9221,-0.8836,-0.8499,0.0,0.0,0.0,0.0,0.0,0.0,0.0,0.0,0.0,0.0,0.0,0.0,0.0,0.0,0.0,0.0,0.0,0.0,0.0,0.0,0.0,0.0,0.0,0.0,0.0,0.0,-0.8407,-0.8804,-0.8999,0.0,0.0,0.0,0.0,0.0,0.0,0.0,0.0,0.0,0.0,-1.0511,-1.0429,-1.0407,-0.9984,-0.9706,-0.9688,-0.9658,-0.9655,-0.9692,-1.0155,-1.0577,0.0,0.0,0.0,0.0,0.0,0.0,0.0,0.0,0.0,0.0,0.0,0.0,0.0,0.0,0.0,0.0,0.0,0.0,0.0,0.0,0.0,0.0,0.0,0.0,0.0,0.0,0.0,-0.8644,-0.8579,0.0,0.0,0.0,0.0,0.0,0.0,0.0,0.0,0.0,0.0,0.0,-0.8119,-0.7957,0.0,0.0,0.0,0.0,0.0,0.0,0.0,0.0,0.0,0.0,0.0,0.0,-0.7412,-0.8262,-0.8939,-0.9324,-0.9361,-0.9719,-0.97,-0.9218,-0.9064,-0.884,-0.8497,0.0,0.0,0.0,0.0,0.0,0.0,0.0,0.0,0.0,0.0,0.0,0.0,0.0,0.0,0.0,0.0,0.0,0.0,0.0,0.0,0.0,0.0,0.0,0.0,0.0,-0.8205,0.0,0.0,0.0,0.0,0.0,0.0,0.0,0.0,0.0,0.0,0.0,-1.079,-1.1082,-1.1044,-1.1128,-1.1471,-1.1391,-1.1388,0.0,0.0,0.0,0.0,0.0,0.0,0.0,0.0,0.0,0.0,0.0,0.0,0.0,0.0,-1.2216,-1.1949,-1.1788,-1.1687,-1.1692,0.0,0.0,0.0,0.0,0.0,0.0,0.0,0.0,0.0,0.0,0.0,0.0,0.0,0.0,-0.9063,0.0,-0.8733,0.0,0.0,0.0,0.0,0.0,0.0,0.0,0.0,-0.8939,-0.899,-0.8683,-0.8679,-0.8397,0.0,-0.758,-0.7206,0.0,0.0,0.0,0.0,0.0,0.0,0.0,0.0,-0.8056,-0.8844,-0.9427,-0.98,-0.9978,-1.0068,-0.9862,-0.9397,-0.9132,-0.8844,-0.8512,-0.8007,-0.7731,0.0,0.0,0.0,0.0,0.0,0.0,0.0,0.0,0.0,0.0,0.0,0.0,0.0,0.0,0.0,0.0,0.0,0.0,0.0,0.0,0.0,0.0,0.0,-0.8729,0.0,0.0,0.0,0.0,0.0,0.0,0.0,0.0,0.0,-1.0912,-1.1007,-1.1246,-1.1696,-1.1744,-1.1913,-1.2338,0.0,0.0,0.0,0.0,0.0,0.0,0.0,-1.2566,-1.3027,-1.2828,-1.2747,-1.3214,-1.3296,-1.3296,-1.3296,0.0,0.0,-1.2386,-1.2197,-1.2076,-1.2076,-1.2206,-1.2312,-1.2308,-1.2402,-1.2482,0.0,0.0,0.0,0.0,0.0,0.0,0.0,0.0,-0.9448,-0.9439,0.0,-0.9269,0.0,0.0,0.0,0.0,0.0,0.0,0.0,0.0,-0.9631,-1.0017,-0.9932,-0.9584,-0.9292,-0.9122,-0.9147,-0.8816,-0.8171,-0.6617,0.0,0.0,0.0,0.0,0.0,0.0,-0.8875,-0.9576,-0.9917,-1.0279,-1.0657,-1.0311,-1.0093,-1.0011,-0.9388,-0.8853,-0.8531,-0.8503,-0.8331,-0.7964,-0.7998,0.0,0.0,0.0,0.0,0.0,0.0,0.0,0.0,0.0,0.0,0.0,0.0,0.0,0.0,0.0,0.0,0.0,0.0,0.0,0.0,-0.8792,0.0,0.0,0.0,0.0,0.0,0.0,0.0,0.0,0.0,0.0,-1.1404,-1.1636,-1.2009,-1.2522,0.0,0.0,0.0,0.0,-1.293,-1.2961,-1.2952,-1.2952,-1.2966,-1.3387,-1.3575,-1.3208,0.0,0.0,-1.3401,-1.3341,-1.336,-1.3337,-1.3337,-1.319,-1.2808,-1.2441,-1.2174,-1.2117,-1.242,-1.2689,-1.2712,-1.296,-1.3139,-0.952,0.0,0.0,0.0,0.0,-0.9752,-1.0001,-1.0327,-1.0123,-0.9988,-0.9878,-0.9653,0.0,0.0,0.0,0.0,0.0,0.0,-0.9765,-0.9884,-1.0204,-1.0176,-0.9851,-0.974,-0.9507,-0.9186,-0.9274,-0.9245,-0.9037,-0.8479,-0.8004,-0.763,0.0,0.0,0.0,0.0,-0.8976,-0.9879,-1.0041,-1.0307,-1.0696,-1.0315,-0.9854,-0.9342,-0.9095,-0.8969,-0.8857,-0.8803,-0.8722,-0.856,-0.8746,0.0,0.0,0.0,0.0,0.0,0.0,0.0,0.0,0.0,0.0,0.0,0.0,0.0,0.0,0.0,0.0,0.0,0.0,0.0,-0.8697,-0.9242,-0.9419,0.0,0.0,0.0,0.0,0.0,0.0,0.0,0.0,0.0,-1.2721,-1.2545,-1.2406,0.0,0.0,-1.2909,-1.3207,-1.3361,-1.3619,-1.4009,0.0,0.0,0.0,-1.3915,-1.3889,-1.4077,-1.4234,-1.429,-1.418,-1.4162,-1.4167,-1.4157,-1.3943,-1.37,-1.358,-1.3218,-1.2784,-1.2307,-1.2651,-1.2998,-1.279,-1.3024,-1.3176,-1.0063,-1.0233,-1.0036,-0.9951,-0.9945,-0.9995,-1.0167,-1.0374,-1.0213,-1.0172,-1.0246,-0.9936,-0.9549,-0.9173,-0.901,0.0,0.0,0.0,-1.0092,-1.0201,-1.04,-1.0356,-1.0113,-1.0182,-1.0105,-0.9891,-1.0053,-1.0069,-0.9909,-0.9652,-0.9277,-0.8779,0.0,0.0,-0.9106,-0.8997,-0.9409,-1.0294,-1.035,-1.0533,-1.0925,-1.0397,-0.976,-0.9034,-0.8996,-0.8996,-0.8996,-0.8974,-0.8925,-0.8888,-0.8967,-0.8948,0.0,0.0,0.0,0.0,0.0,0.0,0.0,0.0,0.0,0.0,0.0,-0.8831,0.0,0.0,0.0,0.0,-0.8633,-0.9085,-0.9623,-0.9951,0.0,0.0,0.0,0.0,0.0,0.0,0.0,-1.1805,-1.2608,-1.3227,-1.3483,-1.3373,-1.3281,-1.3281,-1.3371,-1.3541,-1.3794,0.0,-1.4134,-1.4444,-1.4485,-1.4485,-1.4485,-1.43,-1.4226,-1.4465,-1.4485,-1.4485,-1.4485,-1.4485,-1.4485,-1.4488,-1.4304,-1.4135,-1.413,-1.3933,-1.3524,-1.277,-1.3095,-1.3419,-1.3213,-1.3534,-1.3751,-1.018,-1.047,-0.9954,-0.9752,-0.9781,-0.9907,-0.9941,-0.9945,-0.9917,-1.0136,-1.0438,-1.0038,-1.0023,-1.0305,-1.0187,0.0,0.0,-1.0214,-1.0262,-1.0116,-1.0412,-1.0569,-1.0569,-1.0824,-1.0918,-1.0922,-1.1179,-1.1101,-1.0735,-1.0306,-1.0154,-1.0181,-0.9418,-0.9393,-1.0031,-0.9812,-1.0005,-1.0683,-1.07,-1.0874,-1.1185,-1.0497,-0.9756,-0.9021,-0.8996,-0.902,-0.9032,-0.9076,-0.9056,-0.9043,-0.8978,-0.9073,-0.9267,0.0,0.0,0.0,0.0,0.0,0.0,0.0,0.0,0.0,0.0,0.0,0.0,0.0,0.0,0.0,-0.9901,0.0,-1.0655,-1.0745,0.0,0.0,0.0,-1.1242,-1.1247,-1.2387,-1.2987,-1.2471,0.0,0.0,0.0,0.0,-1.4332,-1.4391,-1.4357,-1.4366,-1.4451,-1.4472,-1.4485,-1.451,-1.4485,-1.4485,-1.4485,-1.4492,-1.4483,-1.4481,-1.4485,-1.4485,-1.4485,-1.4485,-1.4485,-1.4485,-1.4485,-1.4476,-1.4481,-1.4469,-1.4277,-1.3539,-1.3685,-1.3952,-1.3879,-1.425,-1.4477,-1.0209,-1.045,-1.0078,-1.0066,-1.0324,-1.0329,-1.0368,-1.0335,-1.0085,-1.0026,-1.0095,-0.9798,-0.9603,-0.9509,-0.9661,-0.9815,-0.9995,-1.052,-1.0835,-1.0994,-1.1057,-1.1124,-1.112,-1.1175,-1.1196,-1.1196,-1.1276,-1.125,-1.1143,-1.106,-1.0984,-1.0989,-1.053,-1.0204,-1.0092,-1.0025,-1.0221,-1.0691,-1.0704,-1.0593,-1.0388,-1.0204,-0.976,-0.9021,-0.8996,-0.9136,-0.9368,-0.9611,-0.9651,-0.9423,-1.0046,-1.0066,-0.9351,-0.9261,0.0,0.0,0.0,0.0,0.0,0.0,0.0,0.0,0.0,-0.9842,-0.8906,0.0,-0.9925,0.0,-0.99,-1.0308,-1.0539,-1.1236,0.0,0.0,-1.2158,-1.2551,-1.2551,-1.2876,-1.3182,-1.3375,-1.3772,-1.4088,-1.4289,-1.4392,-1.4625,-1.5049,-1.4759,-1.4426,-1.4361,-1.4426,-1.4485,-1.4515,-1.4545,-1.4485,-1.4485,-1.4485,-1.4485,-1.4485,-1.4485,-1.4485,-1.4485,-1.4485,-1.4485,-1.4485,-1.4485,-1.4485,-1.4485,-1.4485,-1.446,-1.4272,-1.43,-1.4258,-1.3994,-1.4344,-1.4565,-0.994,-1.0098,-0.9914,-0.9936,-1.0098,-1.0091,-1.0091,-1.0091,-0.9914,-0.9832,-0.9807,-0.9666,-0.9522,-0.9398,-0.965,-0.9923,-1.0242,-1.0675,-1.1044,-1.1297,-1.1297,-1.1297,-1.1297,-1.1297,-1.1297,-1.1297,-1.1297,-1.1297,-1.1297,-1.1297,-1.1297,-1.1297,-1.1066,-1.0861,-1.0642,-1.0461,-1.0563,-1.0959,-1.0968,-1.0871,-1.0649,-1.0291,-0.9965,-0.9698,-0.9239,-0.9237,-0.9695,-0.9774,-0.9774,-0.9745,-1.023,-1.0282,-0.9819,-0.9696,-0.9581,0.0,0.0,0.0,0.0,0.0,0.0,0.0,0.0,0.0,0.0,0.0,-1.1374,0.0,-1.1392,0.0,-1.1782,-1.2571,-1.2951,-1.2609,-1.3132,-1.3425,-1.3181,-1.3563,-1.3844,-1.3793,-1.4483,-1.4941,-1.4932,-1.5137,-1.541,-1.5743,-1.5522,-1.5264,-1.5211,-1.524,-1.5303,-1.5298,-1.5074,-1.4793,-1.4565,-1.4485,-1.4485,-1.4485,-1.4485,-1.4485,-1.4485,-1.4485,-1.4485,-1.4485,-1.4485,-1.4485,-1.4485,-1.4485,-1.4485,-1.4515,-1.4565,-1.4469,-1.4217,-1.4512,-1.4763,-0.9618,-0.9618,-0.9618,-0.9618,-0.9618,-0.9618,-0.9618,-0.9618,-0.9618,-0.9618,-0.9618,-0.9618,-0.9618,-0.9618,-0.9884,-1.0162,-1.0441,-1.0748,-1.1023,-1.1247,-1.1297,-1.1297,-1.1297,-1.1297,-1.1297,-1.1297,-1.1297,-1.1297,-1.1297,-1.1297,-1.1297,-1.1297,-1.1297,-1.1297,-1.1284,-1.0955,-1.0951,-1.1293,-1.1297,-1.1281,-1.1283,-1.0514,-1.0242,-1.0491,-0.9541,-0.9297,-0.9965,-0.9725,-0.971,-1.0034,-1.0103,-1.021,-1.038,-1.0054,-0.9977,0.0,-1.0231,0.0,0.0,0.0,0.0,0.0,0.0,0.0,0.0,-1.3114,-1.32,-1.3218,-1.317,-1.3227,-1.3383,-1.3927,-1.4058,-1.3564,-1.3945,-1.4038,-1.357,-1.422,-1.4586,-1.4156,-1.5343,-1.5997,-1.5604,-1.5997,-1.6301,-1.6381,-1.6386,-1.6335,-1.6363,-1.6192,-1.606,-1.6203,-1.569,-1.4995,-1.4595,-1.4485,-1.4485,-1.4485,-1.4485,-1.4485,-1.4485,-1.4485,-1.4485,-1.4485,-1.4485,-1.4485,-1.4485,-1.4485,-1.4485,-1.4485,-1.4616,-1.4652,-1.4563,-1.4779,-1.5009,-0.9618,-0.9618,-0.9618,-0.9618,-0.9618,-0.9618,-0.9618,-0.9618,-0.9618,-0.9618,-0.9618,-0.9618,-0.9618,-0.9647,-0.9888,-1.0051,-1.0132,-1.0641,-1.0922,-1.0998,-1.12,-1.1297,-1.1297,-1.1297,-1.1297,-1.1297,-1.1297,-1.1297,-1.1297,-1.1297,-1.1297,-1.1297,-1.1297,-1.1297,-1.1293,0.0,0.0,0.0,-1.1297,-1.1302,-1.126,-1.0514,-1.0157,-1.0235,-0.9455,0.0,-0.9941,-0.9946,-1.0049,-1.0307,-1.0578,0.0,0.0,0.0,0.0,0.0,0.0,0.0,0.0,0.0,0.0,0.0,-1.3162,-1.307,-1.2563,-1.2653,-1.3014,-1.3725,-1.2925,-1.2627,-1.3315,-1.3504,-1.3674,-1.3886,-1.4252,-1.4486,-1.4361,-1.4491,-1.4672,-1.5095,-1.5395,-1.5753,-1.6083,-1.6255,-1.65,-1.6945,-1.7029,-1.7029,-1.7006,-1.6226,-1.5637,-1.5526,-1.5128,-1.468,-1.4515,-1.4485,-1.4485,-1.4485,-1.4485,-1.4485,-1.4485,-1.4485,-1.4485,-1.4485,-1.4485,-1.4485,-1.4485,-1.4485,-1.4485,-1.4485,-1.4611,-1.4715,-1.4686,-1.4941,-1.5156,-0.9618,0.0,-0.9618,-0.9618,0.0,-0.9618,-0.9618,-0.9618,-0.9618,-0.9618,-0.9618,-0.9618,-0.9618,-0.9618,-0.9751,-0.9866,-1.0021,-1.0492,-1.0701,-1.0718,-1.1124,-1.1221,-1.1099,-1.1221,-1.1297,-1.1297,-1.1297,-1.1297,-1.1297,-1.1297,-1.1297,-1.1297,-1.1297,-1.1297,-1.1297,-1.1297,-1.1297,-1.1297,-1.1297,-1.1398,-1.1537,-1.0798,-1.0487,-1.0657,0.0,0.0,0.0,0.0,0.0,0.0,0.0,0.0,0.0,0.0,0.0,-1.1209,-1.124,-1.1432,-1.1908,-1.2166,-1.2546,-1.3069,-1.3691,-1.3954,-1.3735,-1.3586,-1.3779,-1.4449,-1.3747,-1.3511,-1.4168,-1.447,-1.4687,-1.4851,-1.5464,-1.5772,-1.5503,-1.5403,-1.5517,-1.5801,-1.6117,-1.6415,-1.6703,-1.7023,-1.7268,-1.7551,-1.7374,-1.7207,-1.7174,-1.6698,-1.614,-1.5522,-1.5186,-1.4852,-1.4575,-1.4485,-1.4485,-1.4485,-1.4485,-1.4485,-1.4485,-1.4485,-1.4485,-1.4485,-1.4485,-1.4485,-1.4485,-1.4485,-1.454,-1.4586,-1.4725,-1.4872,-1.4936,-1.5083,-1.521,-0.9618,-0.9618,-0.9618,-0.9618,-0.9618,-0.9618,-0.9618,-0.9618,0.0,0.0,0.0,-0.9618,-0.9618,-0.9618,-0.9618,-0.9725,-0.994,-1.0261,-1.0415,-1.0445,-1.0972,-1.1124,-1.0918,-1.1171,-1.1297,-1.1297,-1.1297,-1.1297,-1.1297,-1.1297,-1.1297,-1.1297,-1.1297,-1.1297,-1.1297,-1.1297,-1.1297,-1.1297,-1.1297,-1.1498,-1.1868,-1.1107,-1.0867,-1.1199,-1.0206,-0.9937,-1.0533,-1.0329,-1.0503,-1.1104,-1.1143,-1.1143,-1.1138,-1.1138,-1.1354,-1.1809,-1.2145,-1.2366,-1.2415,-1.2764,-1.2986,-1.309,-1.3816,-1.4512,-1.5068,-1.4674,-1.4587,-1.5062,-1.4581,-1.4485,-1.5146,-1.5515,-1.5777,-1.5799,-1.6553,-1.6805,-1.6358,-1.6301,-1.6278,-1.6505,-1.6866,-1.7235,-1.7352,-1.7766,-1.8057,-1.7881,-1.7462,-1.7052,-1.6912,-1.6749,-1.6301,-1.5381,-1.5103,-1.5015,-1.4654,-1.4485,-1.4485,-1.4485,-1.4485,-1.4485,-1.4485,-1.4485,-1.4485,-1.4485,-1.4485,-1.4485,-1.4485,-1.4485,-1.4565,-1.4691,-1.4838,-1.5029,-1.5152,-1.5205,-1.5235,-0.9618,-0.9618,-0.9618,-0.9618,-0.9618,-0.9618,-0.9618,-0.9618,-0.9618,-0.9618,-0.9618,-0.9618,-0.9618,-0.9618,-0.9618,-0.9618,-0.9666,-0.994,-1.0076,0.0,-1.0688,-1.0951,-1.0918,-1.1175,-1.1297,-1.1297,-1.1297,-1.1297,-1.1297,-1.1297,-1.1297,-1.1297,-1.1297,-1.1297,-1.1297,-1.1297,-1.1297,-1.1297,-1.1297,-1.1498,-1.1893,-1.1107,-1.0909,-1.1235,-1.0482,-1.0365,-1.1044,-1.1039,-1.1355,-1.2052,-1.2094,-1.211,-1.2094,-1.2079,-1.2291,-1.2667,-1.2501,-1.2538,-1.2868,-1.2788,-1.3069,-1.3747,-1.3768,-1.4106,-1.4994,-1.4679,-1.4581,-1.4994,-1.4314,-1.4232,-1.5395,-1.5379,-1.5511,-1.6116,-1.6349,-1.6386,-1.6363,-1.6363,-1.6567,-1.704,-1.7146,-1.7435,-1.7788,-1.7991,-1.7848,-1.744,-1.7118,-1.6805,-1.5945,-1.5633,-1.5357,-1.4823,-1.4625,-1.4595,-1.4515,-1.4485,-1.4485,-1.4485,-1.4485,-1.4485,-1.4485,-1.4485,-1.4485,-1.4485,-1.4485,-1.4485,-1.4485,-1.4485,-1.4561,-1.4691,-1.4877,-1.5039,-1.5186,-1.5293,-1.5357,-0.9775,-0.9625,-0.9618,-0.9618,-0.9618,-0.9618,-0.9618,-0.9618,-0.9618,-0.9618,-0.9618,-0.9618,-0.9618,-0.9618,-0.9618,-0.9618,-0.9618,-0.9862,-0.9914,-0.9832,-1.0407,-1.0697,-1.0701,-1.0943,-1.1146,-1.1272,-1.1297,-1.1297,-1.1297,-1.1297,-1.1297,-1.1297,-1.1297,-1.1297,-1.1297,-1.1297,-1.1297,-1.1297,-1.1297,-1.1402,-1.1544,-1.1204,-1.1014,-1.0969,-1.061,-1.067,-1.1184,-1.1197,-1.1531,-1.226,-1.2302,-1.2302,-1.2307,-1.2093,-1.2248,-1.2818,-1.2386,-1.2341,-1.2957,-1.2676,-1.2827,-1.36,-1.3639,-1.4035,-1.5023,-1.4674,-1.4605,-1.5051,-1.4675,-1.4798,-1.5708,-1.5844,-1.6138,-1.6841,-1.7109,-1.7268,-1.7274,-1.7285,-1.7385,-1.765,-1.7672,-1.7667,-1.7617,-1.7617,-1.7385,-1.681,-1.6472,-1.5887,-1.5044,-1.4907,-1.4823,-1.4536,-1.4485,-1.4485,-1.4485,-1.4485,-1.4485,-1.4485,-1.4485,-1.4485,-1.4485,-1.4485,-1.4485,-1.4485,-1.4485,-1.4485,-1.4485,-1.4485,-1.4595,-1.4818,-1.4911,-1.5059,-1.5254,-1.5362,-1.5391,-0.9821,-0.9618,-0.9618,-0.9618,-0.9618,-0.9618,-0.9618,-0.9618,-0.9618,-0.9618,-0.9618,-0.9618,-0.9618,-0.9618,-0.9618,-0.9618,-0.964,-0.9803,-0.9803,-0.9669,-1.015,-1.0389,-1.0441,-1.0748,-1.0998,-1.12,-1.1272,-1.1297,-1.1297,-1.1297,-1.1297,-1.1297,-1.1297,-1.1297,-1.1297,-1.1297,-1.1297,-1.1297,-1.1297,-1.1297,-1.1297,-1.1297,-1.116,-1.0874,-1.0824,-1.1008,-1.1323,-1.1345,-1.1661,-1.2301,-1.235,-1.235,-1.2328,-1.2066,-1.2153,-1.2675,-1.2185,-1.2068,-1.2619,-1.2407,-1.251,-1.3194,-1.3367,-1.3795,-1.4599,-1.4443,-1.4466,-1.4994,-1.5074,-1.534,-1.5954,-1.6351,-1.6854,-1.746,-1.7898,-1.8012,-1.8084,-1.7991,-1.7909,-1.7903,-1.7766,-1.7446,-1.7118,-1.7001,-1.6749,-1.6169,-1.558,-1.5015,-1.4595,-1.4485,-1.4485,-1.4485,-1.4485,-1.4485,-1.4485,-1.4485,-1.4485,-1.4485,-1.4485,-1.4485,-1.4485,-1.4485,-1.4485,-1.4485,-1.4485,-1.4485,-1.4485,-1.4485,-1.46,-1.4818,-1.4907,-1.499,-1.5254,-1.5386,-1.5415,-0.965,-0.9618,-0.9621,-0.9618,-0.9618,-0.9618,-0.9618,-0.9618,-0.9618,-0.9618,-0.9618,-0.9618,-0.9618,-0.9618,-0.9618,-0.9618,-0.9618,-0.9644,-0.9647,-0.964,-0.9918,-1.0051,-1.0102,-1.0616,-1.0922,-1.0972,-1.1175,-1.1276,-1.1297,-1.1297,-1.1297,-1.1297,-1.1297,-1.1297,-1.1297,-1.1297,-1.1297,-1.1297,-1.1297,-1.1297,-1.1297,-1.1297,-1.128,-1.125,-1.1241,-1.1433,-1.1793,-1.1834,-1.203,-1.243,-1.2479,-1.2493,-1.2464,-1.2449,-1.2439,-1.2517,-1.214,-1.1891,-1.1843,-1.1898,-1.2206,-1.2764,-1.288,-1.316,-1.3729,-1.3729,-1.4082,-1.4811,-1.5068,-1.549,-1.6386,-1.6575,-1.6974,-1.7682,-1.7972,-1.8084,-1.7997,-1.7611,-1.7263,-1.7285,-1.6956,-1.6448,-1.6415,-1.6335,-1.6117,-1.5555,-1.5044,-1.465,-1.454,-1.4485,-1.4485,-1.4485,-1.4485,-1.4485,-1.4485,-1.4485,-1.4485,-1.4485,-1.4485,-1.4485,-1.4485,-1.4485,-1.4485,-1.4485,-1.4485,-1.4485,-1.4485,-1.4485,-1.4565,-1.4695,-1.4809,-1.4838,-1.5142,-1.5313,-1.5391,-1.0079,-0.9862,-0.9665,-0.9618,-0.9618,-0.9618,-0.9618,-0.9618,-0.9618,-0.9618,-0.9618,-0.9618,-0.9618,-0.9618,-0.9618,-0.9618,-0.9618,-0.9618,-0.9618,-0.9618,-0.9721,-0.9836,-1.0025,-1.0227,-1.0543,-1.0871,-1.1023,-1.1141,-1.1272,-1.1297,-1.1297,-1.1297,-1.1297,-1.1297,-1.1297,-1.1297,-1.1297,-1.1297,-1.1297,-1.1297,-1.1297,-1.1297,-1.1297,-1.1297,-1.1297,-1.1473,-1.1848,-1.1898,-1.2101,-1.2475,-1.2505,-1.2505,-1.25,-1.2274,-1.2254,-1.2455,-1.22,-1.1927,-1.1694,-1.1823,-1.2157,-1.2759,-1.2779,-1.3035,-1.3544,-1.3615,-1.38,-1.4179,-1.4744,-1.5285,-1.5669,-1.6482,-1.7079,-1.7109,-1.7329,-1.7551,-1.7562,-1.7341,-1.7207,-1.7202,-1.6973,-1.6505,-1.5887,-1.5434,-1.5157,-1.4911,-1.4625,-1.4515,-1.4485,-1.4485,-1.4485,-1.4485,-1.4485,-1.4485,-1.4485,-1.4485,-1.4485,-1.4485,-1.4485,-1.4485,-1.4485,-1.4485,-1.4485,-1.4485,-1.4485,-1.4485,-1.4485,-1.4515,-1.4536,-1.4666,-1.4813,-1.4936,-1.5059,-1.5176,-1.5235,-1.0265,-0.995,-0.9683,-0.9618,-0.9618,-0.9618,-0.9618,-0.9618,-0.9618,-0.9618,-0.9618,-0.9618,-0.9618,-0.9618,-0.9618,-0.9618,-0.9618,-0.9618,-0.9618,-0.9618,-0.9618,-0.9725,-0.9888,-0.9973,-1.0283,-1.0722,-1.0871,-1.1044,-1.1272,-1.1297,-1.1297,-1.1297,-1.1297,-1.1297,-1.1297,-1.1297,-1.1297,-1.1297,-1.1297,-1.1297,-1.1297,-1.1297,-1.1297,-1.1297,-1.1297,-1.1423,-1.1728,-1.1757,-1.1873,-1.2155,-1.2184,-1.2184,-1.218,-1.1898,-1.1873,-1.213,-1.2047,-1.1907,-1.1694,-1.1848,-1.2136,-1.2535,-1.2604,-1.2788,-1.3084,-1.3185,-1.319,-1.3243,-1.3968,-1.4486,-1.5132,-1.6046,-1.652,-1.6344,-1.6731,-1.695,-1.695,-1.6849,-1.6669,-1.6698,-1.6368,-1.6169,-1.5328,-1.4818,-1.457,-1.4545,-1.4515,-1.4485,-1.4485,-1.4485,-1.4485,-1.4485,-1.4485,-1.4485,-1.4485,-1.4485,-1.4485,-1.4485,-1.4485,-1.4485,-1.4485,-1.4485,-1.4485,-1.4485,-1.4485,-1.4485,-1.4485,-1.4515,-1.4515,-1.4641,-1.4784,-1.4911,-1.4902,-1.5029,-1.4997,-0.9929,-0.9661,-0.9625,-0.9618,-0.9618,-0.9618,-0.9618,-0.9618,-0.9618,-0.9618,-0.9618,-0.9618,-0.9618,-0.9618,-0.9618,-0.9618,-0.9618,-0.9618,-0.9618,-0.9618,-0.9618,-0.9618,-0.9618,-0.9888,-1.018,-1.0518,-1.0773,-1.1023,-1.1272,-1.1297,-1.1297,-1.1297,-1.1297,-1.1297,-1.1297,-1.1297,-1.1297,-1.1297,-1.1297,-1.1297,-1.1297,-1.1297,-1.1297,-1.1297,-1.1297,-1.1322,-1.1347,-1.1352,-1.1352,-1.1377,-1.1402,-1.1377,-1.1372,-1.1347,-1.1368,-1.1398,-1.1603,-1.1723,-1.1748,-1.1952,-1.2101,-1.2146,-1.2195,-1.2175,-1.2269,-1.2318,-1.2318,-1.22,-1.2768,-1.3561,-1.4671,-1.517,-1.5572,-1.6097,-1.6273,-1.6335,-1.633,-1.5916,-1.5555,-1.5492,-1.5186,-1.4882,-1.46,-1.4506,-1.4485,-1.4485,-1.4485,-1.4485,-1.4485,-1.4485,-1.4485,-1.4485,-1.4485,-1.4485,-1.4485,-1.4485,-1.4485,-1.4485,-1.4485,-1.4485,-1.4485,-1.4485,-1.4485,-1.4485,-1.4485,-1.4485,-1.4485,-1.4485,-1.4485,-1.4565,-1.4636,-1.4725,-1.4754,-1.4907,-1.4879,-1.01,-0.9618,-0.9618,-0.9618,-0.9618,-0.9618,-0.9618,-0.9618,-0.9618,-0.9618,-0.9618,-0.9618,-0.9618,-0.9618,-0.9618,-0.9618,-0.9618,-0.9618,-0.9618,-0.9618,-0.9618,-0.9618,-0.9618,-0.9725,-0.9892,-1.0183,-1.0518,-1.0875,-1.1247,-1.1297,-1.1297,-1.1297,-1.1297,-1.1297,-1.1297,-1.1297,-1.1297,-1.1297,-1.1297,-1.1297,-1.1297,-1.1297,-1.1297,-1.1297,-1.1297,-1.1297,-1.1297,-1.1297,-1.1297,-1.1297,-1.1297,-1.1297,-1.1297,-1.1297,-1.1297,-1.1322,-1.1553,-1.1694,-1.1723,-1.1952,-1.2076,-1.2076,-1.2076,-1.2076,-1.2076,-1.2076,-1.2076,-1.2158,-1.2491,-1.3161,-1.3813,-1.4541,-1.5028,-1.5157,-1.5492,-1.5714,-1.5685,-1.5522,-1.5415,-1.5332,-1.4877,-1.4515,-1.4485,-1.4485,-1.4485,-1.4485,-1.4485,-1.4485,-1.4485,-1.4485,-1.4485,-1.4485,-1.4485,-1.4485,-1.4485,-1.4485,-1.4485,-1.4485,-1.4485,-1.4485,-1.4485,-1.4485,-1.4485,-1.4485,-1.4485,-1.4485,-1.4485,-1.4485,-1.4485,-1.4515,-1.459,-1.4586,-1.4552,-1.4734,-1.4674,-1.002,-0.9647,-0.9618,-0.9618,-0.9618,-0.9618,-0.9618,-0.9618,-0.9618,-0.9618,-0.9618,-0.9618,-0.9618,-0.9618,-0.9618,-0.9618,-0.9618,-0.9618,-0.9618,-0.9618,-0.9618,-0.9618,-0.9618,-0.9618,-0.9725,-1.0021,-1.0437,-1.0816,-1.1146,-1.1247,-1.1297,-1.1297,-1.1297,-1.1297,-1.1297,-1.1297,-1.1297,-1.1297,-1.1297,-1.1297,-1.1297,-1.1297,-1.1297,-1.1297,-1.1297,-1.1297,-1.1297,-1.1297,-1.1297,-1.1297,-1.1297,-1.1297,-1.1297,-1.1297,-1.1297,-1.1322,-1.1494,-1.1648,-1.1719,-1.1907,-1.2051,-1.2076,-1.2076,-1.2076,-1.2076,-1.2076,-1.2076,-1.2174,-1.2459,-1.2868,-1.3361,-1.4118,-1.4601,-1.454,-1.4877,-1.5103,-1.5108,-1.5103,-1.5103,-1.5049,-1.4764,-1.454,-1.4485,-1.4485,-1.4485,-1.4485,-1.4485,-1.4485,-1.4485,-1.4485,-1.4485,-1.4485,-1.4485,-1.4485,-1.4485,-1.4485,-1.4485,-1.4485,-1.4485,-1.4485,-1.4485,-1.4485,-1.4485,-1.4485,-1.4485,-1.4485,-1.4485,-1.4485,-1.4485,-1.4485,-1.4515,-1.4536,-1.4536,-1.4586,-1.4544,-0.9603,-0.9592,-0.9588,-0.9592,-0.9566,-0.9566,-0.9592,-0.9588,-0.9588,-0.9588,-0.9588,-0.9618,-0.9618,-0.9618,-0.9618,-0.9618,-0.9618,-0.9618,-0.9618,-0.9618,-0.9618,-0.9618,-0.9618,-0.9618,-0.9747,-1.0003,-1.0539,-1.0841,-1.0926,-1.1116,-1.1221,-1.1272,-1.1297,-1.1297,-1.1297,-1.1297,-1.1297,-1.1297,-1.1297,-1.1297,-1.1297,-1.1297,-1.1297,-1.1297,-1.1297,-1.1297,-1.1297,-1.1297,-1.1297,-1.1297,-1.1297,-1.1297,-1.1297,-1.1297,-1.1297,-1.1322,-1.1448,-1.1573,-1.1698,-1.1852,-1.1981,-1.2076,-1.2076,-1.2076,-1.2076,-1.2076,-1.2094,-1.2225,-1.2533,-1.2909,-1.3332,-1.3784,-1.4187,-1.4428,-1.46,-1.46,-1.4565,-1.451,-1.4515,-1.4545,-1.4515,-1.4485,-1.4485,-1.4485,-1.4485,-1.4485,-1.4485,-1.4485,-1.4485,-1.4485,-1.4485,-1.4485,-1.4485,-1.4485,-1.4485,-1.4485,-1.4485,-1.4485,-1.4485,-1.4485,-1.4485,-1.4485,-1.4485,-1.4485,-1.4485,-1.4485,-1.4485,-1.4485,-1.4485,-1.4485,-1.4485,-1.4485,-1.451,-1.454,-1.454,-0.9338,-0.9342,-0.9338,-0.9335,-0.9335,-0.9312,-0.9387,-0.9462,-0.9462,-0.951,-0.9588,-0.9618,-0.9618,-0.9618,-0.9618,-0.9618,-0.9618,-0.9618,-0.9618,-0.9592,-0.9592,-0.9592,-0.9592,-0.9592,-0.9729,-0.9888,-0.9692,-1.0083,-1.0735,-1.0765,-1.0863,-1.1217,-1.1297,-1.1297,-1.1297,-1.1297,-1.1297,-1.1297,-1.1297,-1.1297,-1.1297,-1.1297,-1.1297,-1.1297,-1.1297,-1.1297,-1.1297,-1.1297,-1.1297,-1.1297,-1.1297,-1.1297,-1.1297,-1.1297,-1.1297,-1.1326,-1.1423,-1.1573,-1.1698,-1.1832,-1.1952,-1.2051,-1.2076,-1.2076,-1.2076,-1.2076,-1.222,-1.2473,-1.2882,-1.3295,-1.3667,-1.4075,-1.4355,-1.4506,-1.4485,-1.4485,-1.4485,-1.4485,-1.4485,-1.4485,-1.4485,-1.4485,-1.4485,-1.4485,-1.4485,-1.4485,-1.4485,-1.4485,-1.4485,-1.4485,-1.4485,-1.4485,-1.4485,-1.4485,-1.4485,-1.4485,-1.4485,-1.4485,-1.4485,-1.4485,-1.4485,-1.4485,-1.4485,-1.4485,-1.4485,-1.4485,-1.4485,-1.4485,-1.4485,-1.4485,-1.4485,-1.4485,-1.4485,-1.4485,-1.4485,-0.9178,-0.9178,-0.9178,-0.9178,-0.9178,-0.9178,-0.9263,-0.9335,-0.9391,-0.9462,-0.951,-0.9588,-0.9618,-0.9618,-0.9618,-0.9618,-0.9618,-0.9618,-0.9514,-0.9387,-0.9364,-0.9309,-0.9204,-0.9145,-0.9335,-0.9521,-0.9194,-0.9499,-1.0442,-1.0446,-1.071,-1.1196,-1.1297,-1.1297,-1.1297,-1.1297,-1.1297,-1.1297,-1.1297,-1.1297,-1.1297,-1.1297,-1.1297,-1.1297,-1.1297,-1.1297,-1.1297,-1.1297,-1.1297,-1.1297,-1.1347,-1.1352,-1.1301,-1.1347,-1.1352,-1.1326,-1.1372,-1.1502,-1.1628,-1.1723,-1.1873,-1.2002,-1.2076,-1.2076,-1.2076,-1.2076,-1.2239,-1.2468,-1.2974,-1.3396,-1.3667,-1.419,-1.4453,-1.4485,-1.4485,-1.4485,-1.4485,-1.4485,-1.4485,-1.4485,-1.4485,-1.4485,-1.4485,-1.4485,-1.4485,-1.4485,-1.4485,-1.4485,-1.4485,-1.4485,-1.4485,-1.4485,-1.4485,-1.4485,-1.4485,-1.4485,-1.4485,-1.4485,-1.4485,-1.4485,-1.4485,-1.4485,-1.4485,-1.4485,-1.4485,-1.4485,-1.4485,-1.4485,-1.4485,-1.4485,-1.4485,-1.4485,-1.4485,-1.4485,-1.4485,-0.9155,-0.9162,-0.9162,-0.9159,-0.9159,-0.9159,-0.9162,-0.9211,-0.9316,-0.9357,-0.9409,-0.9536,-0.9588,-0.9614,-0.9618,-0.9618,-0.9592,-0.9517,-0.9283,-0.9028,-0.8896,-0.8735,-0.8553,-0.8474,-0.8629,-0.8952,-0.886,-0.9161,-0.9788,-1.0091,-1.0655,-1.1116,-1.1221,-1.1297,-1.1297,-1.1297,-1.1297,-1.1297,-1.1297,-1.1297,-1.1297,-1.1297,-1.1297,-1.1297,-1.1297,-1.1297,-1.1297,-1.1297,-1.1301,-1.1326,-1.1427,-1.1448,-1.1372,-1.1444,-1.1448,-1.1347,-1.1297,-1.1402,-1.1502,-1.1628,-1.1748,-1.1873,-1.2002,-1.2076,-1.2071,-1.2081,-1.2151,-1.2289,-1.284,-1.325,-1.3438,-1.3974,-1.4366,-1.4485,-1.4485,-1.4485,-1.4485,-1.4485,-1.4485,-1.4485,-1.4485,-1.4485,-1.4485,-1.4485,-1.4485,-1.4485,-1.4485,-1.4485,-1.4485,-1.4485,-1.4485,-1.4485,-1.4485,-1.4485,-1.4485,-1.4485,-1.4485,-1.4485,-1.4485,-1.4485,-1.4485,-1.4485,-1.4485,-1.4485,-1.4485,-1.4485,-1.4485,-1.4485,-1.4485,-1.4485,-1.4485,-1.4485,-1.4485,-1.4485,-1.4485,-0.891,-0.891,-0.891,-0.8906,-0.891,-0.8903,-0.8959,-0.9064,-0.9084,-0.9204,-0.9364,-0.9439,-0.9484,-0.9588,-0.9592,-0.9618,-0.9488,-0.9286,-0.8952,-0.856,-0.8182,-0.8235,-0.8265,-0.8049,-0.8129,-0.8454,-0.8132,-0.8249,-0.9161,-0.9514,-1.0035,-1.0629,-1.1065,-1.1272,-1.1297,-1.1297,-1.1297,-1.1297,-1.1297,-1.1297,-1.1297,-1.1297,-1.1297,-1.1297,-1.1297,-1.1297,-1.1297,-1.1297,-1.1352,-1.1452,-1.1477,-1.1523,-1.1573,-1.1628,-1.1603,-1.1473,-1.1444,-1.1452,-1.1494,-1.1548,-1.1623,-1.1748,-1.1907,-1.1952,-1.1952,-1.2056,-1.2243,-1.2464,-1.2781,-1.3001,-1.3291,-1.3777,-1.4167,-1.443,-1.4458,-1.4458,-1.4485,-1.4485,-1.4485,-1.4485,-1.4485,-1.4485,-1.4485,-1.4485,-1.4485,-1.4485,-1.4485,-1.4485,-1.4485,-1.4485,-1.4485,-1.4485,-1.4485,-1.4485,-1.4485,-1.4485,-1.4485,-1.4485,-1.4485,-1.4485,-1.4485,-1.4485,-1.4485,-1.4485,-1.4485,-1.4485,-1.4485,-1.4485,-1.4485,-1.4485,-1.4485,-1.4485,-1.4485,-1.4485,-1.4485,-0.8781,-0.8781,-0.8781,-0.8781,-0.8781,-0.8781,-0.8834,-0.891,-0.8982,-0.8919,-0.8932,-0.9093,-0.9037,-0.8906,-0.9014,-0.9099,-0.9073,-0.8867,-0.853,-0.8076,-0.7673,-0.7726,-0.7886,-0.7646,-0.7673,-0.8023,-0.7553,-0.7886,-0.8623,-0.8961,-0.9543,-1.0322,-1.0735,-1.104,-1.1297,-1.1297,-1.1297,-1.1297,-1.1297,-1.1297,-1.1297,-1.1297,-1.1297,-1.1297,-1.1297,-1.1297,-1.1297,-1.1347,-1.1423,-1.1498,-1.1548,-1.1628,-1.1703,-1.1778,-1.1728,-1.1598,-1.1569,-1.1573,-1.1598,-1.1648,-1.1678,-1.1728,-1.1832,-1.1852,-1.1848,-1.1927,-1.2163,-1.2296,-1.2553,-1.2891,-1.3314,-1.38,-1.4212,-1.4446,-1.4359,-1.4332,-1.4478,-1.4485,-1.4485,-1.4485,-1.4485,-1.4485,-1.4485,-1.4485,-1.4485,-1.4485,-1.4485,-1.4485,-1.4485,-1.4485,-1.4485,-1.4485,-1.4485,-1.4485,-1.4485,-1.4485,-1.4485,-1.4485,-1.4485,-1.4485,-1.4485,-1.4485,-1.4485,-1.4485,-1.4485,-1.4485,-1.4485,-1.4485,-1.4485,-1.4485,-1.4485,-1.4485,-1.4485,-1.4485,-1.4485,-0.8781,-0.8781,-0.8781,-0.8781,-0.8781,-0.8781,-0.8752,-0.8722,-0.8771,-0.8514,-0.821,-0.8452,-0.8349,-0.7925,-0.8329,-0.8368,-0.8444,-0.8391,-0.8043,-0.7667,-0.7348,-0.7351,-0.7563,-0.7354,-0.7351,-0.7589,-0.7386,-0.7652,-0.8182,-0.8441,-0.9119,-0.9902,-1.0267,-1.0684,-1.1044,-1.1221,-1.1297,-1.1297,-1.1297,-1.1297,-1.1297,-1.1297,-1.1297,-1.1297,-1.1297,-1.1297,-1.1326,-1.1402,-1.1473,-1.1502,-1.1648,-1.1728,-1.1748,-1.1873,-1.1848,-1.1753,-1.1728,-1.1703,-1.1703,-1.1773,-1.1832,-1.1757,-1.1828,-1.1848,-1.1798,-1.1882,-1.1975,-1.204,-1.2351,-1.2701,-1.3122,-1.3822,-1.4121,-1.4171,-1.4012,-1.4047,-1.4327,-1.4446,-1.4455,-1.4506,-1.4485,-1.4485,-1.4485,-1.4485,-1.4485,-1.4485,-1.4485,-1.4485,-1.4485,-1.4485,-1.4485,-1.4485,-1.4485,-1.4485,-1.4485,-1.4485,-1.4485,-1.4485,-1.4485,-1.4485,-1.4485,-1.4485,-1.4485,-1.4485,-1.4485,-1.4485,-1.4485,-1.4485,-1.4485,-1.4485,-1.4485,-1.4485,-1.4485,-1.4485,-1.4485,-0.8781,-0.8781,-0.8781,-0.8781,-0.8781,-0.8781,-0.8533,-0.8093,-0.8114,-0.7901,-0.7581,-0.7608,-0.7714,-0.7868,-0.7928,-0.8146,-0.8262,-0.7993,-0.7619,-0.727,-0.7163,-0.7136,-0.7241,-0.7139,-0.7163,-0.7241,-0.719,-0.7303,-0.7652,-0.8156,-0.86,-0.904,-0.9906,-1.0458,-1.0629,-1.104,-1.1297,-1.1297,-1.1297,-1.1297,-1.1297,-1.1297,-1.1297,-1.1297,-1.1297,-1.1297,-1.1297,-1.1322,-1.1393,-1.1523,-1.1728,-1.1877,-1.1952,-1.2002,-1.1972,-1.1898,-1.1852,-1.1803,-1.1723,-1.1753,-1.1753,-1.1728,-1.1798,-1.1898,-1.1873,-1.1957,-1.2026,-1.2031,-1.2088,-1.2327,-1.2709,-1.2934,-1.3332,-1.358,-1.3562,-1.3621,-1.3948,-1.4062,-1.418,-1.4419,-1.4485,-1.4485,-1.4485,-1.4485,-1.4485,-1.4485,-1.4485,-1.4485,-1.4485,-1.4485,-1.4485,-1.4485,-1.4485,-1.4485,-1.4485,-1.4485,-1.4485,-1.4485,-1.4485,-1.4485,-1.4485,-1.4485,-1.4485,-1.4485,-1.4485,-1.4485,-1.4485,-1.4485,-1.4485,-1.4485,-1.4485,-1.4485,-1.4485,-1.4485,-1.4485,-0.7999,-0.7999,-0.7999,-0.7999,-0.7999,-0.7999,-0.7803,-0.756,-0.7533,-0.7259,-0.691,-0.6912,-0.7015,-0.7122,-0.7259,-0.7506,-0.7699,-0.7563,-0.7324,-0.7139,-0.7109,-0.7109,-0.7109,-0.7109,-0.7109,-0.7109,-0.7109,-0.7195,-0.7416,-0.7762,-0.8206,-0.8596,-0.9357,-0.9902,-1.0322,-1.0731,-1.1015,-1.1247,-1.1297,-1.1297,-1.1297,-1.1297,-1.1297,-1.1297,-1.1297,-1.1297,-1.1297,-1.1377,-1.1427,-1.1523,-1.1698,-1.1877,-1.1981,-1.2002,-1.1997,-1.1997,-1.1968,-1.1947,-1.1902,-1.1877,-1.1868,-1.1798,-1.1848,-1.1848,-1.1848,-1.1927,-1.1997,-1.2002,-1.2038,-1.2161,-1.2539,-1.2857,-1.308,-1.319,-1.3139,-1.3254,-1.3717,-1.3887,-1.4047,-1.4382,-1.4485,-1.4485,-1.4485,-1.4485,-1.4485,-1.4485,-1.4485,-1.4485,-1.4485,-1.4485,-1.4485,-1.4485,-1.4485,-1.4485,-1.4485,-1.4485,-1.4485,-1.4485,-1.4485,-1.4485,-1.4485,-1.4485,-1.4485,-1.4485,-1.4485,-1.4485,-1.4485,-1.4485,-1.4485,-1.4485,-1.4485,-1.4485,-1.4476,-1.4458,-1.4467,-0.7109,-0.7109,-0.7109,-0.7109,-0.7109,-0.7136,-0.7082,-0.6974,-0.6972,-0.6618,-0.6184,-0.632,-0.6293,-0.6268,-0.6539,-0.6815,-0.7055,-0.7133,-0.7109,-0.7109,-0.7109,-0.7109,-0.7109,-0.7109,-0.7109,-0.7109,-0.7109,-0.7168,-0.7279,-0.7464,-0.7833,-0.8385,-0.8722,-0.9376,-1.0087,-1.0425,-1.0735,-1.1221,-1.1297,-1.1297,-1.1297,-1.1297,-1.1297,-1.1297,-1.1297,-1.1297,-1.1297,-1.1372,-1.1444,-1.1473,-1.1578,-1.1703,-1.1803,-1.1877,-1.1907,-1.2026,-1.2022,-1.1997,-1.1997,-1.2051,-1.2026,-1.1927,-1.1923,-1.1873,-1.1848,-1.1898,-1.1943,-1.1997,-1.2054,-1.217,-1.2553,-1.2732,-1.2956,-1.3047,-1.2813,-1.3079,-1.3594,-1.3804,-1.3974,-1.438,-1.4485,-1.4485,-1.4485,-1.4485,-1.4485,-1.4485,-1.4485,-1.4485,-1.4485,-1.4485,-1.4485,-1.4485,-1.4485,-1.4485,-1.4485,-1.4485,-1.4485,-1.4485,-1.4485,-1.4485,-1.4485,-1.4485,-1.4485,-1.4485,-1.4485,-1.4485,-1.4485,-1.4485,-1.4485,-1.4485,-1.4485,-1.4485,-1.4462,-1.443,-1.4426,-0.7109,-0.7109,-0.7109,-0.7109,-0.7109,-0.7082,-0.6756,-0.6396,-0.6347,-0.6,-0.5542,-0.5489,-0.5734,-0.5898,-0.6157,-0.6591,-0.6999,-0.7109,-0.7109,-0.7109,-0.7109,-0.7109,-0.7109,-0.7109,-0.7109,-0.7109,-0.7109,-0.7109,-0.7192,-0.7408,-0.7598,-0.7836,-0.8385,-0.9119,-0.9669,-1.0138,-1.0549,-1.0989,-1.1141,-1.1192,-1.1192,-1.1272,-1.1297,-1.1297,-1.1297,-1.1297,-1.1297,-1.1297,-1.1322,-1.1326,-1.1347,-1.1448,-1.1573,-1.1678,-1.1757,-1.1803,-1.1902,-1.1923,-1.1923,-1.2026,-1.2076,-1.2071,-1.2047,-1.2051,-1.2026,-1.2026,-1.2022,-1.2047,-1.2076,-1.2122,-1.2038,-1.2326,-1.2305,-1.2372,-1.2588,-1.2877,-1.3277,-1.3451,-1.3713,-1.4286,-1.4398,-1.4444,-1.4394,-1.4412,-1.4485,-1.4485,-1.4485,-1.4485,-1.4485,-1.4485,-1.4485,-1.4485,-1.4485,-1.4485,-1.4485,-1.4485,-1.4485,-1.4485,-1.4485,-1.4485,-1.4485,-1.4485,-1.4485,-1.4485,-1.4485,-1.4485,-1.4485,-1.4485,-1.4485,-1.4485,-1.4485,-1.4485,-1.4426,-1.4396,-1.4341,-0.6077,-0.6082,-0.6134,-0.6164,-0.6166,-0.6164,-0.603,-0.5757,-0.5727,-0.5565,-0.538,-0.5327,-0.5494,-0.5793,-0.608,-0.6534,-0.6972,-0.7109,-0.7109,-0.7109,-0.7109,-0.7109,-0.7109,-0.7109,-0.7109,-0.7109,-0.7109,-0.7109,-0.7136,-0.7279,-0.7443,-0.7595,-0.8043,-0.854,-0.9066,-0.9406,-0.9925,-1.0362,-1.0676,-1.0833,-1.0884,-1.1095,-1.1272,-1.1297,-1.1297,-1.1297,-1.1297,-1.1297,-1.1297,-1.1297,-1.1297,-1.1347,-1.1393,-1.1448,-1.1553,-1.1678,-1.1748,-1.1798,-1.1773,-1.1873,-1.1902,-1.1977,-1.1977,-1.2026,-1.2076,-1.2076,-1.2076,-1.2076,-1.2076,-1.2076,-1.2049,-1.2047,-1.2076,-1.2128,-1.2303,-1.2693,-1.3075,-1.3089,-1.3507,-1.4025,-1.4107,-1.4139,-1.4194,-1.4277,-1.443,-1.4485,-1.4485,-1.4485,-1.4485,-1.4485,-1.4485,-1.4485,-1.4485,-1.4485,-1.4485,-1.4485,-1.4485,-1.4485,-1.4485,-1.4485,-1.4485,-1.4485,-1.4485,-1.4485,-1.4485,-1.4485,-1.4485,-1.4485,-1.4485,-1.4485,-1.4485,-1.4467,-1.4405,-1.4332,-1.4263,-0.5071,-0.5071,-0.5158,-0.5242,-0.5244,-0.5272,-0.5299,-0.5301,-0.5329,-0.5327,-0.5301,-0.5329,-0.5466,-0.5711,-0.603,-0.646,-0.7055,-0.7055,-0.7028,-0.7109,-0.7109,-0.7109,-0.7109,-0.7109,-0.7109,-0.7109,-0.7109,-0.7109,-0.7168,-0.7308,-0.7416,-0.7571,-0.7702,-0.8096,-0.8722,-0.8961,-0.9145,-0.9562,-0.9984,-1.0267,-1.0502,-1.0837,-1.1192,-1.1297,-1.1297,-1.1297,-1.1297,-1.1297,-1.1322,-1.1322,-1.1318,-1.1326,-1.1318,-1.1297,-1.1402,-1.1553,-1.1544,-1.1523,-1.1623,-1.1498,-1.1494,-1.1569,-1.1644,-1.1669,-1.1689,-1.1689,-1.1957,-1.2051,-1.1927,-1.1977,-1.2026,-1.1977,-1.2002,-1.2133,-1.2225,-1.2427,-1.2836,-1.3001,-1.3038,-1.3424,-1.3672,-1.3879,-1.3956,-1.4277,-1.4462,-1.4485,-1.4485,-1.4485,-1.4485,-1.4485,-1.4485,-1.4485,-1.4485,-1.4485,-1.4485,-1.4485,-1.4485,-1.4485,-1.4485,-1.4485,-1.4485,-1.4485,-1.4485,-1.4485,-1.4485,-1.4485,-1.4485,-1.4485,-1.4485,-1.4485,-1.4485,-1.4462,-1.4442,-1.4281,-1.4148,-0.4928,-0.4928,-0.4928,-0.5014,-0.5128,-0.5128,-0.5215,-0.5301,-0.5301,-0.5301,-0.5301,-0.5301,-0.5327,-0.5489,-0.5738,-0.6332,-0.6815,-0.6896,-0.6923,-0.7085,-0.7109,-0.7109,-0.7109,-0.7109,-0.7109,-0.7109,-0.7109,-0.7195,-0.7255,-0.7389,-0.7521,-0.7678,-0.7812,-0.8159,-0.8593,-0.8649,-0.9089,-0.9484,-0.964,-0.9899,-1.0293,-1.045,-1.0761,-1.1065,-1.1221,-1.1221,-1.1171,-1.1196,-1.1272,-1.1418,-1.1322,-1.1347,-1.1448,-1.1347,-1.1326,-1.1221,-1.1061,-1.0964,-1.1297,-1.1087,-1.088,-1.0926,-1.0952,-1.0744,-1.0817,-1.1129,-1.1523,-1.2076,-1.1694,-1.1569,-1.1739,-1.1598,-1.1698,-1.1938,-1.2186,-1.244,-1.2762,-1.2712,-1.2767,-1.3029,-1.335,-1.3626,-1.3795,-1.4185,-1.4485,-1.4485,-1.4485,-1.4485,-1.4485,-1.4485,-1.4485,-1.4485,-1.4485,-1.4485,-1.4485,-1.4485,-1.4485,-1.4485,-1.4485,-1.4485,-1.4485,-1.4485,-1.4485,-1.4485,-1.4485,-1.4485,-1.4485,-1.4485,-1.4485,-1.4485,-1.4485,-1.4485,-1.4481,-1.4309,-1.4052,-0.4708,-0.4796,-0.4844,-0.4985,-0.5101,-0.5101,-0.5185,-0.5299,-0.5301,-0.5301,-0.5301,-0.5301,-0.5411,-0.5574,-0.577,-0.6198,-0.6731,-0.6758,-0.6842,-0.7058,-0.7109,-0.7109,-0.7109,-0.7109,-0.7109,-0.7109,-0.7136,-0.7219,-0.7333,-0.7389,-0.7491,-0.7702,-0.7756,-0.7919,-0.8309,-0.8315,-0.8395,-0.8656,-0.8961,-0.9406,-0.9803,-0.9958,-1.0087,-1.037,-1.0659,-1.079,-1.079,-1.0786,-1.1015,-1.1192,-1.1074,-1.0812,-1.0888,-1.0892,-1.0845,-1.0409,-0.995,-1.0087,-1.0659,-1.037,-1.0233,-1.02,-1.0255,-1.023,-1.0247,-1.0482,-1.0791,-1.1086,-1.0935,-1.096,-1.1116,-1.0918,-1.1179,-1.1504,-1.1885,-1.2285,-1.2444,-1.2399,-1.2436,-1.273,-1.302,-1.33,-1.3598,-1.402,-1.4334,-1.4485,-1.4485,-1.4485,-1.4485,-1.4485,-1.4485,-1.4485,-1.4485,-1.4485,-1.4485,-1.4485,-1.4485,-1.4485,-1.4485,-1.4485,-1.4485,-1.4485,-1.4485,-1.4485,-1.4485,-1.4485,-1.4485,-1.4485,-1.4485,-1.4485,-1.4485,-1.4485,-1.4462,-1.4208,-1.402,-0.4575,-0.466,-0.4763,-0.4901,-0.5044,-0.5044,-0.5158,-0.5301,-0.5301,-0.5301,-0.5301,-0.5329,-0.5491,-0.5711,-0.5768,-0.6032,-0.6677,-0.662,-0.6812,-0.7001,-0.7109,-0.7109,-0.7109,-0.7109,-0.7109,-0.7109,-0.7109,-0.7246,-0.7386,-0.7443,-0.7523,-0.7756,-0.7785,-0.7839,-0.7901,-0.7955,-0.8032,-0.8058,-0.8388,-0.8856,-0.9302,-0.9402,-0.9506,-0.9692,-0.9958,-1.0219,-1.0216,-1.0216,-1.0468,-1.0651,-1.0472,-1.0237,-1.0293,-1.0344,-1.0245,-0.9821,-0.9383,-0.9335,-0.9695,-0.9636,-0.9506,-0.9477,-0.9451,-0.9454,-0.9836,-0.9961,-1.0167,-1.0444,-1.0269,-1.0295,-1.0342,-1.0342,-1.0529,-1.0897,-1.1293,-1.1775,-1.2151,-1.2143,-1.2184,-1.2436,-1.2716,-1.2983,-1.3328,-1.3804,-1.4162,-1.4412,-1.4485,-1.4485,-1.4485,-1.4485,-1.4485,-1.4485,-1.4485,-1.4485,-1.4485,-1.4485,-1.4485,-1.4485,-1.4485,-1.4485,-1.4485,-1.4485,-1.4485,-1.4485,-1.4467,-1.4485,-1.4485,-1.4485,-1.4485,-1.4485,-1.4485,-1.4485,-1.4394,-1.4157,-1.4075,-0.4489,-0.4519,-0.4517,-0.4682,-0.4901,-0.4928,-0.5071,-0.5301,-0.5301,-0.5301,-0.5301,-0.5327,-0.5462,-0.5629,-0.5599,-0.5866,-0.6677,-0.6372,-0.6645,-0.6947,-0.7109,-0.7109,-0.7109,-0.7109,-0.7109,-0.7109,-0.7109,-0.7246,-0.744,-0.7494,-0.7631,-0.7845,-0.7845,-0.7875,-0.7904,-0.7904,-0.7904,-0.7904,-0.8055,-0.8309,-0.8699,-0.8879,-0.9044,-0.9406,-0.9562,-0.964,-0.9666,-0.9662,-0.9792,-1.0053,-0.9792,-0.9684,-0.974,-0.9769,-0.9647,-0.9361,-0.9017,-0.8916,-0.8965,-0.8988,-0.8906,-0.8778,-0.8702,-0.8705,-0.9138,-0.9354,-0.9636,-0.9939,-0.971,-0.981,-0.9961,-1.0064,-0.9939,-1.0328,-1.0749,-1.1188,-1.1608,-1.1926,-1.1986,-1.2175,-1.2455,-1.2785,-1.302,-1.3456,-1.3928,-1.4222,-1.4476,-1.4485,-1.4485,-1.4485,-1.4485,-1.4485,-1.4485,-1.4485,-1.4485,-1.4485,-1.4485,-1.4485,-1.4485,-1.4485,-1.4485,-1.4485,-1.4485,-1.4403,-1.4371,-1.443,-1.4481,-1.4497,-1.4492,-1.451,-1.4485,-1.4485,-1.4485,-1.4373,-1.4341,-0.4489,-0.4489,-0.4489,-0.4655,-0.4901,-0.4901,-0.5071,-0.5272,-0.5301,-0.5301,-0.5301,-0.5329,-0.5382,-0.5439,-0.5437,-0.5675,-0.632,-0.6265,-0.6593,-0.692,-0.7109,-0.7109,-0.7109,-0.7109,-0.7109,-0.7109,-0.7109,-0.7217,-0.7464,-0.7491,-0.7658,-0.7821,-0.7904,-0.7904,-0.7904,-0.7904,-0.7904,-0.7904,-0.7904,-0.8082,-0.8129,-0.8232,-0.8345,-0.8501,-0.9014,-0.9086,-0.9112,-0.9112,-0.9321,-0.9454,-0.9249,-0.9194,-0.9194,-0.9178,-0.905,-0.8844,-0.855,-0.8474,-0.8448,-0.8448,-0.8477,-0.8497,-0.8374,-0.8348,-0.8649,-0.8709,-0.8791,-0.8916,-0.9047,-0.9194,-0.9164,-0.9141,-0.9194,-0.974,-1.0208,-1.0651,-1.1006,-1.136,-1.1778,-1.1915,-1.2307,-1.2712,-1.2905,-1.3089,-1.3561,-1.3997,-1.4286,-1.4485,-1.4485,-1.4485,-1.4485,-1.4485,-1.4485,-1.4485,-1.4485,-1.4485,-1.4485,-1.4485,-1.4485,-1.4485,-1.4485,-1.4485,-1.4467,-1.4366,-1.4332,-1.445,-1.4496,-1.451,-1.4503,-1.4506,-1.4485,-1.4485,-1.4485,-1.4485,-1.4485,-0.4489,-0.4489,-0.4489,-0.4627,-0.4818,-0.4871,-0.5042,-0.5215,-0.5272,-0.5301,-0.5301,-0.5301,-0.5301,-0.5301,-0.5329,-0.562,-0.6075,-0.6236,-0.6591,-0.6891,-0.7109,-0.7109,-0.7109,-0.7109,-0.7109,-0.7109,-0.7136,-0.7246,-0.7413,-0.7464,-0.7628,-0.7791,-0.7875,-0.7904,-0.7904,-0.7904,-0.7904,-0.7904,-0.7904,-0.7904,-0.7928,-0.7928,-0.7928,-0.8008,-0.8368,-0.8491,-0.8517,-0.8547,-0.8679,-0.8784,-0.8732,-0.8544,-0.855,-0.8557,-0.8431,-0.8245,-0.8112,-0.8115,-0.8115,-0.8115,-0.8198,-0.8295,-0.8268,-0.8268,-0.8345,-0.8348,-0.855,-0.8557,-0.8557,-0.8557,-0.8659,-0.8791,-0.8867,-0.9361,-0.9718,-1.0109,-1.0464,-1.0817,-1.128,-1.1671,-1.201,-1.2247,-1.2615,-1.2813,-1.335,-1.3778,-1.4029,-1.4318,-1.4485,-1.4485,-1.4485,-1.4485,-1.4485,-1.4485,-1.4485,-1.4485,-1.4485,-1.4485,-1.4485,-1.4485,-1.4485,-1.4485,-1.4472,-1.4428,-1.4412,-1.4482,-1.4484,-1.4494,-1.4492,-1.4485,-1.4485,-1.4485,-1.4485,-1.4485,-1.4485,-0.4432,-0.4489,-0.4432,-0.4519,-0.4658,-0.4847,-0.4985,-0.5158,-0.5272,-0.5301,-0.5301,-0.5301,-0.5301,-0.5329,-0.5356,-0.5702,-0.6102,-0.6236,-0.6561,-0.6999,-0.7109,-0.7109,-0.7109,-0.7109,-0.7109,-0.7109,-0.7109,-0.7168,-0.7314,-0.7413,-0.7571,-0.7732,-0.7845,-0.7904,-0.7904,-0.7904,-0.7904,-0.7904,-0.7904,-0.7904,-0.7904,-0.7904,-0.7904,-0.7928,-0.8008,-0.8109,-0.8109,-0.8109,-0.8189,-0.8215,-0.8189,-0.8082,-0.8085,-0.8058,-0.8008,-0.7955,-0.7928,-0.7931,-0.7931,-0.7931,-0.8062,-0.8242,-0.8268,-0.8298,-0.8421,-0.8471,-0.8497,-0.8504,-0.8613,-0.8695,-0.8778,-0.8778,-0.8824,-0.8952,-0.9312,-0.9614,-0.9972,-1.0226,-1.0719,-1.1364,-1.1448,-1.1571,-1.2044,-1.2519,-1.3098,-1.352,-1.3777,-1.4066,-1.4359,-1.4385,-1.4378,-1.4451,-1.4446,-1.4426,-1.4426,-1.4472,-1.4485,-1.4485,-1.4485,-1.4485,-1.4485,-1.4485,-1.4462,-1.4442,-1.4428,-1.4464,-1.4476,-1.4501,-1.4481,-1.4485,-1.4485,-1.4485,-1.4485,-1.4485,-1.4485,-0.332,-0.3321,-0.332,-0.3569,-0.3989,-0.4325,-0.4717,-0.5185,-0.5301,-0.5301,-0.5301,-0.5301,-0.5301,-0.5356,-0.5574,-0.5839,-0.6157,-0.6485,-0.6812,-0.7055,-0.7109,-0.7109,-0.7109,-0.7109,-0.7109,-0.7109,-0.7109,-0.7166,-0.7311,-0.7362,-0.7518,-0.7676,-0.7815,-0.7901,-0.7904,-0.7904,-0.7904,-0.7904,-0.7904,-0.7904,-0.7904,-0.7904,-0.7904,-0.7904,-0.7904,-0.7904,-0.7904,-0.7904,-0.7904,-0.7904,-0.7904,-0.7904,-0.7904,-0.7904,-0.7904,-0.7904,-0.7904,-0.7904,-0.7904,-0.7931,-0.8085,-0.8268,-0.8348,-0.8374,-0.8521,-0.8471,-0.8471,-0.8474,-0.856,-0.8616,-0.8636,-0.8662,-0.8712,-0.8801,-0.9057,-0.9309,-0.9588,-0.9766,-1.0153,-1.0956,-1.1322,-1.1598,-1.1975,-1.2241,-1.2739,-1.3259,-1.3566,-1.385,-1.4153,-1.4144,-1.4116,-1.4272,-1.4336,-1.4355,-1.4357,-1.4444,-1.4485,-1.4485,-1.4485,-1.4485,-1.4485,-1.4485,-1.4382,-1.4281,-1.4368,-1.4426,-1.4423,-1.4414,-1.4462,-1.4485,-1.4485,-1.4485,-1.4485,-1.4485,-1.4485,-0.2682,-0.2682,-0.2682,-0.296,-0.3405,-0.3853,-0.452,-0.5132,-0.5272,-0.5301,-0.5301,-0.5301,-0.5301,-0.5384,-0.5629,-0.5948,-0.6238,-0.6566,-0.6842,-0.7082,-0.7109,-0.7109,-0.7109,-0.7109,-0.7109,-0.7109,-0.7109,-0.7139,-0.7225,-0.7284,-0.7467,-0.7676,-0.7815,-0.7875,-0.7904,-0.7904,-0.7904,-0.7904,-0.7904,-0.7904,-0.7904,-0.7904,-0.7904,-0.7904,-0.7904,-0.7904,-0.7904,-0.7904,-0.7904,-0.7904,-0.7904,-0.7904,-0.7904,-0.7904,-0.7904,-0.7904,-0.7904,-0.7904,-0.7904,-0.7904,-0.8085,-0.8348,-0.8374,-0.8421,-0.8547,-0.8524,-0.8533,-0.8537,-0.851,-0.856,-0.8636,-0.8659,-0.8689,-0.8778,-0.888,-0.9106,-0.9181,-0.9364,-0.9744,-1.057,-1.1133,-1.1464,-1.1907,-1.209,-1.2367,-1.2863,-1.3337,-1.3667,-1.3951,-1.396,-1.4029,-1.4226,-1.4336,-1.4373,-1.4394,-1.4458,-1.4485,-1.4485,-1.4485,-1.4485,-1.4485,-1.4481,-1.4313,-1.4185,-1.4359,-1.4417,-1.4327,-1.4318,-1.4426,-1.4485,-1.4485,-1.4485,-1.4485,-1.4485,-1.4485,-0.2625,-0.2626,-0.2625,-0.2682,-0.2933,-0.3518,-0.4237,-0.5016,-0.5215,-0.5301,-0.5244,-0.5272,-0.5301,-0.5382,-0.5686,-0.5978,-0.6238,-0.6593,-0.6866,-0.7055,-0.7109,-0.7109,-0.7109,-0.7109,-0.7109,-0.7109,-0.7109,-0.7109,-0.7139,-0.7281,-0.7467,-0.7649,-0.7815,-0.7875,-0.7904,-0.7904,-0.7904,-0.7904,-0.7904,-0.7904,-0.7904,-0.7904,-0.7904,-0.7904,-0.7904,-0.7904,-0.7904,-0.7904,-0.7904,-0.7904,-0.7904,-0.7904,-0.7904,-0.7904,-0.7904,-0.7904,-0.7904,-0.7904,-0.7904,-0.7904,-0.7981,-0.8192,-0.8192,-0.8345,-0.8471,-0.8553,-0.8557,-0.8639,-0.8669,-0.8725,-0.8778,-0.8778,-0.8778,-0.8781,-0.8781,-0.8857,-0.8857,-0.9084,-0.9488,-1.0024,-1.0529,-1.1015,-1.1723,-1.1993,-1.2161,-1.2579,-1.3093,-1.3561,-1.3832,-1.3961,-1.4081,-1.435,-1.4428,-1.4403,-1.4449,-1.4481,-1.4485,-1.4485,-1.4485,-1.4485,-1.4485,-1.4485,-1.4419,-1.4378,-1.443,-1.444,-1.4362,-1.4375,-1.4453,-1.4485,-1.4485,-1.4485,-1.4485,-1.4485,-1.4485,-0.1344,-0.1401,-0.1428,-0.1707,-0.2236,-0.3124,-0.3543,-0.3681,-0.4712,-0.5162,-0.4882,-0.5189,-0.5272,-0.5354,-0.5837,-0.6077,-0.6374,-0.6674,-0.695,-0.7085,-0.7109,-0.7109,-0.7109,-0.7109,-0.7109,-0.7109,-0.7109,-0.7109,-0.7168,-0.7308,-0.7443,-0.7571,-0.7788,-0.7875,-0.7904,-0.7904,-0.7904,-0.7904,-0.7904,-0.7904,-0.7904,-0.7904,-0.7904,-0.7904,-0.7904,-0.7904,-0.7904,-0.7904,-0.7904,-0.7904,-0.7904,-0.7904,-0.7904,-0.7904,-0.7904,-0.7904,-0.7904,-0.7904,-0.7904,-0.7904,-0.7928,-0.8008,-0.8008,-0.8192,-0.8345,-0.8474,-0.8497,-0.861,-0.8666,-0.8666,-0.8722,-0.8725,-0.8752,-0.8748,-0.8748,-0.8725,-0.8725,-0.8824,-0.923,-0.9714,-1.0222,-1.0867,-1.1548,-1.1882,-1.2056,-1.2443,-1.285,-1.3355,-1.3727,-1.3832,-1.4113,-1.4387,-1.4419,-1.4396,-1.444,-1.4485,-1.4485,-1.4485,-1.4485,-1.4485,-1.4485,-1.4485,-1.4485,-1.4485,-1.4485,-1.4485,-1.4472,-1.4485,-1.4485,-1.4485,-1.4485,-1.4485,-1.4485,-1.4485,-1.4485,-0.0813,-0.0897,-0.0897,-0.1177,-0.1707,-0.2624,-0.2875,-0.2906,-0.4158,-0.4715,-0.4746,-0.4939,-0.5217,-0.5574,-0.5973,-0.6265,-0.6455,-0.6837,-0.7112,-0.7112,-0.7109,-0.7109,-0.7109,-0.7109,-0.7109,-0.7109,-0.7109,-0.7109,-0.7168,-0.7359,-0.7521,-0.7521,-0.7762,-0.7875,-0.7904,-0.7904,-0.7904,-0.7904,-0.7904,-0.7904,-0.7904,-0.7904,-0.7904,-0.7904,-0.7904,-0.7904,-0.7904,-0.7904,-0.7904,-0.7904,-0.7904,-0.7904,-0.7904,-0.7904,-0.7904,-0.7904,-0.7904,-0.7904,-0.7904,-0.7904,-0.7904,-0.7904,-0.7904,-0.8008,-0.8135,-0.8265,-0.8371,-0.8507,-0.8527,-0.8553,-0.8613,-0.8669,-0.8692,-0.8689,-0.8666,-0.8639,-0.8639,-0.8639,-0.9024,-0.954,-1.0131,-1.0774,-1.1288,-1.1594,-1.1915,-1.2229,-1.2621,-1.3086,-1.3478,-1.373,-1.407,-1.4423,-1.4382,-1.4318,-1.4389,-1.4485,-1.4485,-1.4485,-1.4485,-1.4485,-1.4485,-1.4485,-1.4485,-1.4485,-1.4485,-1.4485,-1.4485,-1.4485,-1.4485,-1.4485,-1.4485,-1.4485,-1.4485,-1.4485,-1.4485,-0.0897,-0.0897,-0.0897,-0.1066,-0.1402,-0.2153,-0.2376,-0.2352,-0.3438,-0.4135,-0.4494,-0.4632,-0.5022,-0.5515,-0.5916,-0.632,-0.6593,-0.6947,-0.7109,-0.7109,-0.7109,-0.7109,-0.7109,-0.7109,-0.7109,-0.7109,-0.7109,-0.7109,-0.7168,-0.7333,-0.7467,-0.7494,-0.7735,-0.7875,-0.7904,-0.7904,-0.7904,-0.7904,-0.7904,-0.7904,-0.7904,-0.7904,-0.7904,-0.7904,-0.7904,-0.7904,-0.7904,-0.7904,-0.7904,-0.7904,-0.7904,-0.7904,-0.7904,-0.7904,-0.7904,-0.7904,-0.7904,-0.7904,-0.7904,-0.7904,-0.7904,-0.7904,-0.7904,-0.7928,-0.8032,-0.8082,-0.8218,-0.8351,-0.8401,-0.8474,-0.8533,-0.8533,-0.8557,-0.8557,-0.853,-0.853,-0.8504,-0.853,-0.8738,-0.9201,-0.964,-1.0285,-1.0825,-1.1158,-1.1775,-1.2045,-1.2512,-1.2996,-1.3363,-1.3664,-1.4026,-1.4401,-1.4389,-1.4378,-1.4408,-1.4485,-1.4485,-1.4485,-1.4485,-1.4485,-1.4485,-1.4485,-1.4485,-1.4485,-1.4485,-1.4485,-1.4485,-1.4485,-1.4485,-1.4485,-1.4485,-1.4485,-1.4485,-1.4485,-1.4485,-0.0813,-0.0897,-0.0897,-0.1066,-0.1346,-0.1763,-0.207,-0.224,-0.2745,-0.3303,-0.3692,-0.4078,-0.4574,-0.5234,-0.5582,-0.6014,-0.6618,-0.6839,-0.7055,-0.7109,-0.7109,-0.7109,-0.7109,-0.7109,-0.7109,-0.7109,-0.7109,-0.7109,-0.7166,-0.7279,-0.7416,-0.7494,-0.7678,-0.7815,-0.7875,-0.7875,-0.7904,-0.7904,-0.7904,-0.7904,-0.7904,-0.7904,-0.7904,-0.7904,-0.7904,-0.7904,-0.7904,-0.7904,-0.7904,-0.7904,-0.7904,-0.7904,-0.7904,-0.7904,-0.7904,-0.7904,-0.7904,-0.7904,-0.7904,-0.7904,-0.7904,-0.7904,-0.7904,-0.7904,-0.7928,-0.7955,-0.8035,-0.8168,-0.8275,-0.8348,-0.8398,-0.8398,-0.8398,-0.8398,-0.8398,-0.8368,-0.8368,-0.8421,-0.8477,-0.8788,-0.9175,-0.9666,-1.023,-1.0845,-1.1494,-1.2056,-1.2641,-1.3117,-1.3458,-1.376,-1.4053,-1.4364,-1.4467,-1.4458,-1.4485,-1.4485,-1.4485,-1.4485,-1.4485,-1.4485,-1.4485,-1.4485,-1.4485,-1.4485,-1.4485,-1.4485,-1.4485,-1.4485,-1.4485,-1.4485,-1.4485,-1.4485,-1.4485,-1.4485,-1.4485,-0.0673,-0.0813,-0.0869,-0.1121,-0.1512,-0.1706,-0.2043,-0.241,-0.2607,-0.2829,-0.3136,-0.3579,-0.4132,-0.4792,-0.5113,-0.5653,-0.6312,-0.6591,-0.6866,-0.7028,-0.7109,-0.7109,-0.7109,-0.7109,-0.7109,-0.7109,-0.7109,-0.7109,-0.7139,-0.7225,-0.7365,-0.744,-0.7595,-0.7729,-0.7815,-0.7845,-0.7904,-0.7904,-0.7904,-0.7904,-0.7904,-0.7904,-0.7904,-0.7904,-0.7904,-0.7904,-0.7904,-0.7904,-0.7904,-0.7904,-0.7904,-0.7904,-0.7904,-0.7904,-0.7904,-0.7904,-0.7904,-0.7904,-0.7904,-0.7904,-0.7904,-0.7904,-0.7904,-0.7904,-0.7904,-0.7928,-0.7928,-0.8065,-0.8065,-0.8112,-0.8215,-0.8242,-0.8242,-0.8242,-0.8189,-0.8109,-0.8106,-0.8135,-0.8242,-0.8424,-0.8735,-0.8995,-0.9584,-1.0174,-1.0858,-1.1734,-1.2366,-1.3151,-1.3504,-1.3805,-1.4086,-1.4258,-1.4357,-1.4455,-1.4485,-1.4485,-1.4485,-1.4485,-1.4485,-1.4485,-1.4485,-1.4485,-1.4485,-1.4485,-1.4485,-1.4485,-1.4485,-1.4485,-1.4485,-1.4485,-1.4485,-1.4485,-1.4485,-1.4485,-1.4485,-0.0561,-0.0729,-0.0897,-0.126,-0.1762,-0.1847,-0.2183,-0.2635,-0.2691,-0.2691,-0.2775,-0.3134,-0.3745,-0.4241,-0.4593,-0.5218,-0.5762,-0.6204,-0.6591,-0.6839,-0.7058,-0.7082,-0.7109,-0.7109,-0.7109,-0.7109,-0.7109,-0.7109,-0.7109,-0.7198,-0.7281,-0.7335,-0.7491,-0.7696,-0.7726,-0.7815,-0.7904,-0.7904,-0.7904,-0.7904,-0.7904,-0.7904,-0.7904,-0.7904,-0.7904,-0.7904,-0.7904,-0.7904,-0.7904,-0.7904,-0.7904,-0.7904,-0.7904,-0.7904,-0.7904,-0.7904,-0.7904,-0.7904,-0.7904,-0.7904,-0.7904,-0.7904,-0.7904,-0.7904,-0.7904,-0.7904,-0.7904,-0.7904,-0.7904,-0.7928,-0.8032,-0.8085,-0.8115,-0.8115,-0.8005,-0.7925,-0.7925,-0.7925,-0.8032,-0.8165,-0.8328,-0.8537,-0.9086,-0.9672,-1.0431,-1.131,-1.2132,-1.2908,-1.3515,-1.3747,-1.3991,-1.4109,-1.4169,-1.4297,-1.4426,-1.4455,-1.4455,-1.4485,-1.4485,-1.4485,-1.4485,-1.4485,-1.4485,-1.4485,-1.4485,-1.4485,-1.4485,-1.4485,-1.4485,-1.4485,-1.4485,-1.4485,-1.4485,-1.4485,-1.4485,-0.0729,-0.0869,-0.1122,-0.1457,-0.179,-0.2015,-0.2353,-0.2663,-0.2691,-0.2691,-0.2719,-0.2801,-0.3245,-0.3936,-0.4065,-0.4556,-0.5244,-0.5739,-0.6098,-0.6374,-0.681,-0.7001,-0.7109,-0.7109,-0.7109,-0.7109,-0.7109,-0.7109,-0.7109,-0.7139,-0.7195,-0.7281,-0.7437,-0.7595,-0.7726,-0.7815,-0.7875,-0.7875,-0.7904,-0.7904,-0.7904,-0.7904,-0.7904,-0.7904,-0.7904,-0.7904,-0.7904,-0.7904,-0.7904,-0.7904,-0.7904,-0.7904,-0.7904,-0.7904,-0.7904,-0.7904,-0.7904,-0.7904,-0.7904,-0.7904,-0.7904,-0.7904,-0.7904,-0.7904,-0.7904,-0.7904,-0.7904,-0.7904,-0.7904,-0.7904,-0.7955,-0.7955,-0.7981,-0.7981,-0.7928,-0.7901,-0.7901,-0.7901,-0.7955,-0.7994,-0.8062,-0.8454,-0.8989,-0.9614,-1.0313,-1.1163,-1.2024,-1.2809,-1.3392,-1.3664,-1.3894,-1.3894,-1.392,-1.4143,-1.4272,-1.4366,-1.4366,-1.4455,-1.4485,-1.4485,-1.4485,-1.4485,-1.4485,-1.4485,-1.4485,-1.4485,-1.4485,-1.4485,-1.4485,-1.4485,-1.4485,-1.4485,-1.4485,-1.4485,-1.4485]}]]